     2.10           OBSERVATION DATA    G (GPS)             RINEX VERSION / TYPE
Convert 06-Sep-2004 20:34                                   PGM / RUN BY / DATE
Signal Strength values S1,S2 are in dBHz                    COMMENT
                                                            MARKER NAME
                                                            MARKER NUMBER
                                                            OBSERVER / AGENCY
NovAtel GPSCard                                             REC # / TYPE / VERS
                                                            ANT # / TYPE
 -1288179.6043 -4720798.7400  4079721.9434                  APPROX POSITION XYZ
        0.0000        0.0000        0.0000                  ANTENNA: DELTA H/E/N
     1     1                                                WAVELENGTH FACT L1/2
     1     1     7   G01   G03   G04   G05   G06   G09   G11WAVELENGTH FACT L1/2
     1     1     7   G13   G14   G15   G16   G17   G18   G19WAVELENGTH FACT L1/2
     1     1     7   G20   G22   G24   G25   G26   G28   G29WAVELENGTH FACT L1/2
     1     1     1   G30                                    WAVELENGTH FACT L1/2
                                                            COMMENT
     8    C1    L1    D1    S1    P2    L2    D2    S2      # / TYPES OF OBSERV
    60.000                                                  INTERVAL
  2004    09    01    16    38    0.0000000     GPS         TIME OF FIRST OBS
  2004    09    02    16    12    0.0000000     GPS         TIME OF LAST OBS
Leap Seconds Unknown                                        COMMENT
                                                            END OF HEADER
 04 09 01 16 38  0.0000000  0  8G 1G30G22G 5G25G14G20G11
  22291577.16848 117450791.11948      2035.80948        46.900    22291577.85245
  91520048.89145      1586.34045        39.400
  23115969.57747 121782996.91547       523.46947        45.400    23115970.21444
  94656031.88744       407.89544        36.800
  23233901.84848 122402715.41848     -2831.56348        46.600    23233900.65244
  95378680.27744     -2206.41444        37.900
  24564804.41644 129396671.14044     -1436.02744        37.900    24564805.54042
 100828518.91342     -1118.98442        32.500
  20590090.78749 108509414.40449      1033.93849        49.700    20590090.29647
  84552738.86247       805.66447        43.800
  21640864.74048 114031263.43948     -1906.58248        47.700    21640863.87545
  88855470.62245     -1485.65245        40.600
  23877081.09546 125474907.73146      3294.65646        42.100    23877082.46544
  97772664.35044      2567.26244        37.300
  22330638.31648 117656050.76848      -116.03148        47.000    22330637.62744
  91679977.19544       -90.41844        37.300
 04 09 01 16 39  0.0000000  0  8G 1G30G22G 5G25G14G20G11
  22268400.87948 117328999.23548      2024.12148        46.900    22268401.73945
  91425146.17545      1577.23445        39.000
  23110204.41247 121752702.20647       486.59047        45.100    23110205.34744
  94632425.66844       379.15644        36.800
  23266317.83348 122573061.86148     -2846.66848        46.300    23266316.57144
  95511417.57744     -2218.18844        37.100
  24581397.22844 129483866.02244     -1470.07444        38.700    24581398.62342
 100896462.91542     -1145.52042        32.500
  20578473.00749 108448363.17249      1001.23049        49.700    20578472.61447
  84505166.49347       780.17647        44.000
  21662694.12948 114145977.15248     -1917.07048        47.500    21662693.31545
  88944857.89145     -1493.82445        40.300
  23839488.18946 125277356.12446      3290.55546        42.300    23839489.81743
  97618728.13043      2564.06643        35.700
  22332168.97248 117664094.65448      -151.81648        47.100    22332168.42344
  91686245.13044      -118.33644        37.600
 04 09 01 16 40  0.0000000  0  8G 1G30G22G 5G25G14G20G11
  22245360.57248 117207922.03448      2011.89548        46.800    22245361.48845
  91330800.36445      1567.70745        39.900
  23104861.22147 121724624.46447       449.29347        45.100    23104862.39944
  94610546.91844       350.09444        37.100
  23298906.08148 122744313.09148     -2861.90248        46.200    23298904.95544
  95644859.90744     -2230.05944        37.600
  24598375.64644 129573085.42144     -1503.84044        38.300    24598376.87441
 100965984.47041     -1171.82841        30.700
  20567228.80049 108389274.26449       968.34449        49.700    20567228.35247
  84459123.20847       754.55147        43.400
  21684641.50248 114261312.33948     -1927.71548        47.300    21684640.88245
  89034729.42045     -1502.11745        39.600
  23801944.25246 125080060.75446      3285.98446        42.800    23801945.39443
  97464991.53443      2560.50443        36.100
  22334107.54448 117674280.79048      -187.72748        47.600    22334106.79544
  91694182.35144      -146.28944        38.500
 04 09 01 16 41  0.0000000  0  8G 1G30G22G 5G25G14G20G11
  22222457.51748 117087565.71048      2000.10248        47.100    22222458.29944
  91237016.27644      1558.51644        38.800
  23099943.08447 121698779.56247       412.25047        45.400    23099944.18843
  94590408.06643       321.23043        36.600
  23331666.24548 122916468.93148     -2876.78548        45.600    23331665.23643
  95779007.11143     -2241.65243        35.500
  24615737.76344 129664325.41644     -1537.25044        37.100    24615738.86341
 101037080.49941     -1197.85941        28.900
  20556359.45149 108332155.29349       935.53149        49.800    20556359.04047
  84414614.94447       728.98047        43.700
  21706707.63748 114377270.27848     -1937.68448        47.500    21706706.81145
  89125086.21545     -1509.88745        39.200
  23764452.83346 124883041.90646      3281.30946        43.000    23764453.59843
  97311470.43643      2556.85943        36.200
  22336453.95048 117686610.15348      -223.33248        47.600    22336452.97844
  91703789.62144      -174.02744        37.900
 04 09 01 16 42  0.0000000  0  8G 1G30G22G 5G25G14G20G11
  22199691.02448 116967927.17048      1988.03548        47.100    22199691.65745
  91143791.50845      1549.11345        39.700
  23095451.12147 121675173.59147       374.68847        45.100    23095452.09343
  94572013.82743       291.96143        36.200
  23364596.85647 123089519.37547     -2891.63747        45.100    23364596.17043
  95913851.41543     -2253.22743        35.000
  24633482.48444 129757572.52244     -1570.69944        37.100    24633484.01641
 101109740.47241     -1223.93041        18.000
  20545864.78549 108277005.26849       902.68849        49.800    20545863.96247
  84371640.92147       703.39147        43.900
  21728890.65148 114493841.94248     -1947.97348        47.600    21728889.71945
  89215921.22845     -1517.90245        39.800
  23727015.82547 124686311.14647      3276.25847        43.400    23727016.87443
  97158173.81043      2552.92643        35.500
  22339206.42648 117701074.88648      -258.92248        47.300    22339205.73044
  91715060.80644      -201.76244        37.700
 04 09 01 16 43  0.0000000  0  8G 1G30G22G 5G25G14G20G11
  22177061.61648 116849009.06848      1976.15648        47.000    22177062.29644
  91051128.10544      1539.85944        38.600
  23091387.27947 121653818.62547       337.23447        45.400    23091388.42643
  94555373.61343       262.77743        35.800
  23397696.82347 123263459.80247     -2906.28147        44.800    23397696.29743
  96049389.19843     -2264.64143        35.900
  24651606.70443 129852819.30943     -1604.11343        35.500    24651608.30841
 101183958.72941     -1249.95741        24.600
  20535745.22149 108223826.95049       869.96949        49.600    20535744.46547
  84330203.30747       677.89547        43.500
  21751189.95649 114611024.63749     -1958.06349        47.800    21751188.76645
  89307232.37945     -1525.76645        39.700
  23689637.01446 124489886.00746      3271.43046        43.000    23689638.44443
  97005115.34843      2549.16443        35.700
  22342364.79248 117717672.35748      -294.19948        47.400    22342364.19344
  91727993.86144      -229.23844        38.500
 04 09 01 16 44  0.0000000  0  8G 1G30G22G 5G25G14G20G11
  22154567.65848 116730803.55348      1964.07048        47.000    22154568.46145
  90959019.95545      1530.44145        39.200
  23087752.17648 121634714.86548       299.50448        45.800    23087752.73144
  94540487.58344       233.37544        36.800
  23430963.32747 123438275.59747     -2920.77047        43.800    23430962.55943
  96185609.08943     -2275.93043        34.900
  24670108.93843 129950047.03143     -1636.92643        36.400    24670109.90341
 101259720.46841     -1275.53541        25.900
  20525999.17649 108172612.12149       837.13349        49.600    20525998.56947
  84290295.66847       652.30947        43.700
  21773602.88748 114728804.82148     -1968.03948        47.400    21773601.66345
  89399009.10445     -1533.53945        39.700
  23652318.29546 124293773.59846      3265.82846        43.300    23652319.27944
  96852300.53144      2544.79744        36.700
  22345926.46448 117736389.10448      -329.74648        47.200    22345925.67344
  91742578.30744      -256.94944        37.500
 04 09 01 16 45  0.0000000  0  8G 1G30G22G 5G25G14G20G11
  22132210.71348 116613316.57948      1952.00848        46.800    22132211.25045
  90867471.71345      1521.04345        39.200
  23084547.99148 121617876.27948       261.69948        45.900    23084548.59043
  94527366.63743       203.91843        34.900
  23464395.95646 123613965.18146     -2935.34446        42.700    23464395.11342
  96322509.87542     -2287.28542        33.800
  24688986.74344 130049249.48944     -1670.12944        37.900    24688987.96741
 101337021.01141     -1301.40641        28.000
  20516628.15649 108123366.94049       804.24249        49.600    20516627.42047
  84251922.81247       626.68047        43.400
  21796129.29648 114847182.64448     -1978.05548        47.200    21796128.57345
  89491251.53545     -1541.34445        39.800
  23615062.66947 124097993.66847      3259.94147        43.600    23615063.22843
  96699744.79843      2540.21143        36.200
  22349891.32448 117757224.73048      -365.01648        47.400    22349890.54444
  91758813.81844      -284.41444        37.300
 04 09 01 16 46  0.0000000  0  8G 1G30G22G 5G25G14G20G11
  22109990.10648 116496546.76048      1939.97348        47.100    22109990.77945
  90776482.29045      1511.66445        39.500
  23081775.94447 121603309.54147       223.71547        45.500    23081776.46344
  94516015.98944       174.32044        36.700
  23497993.53846 123790520.24846     -2950.07046        42.800    23497992.73042
  96460085.00642     -2298.75842        33.900
  24708238.08243 130150414.64443     -1702.69943        36.300    24708238.65441
 101415850.89441     -1326.79741        30.200
  20507631.58549 108076090.21349       771.56349        49.700    20507631.05047
  84215083.83047       601.21547        44.000
  21818768.37148 114966152.14148     -1987.89148        47.300    21818767.78145
  89583954.99745     -1549.00845        39.600
  23577873.23747 123902561.27247      3254.23447        44.100    23577873.39943
  96547459.87843      2535.76643        36.200
  22354258.01148 117780171.36748      -400.06348        47.600    22354257.41944
  91776694.26744      -311.73844        38.200
 04 09 01 16 47  0.0000000  0  8G 1G30G22G 5G25G14G20G11
  22087906.11448 116380494.54748      1928.16848        47.300    22087906.74045
  90686052.03445      1502.46545        39.300
  23079437.55847 121591022.54947       185.60547        45.100    23079438.62144
  94506441.73644       144.62544        37.200
  23531754.66445 123967933.75945     -2964.35245        40.900    23531753.42741
  96598329.07741     -2309.88741        31.700
  24727859.91643 130253531.61143     -1734.91843        34.900    24727862.22441
 101496201.74041     -1351.88741        31.200
  20499009.84949 108030782.40549       738.64149        49.800    20499009.23047
  84179779.06247       575.56347        43.800
  21841519.25148 115085708.65548     -1997.40648        47.200    21841518.43544
  89677115.87644     -1556.42244        38.100
  23540752.61447 123707491.80547      3248.03147        43.600    23540752.96343
  96395457.75743      2530.93043        35.800
  22359025.33248 117805223.17748      -435.16448        47.600    22359024.79844
  91796215.11844      -339.09444        37.100
 04 09 01 16 48  0.0000000  0  8G 1G30G22G 5G25G14G20G11
  22065958.58048 116265159.19648      1916.49648        47.600    22065958.90944
  90596180.36544      1493.37144        38.700
  23077534.45848 121581021.40248       147.73048        45.800    23077535.40044
  94498648.66144       115.11344        36.800
  23565677.43745 124146197.38345     -2977.68845        40.100    23565675.77141
  96737235.53541     -2320.28141        17.800
  24747851.56843 130358587.04743     -1766.74643        35.200    24747853.25741
 101578063.06241     -1376.69141        30.800
  20490762.39449 107987441.68149       706.12949        49.700    20490761.93447
  84146007.09947       550.22747        43.900
  21864380.75248 115205845.86848     -2007.02048        47.300    21864379.72845
  89770729.24545     -1563.91445        39.700
  23503703.76847 123512799.50947      3241.77347        44.200    23503703.99943
  96243749.51743      2526.05543        36.300
  22364191.57448 117832371.74948      -469.72348        47.600    22364190.85944
  91817369.81144      -366.02044        38.000
 04 09 01 16 49  0.0000000  0  8G 1G30G22G 5G25G14G20G11
  22044147.18548 116150539.32048      1904.18448        47.500    22044147.68045
  90506866.22045      1483.77745        39.600
  23076067.39448 121573311.12148       109.24648        46.000    23076068.17443
  94492640.69343        85.12543        36.600
  23599760.43445 124325302.15045     -2992.30945        39.400    23599759.31641
  96876797.43741     -2331.68041        25.500
  24768209.76243 130465567.14643     -1799.19543        35.600    24768209.41441
 101421698.13151     -1401.96941        31.800
  20482888.84549 107946065.57049       673.01249        49.700    20482888.34847
  84113765.98147       524.42247        44.200
  21887351.51048 115326557.49248     -2016.77748        47.000    21887350.69445
  89864790.19945     -1571.52045        39.400
  23466729.56947 123318498.64947      3234.82047        44.600    23466729.88943
  96092346.31543      2520.63743        36.600
  22369755.13448 117861608.77148      -504.85548        47.200    22369754.62644
  91840151.86344      -393.39844        38.200
 04 09 01 16 50  0.0000000  0  7G 1G30G22G25G14G20G11
  22022473.19448 116036642.16348      1892.13348        47.600    22022473.66345
  90418115.22945      1474.38745        39.500
  23075038.75748 121567905.06548        70.79348        45.900    23075039.24344
  94488428.21644        55.16044        37.100
  23634001.74843 124505247.32543     -3006.25043        36.200    23634002.14441
  97017014.18441     -2342.53541        16.600
  20475390.18749 107906660.02149       640.39149        49.800    20475389.57947
  84083060.37647       499.00447        43.700
  21910431.92248 115447845.99748     -2026.28548        47.300    21910431.16245
  89959300.67845     -1578.92645        39.200
  23429834.20347 123124612.16147      3227.87947        44.300    23429834.66243
  95941266.00943      2515.22743        36.600
  22375715.92648 117892933.29448      -539.37548        47.400    22375715.33144
  91864560.54444      -420.29744        37.600
 04 09 01 16 51  0.0000000  0  8G 1G30G22G 5G25G14G20G11
  22000936.65448 115923466.85348      1880.28148        47.400    22000937.17745
  90329926.71845      1465.15245        39.300
  23074449.12248 121564807.82048        32.28948        45.600    23074449.86344
  94486014.79944        25.15644        37.600
  23668401.57543 124686023.88143     -3020.05143        34.500    23668403.39641
  97157878.81741     -2353.28941        28.700
  24810017.30443 130377519.08353     -1862.75443        35.100    24810021.64142
 101592890.76352     -1451.51242        32.400
  20468266.09449 107869222.67849       607.53549        49.900    20468265.57247
  84053888.44147       473.40247        44.100
  21933621.07148 115569705.45248     -2035.71948        47.100    21933620.35645
  90054256.05745     -1586.27745        39.200
  23393020.30047 122931154.93547      3220.66447        44.700    23393020.88344
  95790520.18444      2509.60544        37.300
  22382072.49748 117926336.35848      -574.04748        47.400    22382071.97444
  91890588.85044      -447.31344        37.300
 04 09 01 16 52  0.0000000  0  8G 1G30G 5G25G14G23G20G11
  21979533.50548 115810993.13748      1871.44148        47.200    21979533.95445
  90242284.89645      1458.26245        39.200
  23074296.13647 121564004.62747        -3.11747        45.200    23074296.65244
  94485388.95344        -2.43444        36.900
  24831460.17342 130490195.51142     -1890.58642        33.400    24831464.68541
 101680697.42351     -1473.19541        31.500
  20461512.22749 107833730.98649       578.05949        49.900    20461511.63447
  84026232.58747       450.43447        43.900
  21956914.10848 115692110.87448     -2042.02348        47.200    21956913.36144
  90149636.84744     -1591.19144        38.700
  24909999.21243 130902935.34853      2860.39543        35.600    24910001.40741
 102002205.20151      2228.87141        28.500
  23356287.40647 122738122.70347      3216.27347        44.800    23356288.03044
  95640105.52544      2506.18444        37.500
  22388819.07448 117961789.09948      -605.25848        47.400    22388818.45844
  91918214.30744      -471.63344        38.300
 04 09 01 16 53  0.0000000  0  9G 1G30G22G 5G25G14G23G20G11
  21958266.55848 115699235.45648      1856.70748        47.000    21958267.22145
  90155201.03145      1446.78145        39.500
  23074583.41047 121565515.21147       -44.57447        45.000    23074584.59943
  94486566.04643       -34.73843        36.500
  23737666.13843 124742257.14753     -3046.37943        35.000    23737668.35341
  97201774.57051     -2373.80541        29.100
  24853258.81242 130604745.14742     -1924.30542        33.300

  20455131.01249 107800197.96649       542.59049        49.800    20455130.37647
  84000102.97847       422.79347        43.400
  21980312.93848 115815072.23248     -2053.91448        47.000    21980312.24045
  90245450.84945     -1600.45745        39.400
  24877386.71744 130731554.52844      2854.83244        37.900    24877384.51441
 101868661.92641      2224.54741        14.300
  23319641.38347 122545546.35347      3205.85547        44.800    23319641.97544
  95490046.08244      2498.06644        37.500
  22395956.64748 117999297.72548      -642.20348        47.200    22395955.90744
  91947441.77044      -500.42244        37.400
 04 09 01 16 54  0.0000000  0  7G 1G30G25G14G23G20G11
  21937138.87748 115588208.67348      1844.51248        47.400    21937139.48245
  90068686.68645      1437.27745        39.900
  23075315.12447 121569358.35347       -83.59047        45.400    23075315.81343
  94489560.71743       -65.13743        35.600
  20449125.02849 107768636.07649       509.59049        49.700    20449124.36147
  83975509.31447       397.07847        43.600
  22003819.35948 115938599.79148     -2063.49648        46.800    22003818.56944
  90341706.04244     -1607.92244        38.800
  24844814.24544 130560386.63454      2850.52344        38.500    24844813.76241
 101735284.68341      2221.19541        23.500
  23283088.02847 122353456.58347      3197.27047        45.100    23283088.48944
  95340365.79444      2491.37544        37.000
  22403486.53348 118038867.81348      -676.66848        47.400    22403485.82644
  91978275.55444      -527.27744        36.800
 04 09 01 16 55  0.0000000  0  9G 1G30G22G 5G25G14G23G20G11
  21916145.77748 115477888.66548      1831.80948        47.400    21916146.11345
  89982723.07345      1427.37945        39.400
  23076486.28447 121575514.30447      -122.92247        45.000    23076487.19544
  94494357.55344       -95.78544        37.600
  23807541.18742 125109465.39952     -3074.19542        32.700    23807536.66541
  97487881.68451     -2395.48041        30.400
  24897918.44042 130839433.87752     -1987.03542        32.300

  20443488.92249 107739018.33349       476.38349        49.700    20443488.18347
  83952430.56347       371.20347        43.600
  22027428.25948 116062664.95948     -2073.24648        46.800    22027427.32245
  90438380.13545     -1615.52045        38.900
  24812277.69545 130389409.01245      2847.25045        39.200    24812276.67141
 101602055.57441      2218.63741        31.100
  23246625.69247 122161845.70547      3188.48447        45.100    23246625.79544
  95191058.65544      2484.53144        36.700
  22411402.45448 118080465.26448      -711.16048        47.300    22411401.76944
  92010689.07844      -554.17644        37.800
 04 09 01 16 56  0.0000000  0  9G 1G30G22G 5G25G14G23G20G11
  21895291.01348 115368295.75648      1818.97748        47.600    21895291.38545
  89897326.04645      1417.38345        39.000
  23078102.46247 121584006.55247      -162.50447        45.500    23078102.95644
  94500974.89644      -126.62944        37.100
  23842704.54142 125294270.27052     -3087.41442        33.900    24920771.99442
 130959536.39242     -2018.98442        32.400
  24920769.13341 102046371.11151     -1573.23841        29.000

  20438225.97249 107711361.57849       443.11749        49.700    20438225.42247
  83930879.85447       345.28147        43.700
  22051142.28748 116187282.75948     -2083.02048        46.600    22051141.43644
  90535484.86544     -1623.13744        37.900
  24779781.84044 130218644.13144      2842.50444        38.700    24779781.25742
 101468992.24042      2214.93842        32.300
  23210261.38347 121970749.87447      3179.08647        45.200    23210261.37844
  95042152.87144      2477.20744        37.200
  22419705.96048 118124100.13348      -745.62548        47.500    22419705.45144
  92044690.21644      -581.00844        37.800
 04 09 01 16 57  0.0000000  0  8G 1G30G 5G25G14G23G20G11
  21874570.01548 115259406.64548      1807.56648        47.600    21874570.46945
  89812477.43445      1408.48845        40.000
  23080159.22047 121594815.22847      -200.83647        45.100    23080159.84644
  94509397.24344      -156.50044        37.100
  24943971.65642 131081443.03642     -2048.18042        32.300    24943971.43441
 102141416.30451     -1595.98841        27.600
  20433331.04349 107685638.77449       411.10249        49.700    20433330.53147
  83910836.12647       320.33647        44.000
  22074956.42148 116312426.91148     -2091.44548        46.400    22074955.70444
  90632999.73744     -1629.69944        38.000
  24747322.25645 130048070.18655      2839.98045        40.400    24747322.30941
 101336077.67441      2212.96941        30.400
  23173993.88347 121780163.12647      3170.60247        44.800    23173993.82444
  94893643.77844      2470.59444        37.000
  22428390.87148 118169740.13648      -778.77748        47.200    22428390.42644
  92080253.82544      -606.84444        37.700
 04 09 01 16 58  0.0000000  0  8G 1G30G22G25G14G23G20G11
  21853985.78148 115151236.77248      1793.36748        47.700    21853986.27145
  89728189.25345      1397.42645        40.000
  23082660.20847 121607958.56247      -242.08247        44.900    23082661.21043
  94519638.78643      -188.63743        36.400
  23913470.53342 125666134.59352     -3115.51642        33.400

  20428806.63449 107661862.73649       376.62949        49.700    20428806.02347
  83892309.34547       293.47347        44.100
  22098872.79348 116438108.47648     -2102.56648        46.500    22098872.17244
  90730933.36144     -1638.36744        37.900
  24714902.58245 129877704.45645      2834.29345        40.900    24714902.75142
 101203325.35542      2208.53542        34.200
  23137829.40547 121590117.21447      3159.37947        44.800    23137829.11643
  94745556.10943      2461.85243        36.400
  22437458.45948 118217389.86848      -814.21548        47.300    22437457.95044
  92117383.43444      -634.45744        38.300
 04 09 01 16 59  0.0000000  0  8G 1G30G22G25G14G23G20G11
  21833539.59449 115043791.43949      1785.02049        47.900    21833539.93645
  89644465.64445      1390.92245        40.400
  23085606.88447 121623444.37347      -277.43847        45.000    23085607.91543
  94531705.63643      -216.18843        36.200
  23949071.51342 125853222.48142     -3124.43842        33.900

  20424652.95349 107640034.67149       347.77349        49.700    20424652.33847
  83875300.46947       270.98847        44.400
  22122891.64348 116564327.81448     -2107.85248        46.600    22122890.86044
  90829286.03044     -1642.48444        37.600
  24682524.40846 129707554.31546      2834.22746        42.400    24682524.07942
 101070741.04252      2208.48842        32.800
  23101771.75147 121400634.54447      3153.23447        44.800    23101771.65844
  94597907.32644      2457.06344        37.700
  22446907.16848 118267043.35948      -843.89548        46.700    22446906.88644
  92156074.40944      -657.58244        38.700
 04 09 01 17 00  0.0000000  0  8G 1G30G22G25G14G23G20G11
  21813227.77349 114937051.69149      1775.66049        47.800    21813228.28045
  89561291.84745      1383.62945        40.100
  23088996.56547 121641255.42947      -313.80147        44.700    23088997.45043
  94545584.37243      -244.52343        35.500
  23984813.88542 126041045.70752     -3134.47342        33.700    23984819.20841
  98213883.92951     -2442.44941        31.900
  20420865.41249 107620131.25649       318.17249        49.700    20420864.82147
  83859791.31247       247.92247        43.900
  22147008.43048 116691062.22748     -2114.11748        46.300    22147007.72245
  90928040.05745     -1647.36745        38.900
  24650183.59046 129537602.57446      2833.32846        43.100    24650183.06743
 100938311.32343      2207.78543        34.600
  23065821.15947 121211712.85447      3146.34847        44.900    23065820.71043
  94450695.67343      2451.69543        36.600
  22456731.61248 118318671.18148      -874.28948        47.200    22456731.18244
  92196303.82744      -681.26644        37.400
 04 09 01 17 01  0.0000000  0  8G 1G30G22G25G14G23G20G11
  21793051.56149 114831025.10649      1762.01249        47.800    21793052.15346
  89478673.75146      1372.99246        41.300
  23092830.18047 121661400.58147      -354.46947        44.900    23092830.52144
  94561281.88444      -276.21144        37.800
  24020697.34043 126229610.62343     -3147.74243        35.400

  20417444.70449 107602156.16749       284.44949        49.600    20417444.17947
  83845784.75147       221.64547        44.200
  22171223.93848 116818315.22148     -2124.19148        46.300    22171222.99344
  91027198.17344     -1655.21944        38.600
  24617881.95346 129367857.52246      2828.52046        42.600    24617881.09242
 100806042.68852      2204.03942        32.600
  23029981.97447 121023376.72447      3134.85547        45.400    23029981.48044
  94303940.30044      2442.74244        37.000
  22466931.09548 118372268.70948      -908.62548        47.400    22466930.44143
  92238068.06843      -708.03143        36.400
 04 09 01 17 02  0.0000000  0  8G 1G30G22G25G14G23G20G11
  21773013.93148 114725727.41148      1751.24248        47.600    21773014.59445
  89396623.62445      1364.60245        40.100
  23097110.86747 121683896.42147      -392.13347        45.000    23097111.59743
  94578811.09143      -305.56343        36.100
  24056721.56943 126418919.62843     -3158.90643        36.300    24056718.39841
  98508261.74151     -2461.48841        26.500
  20414392.98149 107586119.83649       253.49649        49.700    20414392.77347
  83833288.91247       197.52747        44.000
  22195540.32048 116946098.10348     -2131.94548        46.600    22195539.27444
  91126769.18544     -1661.25844        37.600
  24585623.16046 129198337.31446      2825.89846        42.800    24585622.17143
 100673949.25543      2202.00043        36.000
  22994260.57347 120835658.91447      3125.76247        45.200    22994259.90843
  94157666.71043      2435.65643        36.600
  22477505.96048 118427839.51648      -940.34448        47.300    22477505.28644
  92281369.90844      -732.67644        37.100
 04 09 01 17 03  0.0000000  0  8G 1G30G22G25G14G23G20G11
  21753112.04048 114621143.03048      1740.19948        47.500    21753112.71145
  89315129.32845      1355.99645        40.000
  23101836.03047 121708728.48947      -430.24247        45.400    23101837.03944
  94598160.73844      -335.25844        37.300
  24092883.20744 126608947.46244     -3169.76644        37.400

  20411706.58849 107572002.19749       222.40649        49.800    20411706.35947
  83822288.15947       173.30147        43.900
  22219953.63048 117074391.41648     -2139.44548        46.200    22219952.89044
  91226737.93644     -1667.10244        38.800
  24553404.02946 129029028.14146      2823.00046        41.900    24553403.78843
 100542020.25643      2199.74243        36.200
  22958656.97147 120648560.85447      3116.04347        44.800    22958656.64843
  94011876.09243      2428.08243        36.000
  22488451.02648 118485356.60448      -971.77748        47.200    22488450.37744
  92326188.35144      -757.23044        36.700
 04 09 01 17 04  0.0000000  0  8G 1G30G22G25G14G23G20G11
  21733345.12949 114517266.74549      1725.77749        47.800    21733345.67045
  89234186.77945      1344.75845        40.200
  23107005.33348 121735891.10048      -471.77048        45.600    23107005.68243
  94619326.39043      -367.61743        35.300
  24129178.12143 126799679.50043     -3184.48043        36.600

  20409383.37749 107559792.20349       187.96949        49.900    20409382.83647
  83812773.88647       146.46547        44.000
  22244462.49348 117203186.21948     -2150.33648        46.300    22244462.02244
  91327097.45844     -1675.59044        38.400
  24521224.90546 128859926.15846      2817.14846        41.800    24521224.37143
 100410252.65953      2195.17643        34.600
  22923173.39047 120462094.40847      3102.81647        44.000    22923173.04543
  93866577.63543      2417.78143        36.300
  22499763.14148 118544801.33448     -1006.45748        47.300    22499762.55544
  92372508.85844      -784.25444        37.900
 04 09 01 17 05  0.0000000  0  8G 1G30G22G25G14G23G20G11
  21713716.45149 114414116.74049      1712.16049        47.800    21713716.71245
  89153810.17045      1334.14845        40.700
  23112621.09947 121765402.66247      -512.48047        45.200    23112621.67944
  94642322.40244      -399.34044        38.400
  24165608.28043 126991124.27743     -3197.34843        35.500

  20407425.45649 107549503.19749       154.55949        49.800    20407424.89947
  83804756.49447       120.43447        44.100
  22269069.75548 117332496.93848     -2160.46948        46.600    22269069.10744
  91427858.98244     -1683.48444        37.800
  24489089.24746 128691051.71046      2811.64846        41.700    24489088.85642
 100278662.39642      2190.89542        33.700
  22887816.92347 120276295.44947      3089.97747        44.700    22887816.91943
  93721799.26643      2407.77043        36.600
  22511443.33948 118606179.86148     -1039.95348        47.300    22511442.63344
  92420336.22044      -810.35544        38.100
 04 09 01 17 06  0.0000000  0  8G 1G30G22G25G14G23G20G11
  21694223.43649 114311680.28149      1701.40649        48.300    21694223.70345
  89073989.57645      1325.77045        40.800
  23118681.22047 121797249.51147      -550.20347        45.400    23118682.26443
  94667138.10843      -428.73443        36.300
  24202169.92243 127183262.90453     -3207.67243        35.300    24202164.27141
  99103832.52551     -2499.49241        26.600
  20405829.27449 107541115.42749       124.05549        49.800    20405828.69747
  83798220.56547        96.66447        44.000
  22293771.84048 117462306.88848     -2167.47748        46.100    22293771.04644
  91529009.52644     -1688.94544        38.800
  24456994.68246 128522393.08946      2809.62946        41.200    24456993.55142
 100147240.25442      2189.31642        34.200
  22852588.43647 120091168.55747      3080.10547        45.400    22852588.34043
  93577544.60243      2400.07843        35.500
  22523486.29948 118669466.37048     -1070.52348        47.100    22523485.72344
  92469650.30944      -834.17644        37.400
 04 09 01 17 07  0.0000000  0  8G 1G30G22G25G14G23G20G11
  21674865.72349 114209953.99949      1689.18849        48.200    21674865.83745
  88994722.35245      1316.24645        40.800
  23125185.11547 121831426.81447      -589.39547        44.800    23125185.75244
  94693769.73044      -459.27344        37.300
  24238862.33443 127376076.05343     -3219.68843        34.700    24238856.82641
  99254098.24551     -2508.85941        17.500
  20404593.22149 107534620.16949        92.19949        49.800    20404592.67547
  83793159.32647        71.84047        43.800
  22318567.47148 117592609.20548     -2176.23448        46.000    22318566.77144
  91630543.73544     -1695.77044        38.600
  24424940.70946 128353948.82446      2805.28946        42.100    24424939.73642
 100015985.17542      2185.93842        32.300
  22817490.71848 119906727.79248      3067.78548        46.100    22817490.56844
  93433824.57444      2390.48044        38.000
  22535889.01148 118734644.09848     -1102.32848        47.200    22535888.52944
  92520438.08544      -858.96144        38.100
 04 09 01 17 08  0.0000000  0  8G 1G30G22G25G14G23G20G11
  21655646.71049 114108957.76349      1677.59449        48.300    21655646.96145
  88916024.00645      1307.21145        40.200
  23132135.85047 121867953.09247      -627.96947        44.900    23132136.85644
  94722231.74044      -489.32844        37.400
  24275683.68242 127569576.61642     -3229.60542        32.600    24275689.46741
  99404855.71951     -2516.57041        20.200
  20403719.97449 107530030.96049        60.97749        49.900    20403719.42947
  83789583.33347        47.51247        44.000
  22343460.01848 117723420.18948     -2184.03948        45.800    22343459.50544
  91732474.30844     -1701.85244        37.200
  24392930.90546 128185741.04346      2802.08646        41.700    24392930.52342
  99884914.35542      2183.44542        33.200
  22782530.54248 119723011.34448      3056.05948        46.800    22782530.22244
  93290668.93344      2381.34044        36.900
  22548653.08148 118801719.17148     -1133.32448        47.300    22548652.51744
  92572704.30244      -883.11344        37.000
 04 09 01 17 09  0.0000000  0  7G 1G30G25G14G23G20G11
  21636563.82549 114008676.68249      1665.41049        48.300    21636563.98845
  88837882.92945      1297.71945        41.100
  23139530.10947 121906811.29947      -666.93847        44.600    23139530.86944
  94752510.82444      -519.69544        36.700
  20403205.16249 107527326.57349        29.42249        49.900    20403204.68047
  83787476.02047        22.92247        44.200
  22368445.64747 117854721.07647     -2192.52347        45.500    22368445.48545
  91834786.60345     -1708.46545        39.300
  24360964.64546 128017755.85656      2798.00446        42.300    24360963.85443
  99754016.94643      2180.26243        35.800
  22747708.84948 119540022.04948      3043.64848        47.300    22747708.72744
  93148079.91744      2371.67244        36.900
  22561772.74448 118870661.96348     -1164.45748        47.500    22561772.10044
  92626425.88544      -907.37144        37.200
 04 09 01 17 10  0.0000000  0  7G 1G30G25G14G23G20G11
  21617616.29249 113909106.57949      1654.41449        48.600    21617616.58345
  88760295.86045      1289.15245        40.900
  23147367.09147 121947994.64847      -705.13747        45.400    23147367.96743
  94784601.71643      -549.46143        36.600
  20403047.04349 107526495.29849        -0.94949        49.800    20403046.58947
  83786828.26547        -0.74247        44.400
  22393523.20348 117986503.71548     -2199.47348        46.000    22393522.85644
  91937474.31144     -1713.87944        38.100
  24329039.76646 127849990.36056      2794.82846        42.600    24329039.20443
  99623290.76643      2177.78543        35.600
  22713028.02348 119357772.69548      3031.93448        47.400    22713027.38244
  93006067.44844      2362.54344        37.400
  22575244.01648 118941454.02248     -1194.45748        47.100    22575243.41344
  92681588.45044      -930.75044        37.000
 04 09 01 17 11  0.0000000  0  7G 1G30G25G14G23G20G11
  21598806.72349 113810261.23349      1641.42249        48.800    21598807.05345
  88683273.52845      1279.02745        40.800
  23155648.58147 121991513.81947      -744.82847        45.300    23155649.29743
  94818512.74643      -580.39143        34.800
  20403246.62849 107527544.09949       -33.07849        49.800    20403246.24047
  83787645.50847       -25.77747        44.100
  22418694.40848 118118778.57248     -2208.68448        45.900    22418693.88844
  92040545.56844     -1721.05544        37.800
  24297159.96746 127682460.20246      2790.15246        42.100    24297159.04643
  99492747.95043      2174.14143        35.000
  22678494.01148 119176295.17048      3017.92648        47.000    22678493.46343
  92864656.43343      2351.62943        35.400
  22589066.87848 119014094.04848     -1225.97348        47.400    22589066.47944
  92738190.98544      -955.30544        37.100
 04 09 01 17 12  0.0000000  0  8G 1G30G25G14G23G20G16G11
  21580132.59149 113712128.76549      1629.59049        48.800    21580133.13446
  88606806.70146      1269.80946        41.200
  23164371.91547 122037353.72047      -783.25847        44.900    23164372.52344
  94854232.08944      -610.33244        37.800
  20403800.33349 107530453.20249       -63.93049        49.900    20403799.75147
  83789912.33847       -49.82047        44.200
  22443956.22848 118251530.32348     -2216.53148        45.800    22443955.98144
  92143988.40444     -1727.17244        38.600
  24265322.88146 127515155.04746      2786.62546        42.600    24265321.96243
  99362380.46843      2171.39543        34.800
  22644107.86448 118995595.42748      3005.10248        46.400    22644107.66244
  92723851.46444      2341.63344        37.300
  24670083.82343 129642176.77853      3419.25443        35.500

  22603236.78448 119088555.78848     -1256.08648        47.000    22603236.14744
  92796213.04544      -978.77044        37.600
 04 09 01 17 13  0.0000000  0  8G 1G30G25G14G23G20G16G11
  21561593.33249 113614704.75849      1617.34049        48.600    21561593.60446
  88530891.89746      1260.26246        41.500
  23173534.76548 122085506.02248      -822.39148        45.900    23173535.76243
  94891753.34143      -640.82843        36.600
  20404705.74149 107535211.10349       -94.96549        49.900    20404705.07347
  83793619.78747       -74.00047        43.900
  22469307.42748 118384750.88048     -2224.70748        46.000    22469307.07044
  92247796.55244     -1733.54344        37.700
  24233527.39546 127348072.07746      2782.45746        42.700    24233526.89042
  99232186.08842      2168.14542        33.700
  22609872.14348 118815687.27548      2991.28948        46.400    22609871.90444
  92583663.31444      2330.87144        36.900
  24631022.57043 129436908.85243      3422.26643        36.300    24631024.86641
 100859922.65151      2666.71541        28.500
  22617749.08648 119164818.99248     -1286.57048        46.800    22617748.74044
  92855638.83944     -1002.52744        38.100
 04 09 01 17 14  0.0000000  0  8G 1G30G25G14G23G20G16G11
  21543193.15349 113518011.50649      1605.64849        48.600    21543193.63845
  88455546.52445      1251.15245        40.600
  23183141.60547 122135989.07947      -860.61347        45.300    23183142.25344
  94931090.75044      -670.60944        37.600
  20405965.80149 107541832.52249      -125.77049        50.000    20405965.09847
  83798779.32647       -98.00447        44.200
  22494751.33148 118518459.41648     -2232.41848        45.600    22494750.57144
  92351984.95444     -1739.55144        37.600
  24201779.52146 127181235.30946      2778.87946        42.800    24201778.41743
  99102183.53943      2165.35543        34.800
  22575795.09048 118636611.03548      2977.59048        46.200    22575794.50443
  92444123.41943      2320.19543        36.300
  24591925.93844 129231457.98544      3425.87944        37.200    24591928.55641
 100699831.23341      2669.52041        15.000
  22632605.53948 119242890.72148     -1315.97348        47.000    22632605.58344
  92916473.88844     -1025.43844        37.600
 04 09 01 17 15  0.0000000  0  8G 1G30G25G14G23G20G16G11
  21524929.79149 113422037.30549      1593.86749        48.600    21524930.36745
  88380761.45045      1241.97345        41.000
  23193188.81748 122188786.17048      -898.93848        45.800    23193189.52542
  94972231.34642      -700.47342        34.300
  20407576.71349 107550297.77749      -156.13749        50.000    20407575.88147
  83805375.62947      -121.66847        44.200
  22520285.20548 118652641.10548     -2239.99248        45.600    22520284.86044
  92456542.04144     -1745.45344        38.000
  24170076.18046 127014634.48146      2774.92646        43.100    24170075.05743
  98972364.85743      2162.27743        35.100
  22541877.72048 118458373.03748      2963.83248        46.500    22541877.07543
  92305236.72243      2309.47743        36.600
  24552796.57945 129025833.84845      3428.58645        39.000    24552799.56141
 100539604.74841      2671.62141        27.200
  22647801.19848 119322743.55148     -1345.38748        47.100    22647801.15444
  92978696.79244     -1048.35544        37.200
 04 09 01 17 16  0.0000000  0  8G 1G30G25G14G23G20G16G11
  21506803.51449 113326782.11749      1581.60249        48.600    21506803.87346
  88306536.62146      1232.41446        41.600
  23203674.43347 122243891.78447      -937.66847        45.000    23203675.22844
  95015170.75844      -730.65244        37.600
  20409536.53349 107560596.96949      -187.06349        49.900    20409535.72047
  83813400.97747      -145.76647        43.900
  22545908.65348 118787292.23548     -2248.23848        45.800    22545908.39044
  92561464.91944     -1751.87944        38.300
  24138418.21646 126848270.98946      2770.53146        43.100    24138417.09643
  98842731.13643      2158.85243        34.800
  22508122.98048 118280991.08848      2949.01648        46.700    22508122.59744
  92167017.05844      2297.93044        37.800
  24513638.83845 128820057.74045      3430.55545        40.500    24513641.65841
 100379259.89041      2673.15641        31.600
  22663332.86148 119404361.54048     -1375.12948        47.200    22663332.53343
  93042295.15243     -1071.53143        36.500
 04 09 01 17 17  0.0000000  0  8G 1G30G25G14G23G20G16G11
  21488813.65949 113232245.05449      1569.61749        48.700    21488814.06746
  88232871.38046      1223.07446        41.600
  23214599.31547 122301299.83747      -975.79347        45.100    23214600.63444
  95059904.26644      -760.36344        37.200
  20411843.60249 107572721.01249      -217.28949        49.800    20411842.99247
  83822848.28747      -169.32047        44.100
  22571620.24347 118922408.20147     -2255.92647        45.500    22571619.94844
  92666750.01944     -1757.86744        37.600
  24106805.81546 126682145.54446      2766.73446        43.300    24106804.05743
  98713282.86843      2155.89543        36.000
  22474534.68148 118104482.74348      2934.38348        47.000    22474534.07344
  92029478.12044      2286.52744        37.000
  24474456.05645 128614150.88845      3432.83645        40.900    24474458.81641
 100218813.13541      2674.93441        30.500
  22679196.35148 119487725.83948     -1403.80948        46.800    22679196.21444
  93107254.26244     -1093.87944        37.000
 04 09 01 17 18  0.0000000  0  8G 1G30G25G14G23G20G16G11
  21470961.87949 113138432.71949      1557.78949        49.000    21470962.37446
  88159770.86746      1213.85946        41.500
  23225961.59847 122361010.65347     -1014.30547        45.300    23225962.51443
  95106432.15143      -790.37143        35.600
  20414497.42549 107586667.46949      -247.33649        49.800    20414496.86747
  83833715.65747      -192.73447        44.300
  22597421.22447 119057992.44847     -2263.44547        45.400    22597421.12944
  92772399.99944     -1763.72744        37.700
  24075239.51447 126516266.23257      2763.02047        43.500    24075239.16343
  98584026.42743      2153.00043        35.500
  22441117.00748 117928872.88248      2919.52748        46.600    22441116.47944
  91892639.30244      2274.95344        38.600
  24435253.61145 128408141.59345      3434.39145        41.100    24435256.21641
 100058286.52641      2676.14541        29.500
  22695390.49548 119572827.05848     -1432.64848        46.900    22695390.46744
  93173566.81944     -1116.35244        37.400
 04 09 01 17 19  0.0000000  0  8G 1G30G25G14G23G20G16G11
  21453246.72049 113045339.26749      1545.42649        48.800    21453247.07346
  88087230.52346      1204.22746        41.600
  23237760.37547 122423011.92647     -1052.66847        44.900    23237761.36244
  95154744.80444      -820.26644        37.800
  20417495.26949 107602421.23149      -277.70349        49.900    20417494.75347
  83845991.31747      -216.39547        44.100
  22623309.58847 119194036.18847     -2271.18447        45.100    22623309.65144
  92878408.02844     -1769.75844        38.100
  24043719.50546 126350628.58246      2758.43046        42.900    24043718.79744
  98454958.24344      2149.42244        37.800
  22407872.65148 117754173.57848      2903.74648        46.800    22407872.19644
  91756510.02244      2262.65644        38.200
  24396034.82345 128202045.83845      3435.37545        41.100    24396037.69142
  99897692.60642      2676.91442        33.100
  22711911.23848 119659643.01448     -1461.37548        46.600    22711911.14343
  93241215.54443     -1138.73843        35.900
 04 09 01 17 20  0.0000000  0  8G 1G30G25G14G23G20G16G11
  21435669.13649 112952969.06849      1533.46949        48.800    21435669.49846
  88015253.74846      1194.90646        41.900
  23249994.02447 122487301.01047     -1090.48447        45.300    23249994.85743
  95204840.17943      -849.73043        36.000
  20420836.17649 107619977.50449      -307.47749        50.000    20420835.65947
  83859671.52447      -239.59447        44.600
  22649285.27647 119330539.97447     -2278.93447        45.100    22649285.28644
  92984774.52744     -1775.79744        38.000
  24012246.70046 126185238.13146      2754.41446        43.300    24012245.80844
  98326082.69944      2146.29344        36.900
  22374806.14948 117580407.47448      2888.25048        47.400    22374805.84144
  91621107.90944      2250.58244        38.400
  24356804.42145 127995889.65145      3436.50045        40.400    24356807.27941
  99737051.65441      2677.79341        29.600
  22728755.26348 119748159.12248     -1489.33648        46.500    22728755.22544
  93310189.05444     -1160.52344        37.300
 04 09 01 17 21  0.0000000  0  8G 1G30G25G14G23G20G16G11
  21418229.14649 112861321.18949      1521.34449        48.700    21418229.43846
  87943839.82646      1185.46146        41.700
  23262661.82847 122553869.76347     -1128.44547        44.200    23262662.47444
  95256711.92344      -879.31344        37.500
  20424518.06049 107639325.68449      -337.30549        50.000    20424517.56247
  83874748.01347      -262.84047        44.900
  22675347.87047 119467499.35747     -2286.42647        45.100    22675347.83744
  93091496.05144     -1781.63344        38.600
  23980821.20547 126020095.59147      2750.54347        43.800    23980820.22844
  98197400.36244      2143.28144        36.700
  22341920.51548 117407591.95748      2872.22748        47.500    22341920.07745
  91486446.50045      2238.09445        38.900
  24317566.52345 127789694.43245      3436.66045        40.000    24317569.72542
  99576380.35142      2677.91842        33.400
  22745919.33048 119838357.60048     -1517.23848        46.300    22745919.50444
  93380473.49144     -1182.26644        37.200
 04 09 01 17 22  0.0000000  0  8G 1G30G25G14G23G20G16G11
  21400926.59649 112770396.33149      1509.42649        48.900    21400927.06246
  87872989.30246      1176.17246        41.500
  23275762.13547 122622711.05147     -1166.14547        44.900    23275762.94444
  95310354.43544      -908.68844        37.200
  20428539.19649 107660456.69549      -366.92249        50.000    20428538.65647
  83891213.72047      -285.91847        44.700
  22701496.70147 119604912.45147     -2293.95747        45.100    22701496.86344
  93198571.11744     -1787.50444        37.600
  23949443.18547 125855203.34147      2746.09847        43.400    23949441.96744
  98068913.04244      2139.81644        37.000
  22309219.39648 117235746.26048      2855.92648        47.600    22309218.80944
  91352540.79144      2225.39544        38.800
  24278325.58445 127583482.81545      3437.05945        40.200    24278328.57043
  99415696.33643      2678.22743        34.500
  22763400.80348 119930221.67048     -1544.91048        46.800    22763400.86644
  93452055.80544     -1203.82844        37.000
 04 09 01 17 23  0.0000000  0  8G 1G30G25G14G23G20G16G11
  21383762.41749 112680197.38249      1497.30549        48.900    21383762.90346
  87802704.42446      1166.72746        41.400
  23289293.01947 122693819.65647     -1203.92247        44.000    23289294.24944
  95365763.69744      -938.12544        37.800
  20432898.05449 107683362.78249      -396.37149        50.000    20432897.63147
  83909062.60247      -308.86347        44.800
  22727732.01947 119742779.00747     -2301.41447        45.300    22727731.85444
  93305999.51944     -1793.31344        37.400
  23918113.85647 125690565.84547      2741.94147        43.500    23918112.42344
  97940624.20344      2136.57444        37.000
  22276706.75948 117064892.00448      2839.39148        47.300    22276706.49145
  91219407.63145      2212.50845        39.300
  24239086.43445 127377279.67945      3436.55945        41.000    24239088.78541
  99255018.91541      2677.84441        31.100
  22781196.23348 120023735.72748     -1572.07448        47.000    22781196.01044
  93524923.82244     -1224.98044        37.400
 04 09 01 17 24  0.0000000  0  8G 1G30G25G14G23G20G16G11
  21366735.73249 112590721.56149      1485.17649        48.800    21366735.94546
  87732983.02146      1157.27746        41.400
  23303254.57747 122767184.34947     -1241.52347        44.800    23303255.61743
  95422930.93943      -967.42643        36.500
  20437592.19449 107708030.59249      -425.90649        49.900    20437591.69247
  83928284.25547      -331.87947        44.600
  22754052.54547 119881092.96947     -2309.02347        45.300    22754052.19344
  93413776.55344     -1799.24244        38.400
  23886831.94047 125526181.02447      2737.55947        43.500    23886830.77244
  97812532.25144      2133.16044        37.200
  22244385.74048 116895044.46148      2822.33648        47.300    22244385.18544
  91087058.93144      2199.21944        38.600
  24199852.15346 127171104.42946      3435.95346        42.300    24199854.93641
  99094363.23241      2677.36741        32.100
  22799301.18548 120118878.46148     -1599.25048        46.600    22799301.09744
  93599060.91544     -1246.17244        37.000
 04 09 01 17 25  0.0000000  0  8G 1G30G25G14G23G20G16G11
  21349847.75049 112501974.72449      1473.25049        48.900    21349847.97946
  87663829.66346      1147.98446        41.600
  23317643.51047 122842801.43847     -1278.86747        45.200    23317644.18343
  95481853.29643      -996.52343        35.900
  20442620.76149 107734455.32749      -454.83649        49.900    20442620.09747
  83948874.94847      -354.42247        44.500
  22780458.55347 120019857.07047     -2316.52347        45.100    22780458.39544
  93521904.33244     -1805.08644        38.300
  23855600.03247 125362056.63757      2733.52347        44.000    23855598.60443
  97684643.23643      2130.01643        35.500
  22212260.95748 116726227.86948      2805.10948        47.400    22212260.47945
  90955513.56145      2185.79745        39.200
  24160628.54046 126964984.82446      3435.03546        42.700    24160631.39743
  98933750.89243      2676.65643        34.500
  22817713.69448 120215637.32448     -1625.86748        46.300    22817713.77844
  93674457.34444     -1266.91444        36.700
 04 09 01 17 26  0.0000000  0  8G 1G30G25G14G23G20G16G11
  21333097.27549 112413950.26849      1461.01249        48.800    21333097.46746
  87595239.18446      1138.44946        41.600
  23332459.23747 122920655.17747     -1316.10947        44.800    23332460.08944
  95542518.50644     -1025.54344        37.400
  20447980.23349 107762619.73849      -483.82049        50.000    20447979.59847
  83970821.22547      -377.00847        44.300
  22806948.20947 120159061.05647     -2323.66047        45.000    22806948.01244
  93630374.87144     -1810.64844        37.400
  23824417.04147 125198187.68047      2728.88747        43.600    23824415.44743
  97556953.26043      2126.40243        36.600
  22180334.73748 116558454.02648      2787.37148        47.500    22180334.28844
  90824780.70744      2171.97344        38.600
  24121418.54546 126758936.53446      3433.20346        41.800    24121421.56042
  98773194.12142      2675.21942        34.400
  22836428.90048 120313986.60948     -1652.22348        46.400    22836429.32943
  93751093.04943     -1287.44943        36.600
 04 09 01 17 27  0.0000000  0  8G 1G30G25G14G23G20G16G11
  21316486.02449 112326657.59349      1448.85949        49.000    21316486.01946
  87527218.92946      1128.97746        41.500
  23347699.30647 123000745.00047     -1353.28547        45.300    23347700.18343
  95604926.13043     -1054.51243        35.800
  20453670.41249 107792522.22749      -512.65649        49.900    20453669.81647
  83994121.86247      -399.47747        44.300
  22833522.54147 120298711.08547     -2330.94947        44.900    22833522.70843
  93739192.98343     -1816.32843        36.500
  23793284.01747 125034584.29557      2724.58647        44.900    23793282.64144
  97429470.22844      2123.05144        37.000
  22148612.06648 116391750.35748      2769.46148        47.500    22148611.59145
  90694881.76545      2158.02045        39.500
  24082227.98845 126552991.30545      3431.46145        40.300    24082231.07543
  98612717.70043      2673.86743        35.000
  22855445.02448 120413915.53948     -1678.50448        46.100    22855445.32144
  93828959.65944     -1307.93044        36.800
 04 09 01 17 28  0.0000000  0  8G 1G30G25G14G23G20G16G11
  21300012.88849 112240091.24049      1436.51649        49.000    21300013.12546
  87459764.64746      1119.35946        41.700
  23363362.79747 123083054.83647     -1390.42247        44.200    23363363.80644
  95669063.61744     -1083.44944        36.800
  20459688.07749 107824145.43749      -541.52049        50.000    20459687.61747
  84018763.31947      -421.96547        44.600
  22860180.49747 120438798.65547     -2338.61347        45.300    22860180.48244
  93848352.03644     -1822.30144        36.800
  23762201.46247 124871242.37147      2719.82047        44.400    23762199.82543
  97302190.90543      2119.33643        36.600
  22117095.35448 116226129.72848      2751.07448        47.400    22117095.31745
  90565826.73745      2143.69145        39.200
  24043060.19845 126347165.34145      3429.46945        40.000    24043063.31744
  98452334.19244      2672.31344        36.900
  22874756.72348 120515399.64348     -1704.43848        46.000    22874756.96244
  93908038.07944     -1328.13744        37.300
 04 09 01 17 29  0.0000000  0  8G 1G30G25G14G23G20G16G11
  21283679.17749 112154256.83149      1424.46549        49.100    21283679.42246
  87392880.70346      1109.96946        41.700
  23379447.18747 123167579.86447     -1427.02047        45.000    23379448.11444
  95734927.21344     -1111.96544        36.900
  20466032.19549 107857484.05549      -569.77349        50.000    20466031.81147
  84044741.45847      -443.98447        44.600
  22886922.25347 120579326.26147     -2345.68847        44.900    22886921.88244
  93957853.99144     -1827.81344        37.400
  23731169.24447 124708169.18047      2715.75447        44.400    23731167.89144
  97175121.01144      2116.16844        37.000
  22085789.64648 116061616.51048      2732.78148        47.600    22085789.27945
  90437634.64245      2129.43845        39.200
  24003920.39546 126141487.05246      3426.50046        41.600    24003923.71443
  98292065.71843      2670.00043        35.100
  22894361.79748 120618425.18148     -1729.66848        45.800    22894362.00943
  93988317.63443     -1347.79743        36.500
 04 09 01 17 30  0.0000000  0  8G 1G30G25G14G23G20G16G11
  21267484.50649 112069152.89249      1412.19549        49.300    21267484.75346
  87326565.95046      1100.41046        42.200
  23395950.87647 123254307.51847     -1463.93047        43.800    23395951.83544
  95802507.14244     -1140.72744        36.900
  20472700.15749 107892524.32649      -598.41449        50.000    20472699.73047
  84072045.55547      -466.30147        44.300
  22913746.59847 120720288.75547     -2353.14147        45.100    22913746.18444
  94067694.79344     -1833.62144        37.300
  23700188.66747 124545364.87247      2710.96947        44.700    23700187.28944
  97048260.60144      2112.44144        37.000
  22054697.67248 115898227.60548      2713.55548        47.200    22054697.44445
  90310318.63045      2114.45345        40.200
  23964813.10946 125935977.17146      3423.71946        41.600    23964816.25843
  98131928.40443      2667.83243        35.300
  22914256.23548 120722970.16948     -1755.10248        46.500    22914256.70044
  94069781.15844     -1367.61344        37.300
 04 09 01 17 31  0.0000000  0  8G 1G30G25G14G23G20G16G11
  21251429.17449 111984781.38449      1400.14149        49.300    21251429.41746
  87260821.92646      1091.01646        41.900
  23412872.21447 123343227.91747     -1500.12547        44.800    23412873.11243
  95871795.72843     -1168.93443        35.500
  20479689.96949 107929255.82049      -626.21549        50.100    20479689.54147
  84100667.48647      -487.96147        44.400
  22940653.34747 120861685.08247     -2360.18447        44.700    22940653.32944
  94177873.64044     -1839.10544        37.200
  23669259.47247 124382832.27947      2706.74247        44.200    23669258.05344
  96921611.91744      2109.14844        37.400
  22023823.50648 115735983.14048      2694.47348        47.000    22023823.35045
  90183894.40845      2099.58645        39.000
  23925742.11146 125730659.79946      3420.27746        41.900    23925745.04643
  97971941.12543      2665.15243        34.900
  22934436.58448 120829016.33848     -1779.88748        46.300    22934436.83243
  94152414.43443     -1386.93043        36.200
 04 09 01 17 32  0.0000000  0  8G 1G30G25G14G23G20G16G11
  21235513.28149 111901143.45049      1387.73449        49.300    21235513.70046
  87195649.52646      1081.34846        42.400
  23430207.76347 123434330.22447     -1536.43847        43.700    23430209.12243
  95942784.46543     -1197.22743        34.900
  20486999.61149 107967668.44649      -654.19149        50.000    20486999.21647
  84130599.38947      -509.76247        44.600
  22967642.43547 121003513.84047     -2367.23847        44.900    22967642.70444
  94288389.45944     -1844.60544        37.000
  23638382.87047 124220573.84247      2701.83647        44.500    23638381.25244
  96795176.86544      2105.32444        38.100
  21993170.76248 115574902.97448      2674.77348        46.800    21993170.72645
  90058377.43845      2084.23445        39.700
  23886712.92747 125525558.03147      3416.35947        43.500    23886715.51743
  97812121.83543      2662.09843        35.200
  22954898.68048 120936545.35748     -1804.31348        46.200    22954898.77243
  94236203.17643     -1405.96143        36.000
 04 09 01 17 33  0.0000000  0  8G 1G30G25G14G23G20G16G11
  21219737.21749 111818239.36449      1375.49249        49.600    21219737.51346
  87131048.94146      1071.80946        42.000
  23447957.39347 123527602.48047     -1572.66847        43.600    23447958.60543
  96015464.09743     -1225.45743        35.500
  20494626.69849 108007748.93549      -681.89149        50.100    20494626.21347
  84161830.92147      -531.34847        44.600
  22994713.37547 121145770.91047     -2374.55547        44.800    22994713.29143
  94399239.02643     -1850.30543        35.500
  23607558.11447 124058591.12347      2697.18047        44.100    23607556.78344
  96668956.65644      2101.69544        38.200
  21962743.22748 115415004.90548      2654.99248        46.900    21962743.33145
  89933781.57945      2068.82045        39.900
  23847728.75747 125320694.59547      3412.44547        43.900    23847730.95243
  97652488.24643      2659.04743        34.900
  22975638.75048 121045535.31248     -1828.65248        45.900    22975638.78544
  94321130.30244     -1424.92644        36.900
 04 09 01 17 34  0.0000000  0  8G 1G30G25G14G23G20G16G11
  21204101.63949 111736073.25449      1363.25449        49.800    21204101.73146
  87067023.40046      1062.27346        42.300
  23466117.37147 123623036.10647     -1608.47747        43.700    23466118.27343
  96089827.91843     -1253.36343        35.000
  20502569.83149 108049489.98249      -709.47749        50.000    20502569.32547
  84194356.40947      -552.84447        44.400
  23021865.78147 121288458.08647     -2381.55547        44.500    23021865.98243
  94510423.73843     -1855.76243        35.500
  23576787.55147 123896889.65847      2692.53947        44.700    23576785.72244
  96542955.60844      2098.07844        37.900
  21932545.26048 115256312.19648      2634.65648        47.500    21932544.99145
  89810124.94445      2052.97745        40.700
  23808795.24846 125116096.67146      3407.71946        42.800    23808796.78743
  97493061.52943      2655.36743        34.700
  22996653.90848 121155970.71248     -1852.43048        45.700    22996654.27943
  94407183.76043     -1443.45343        36.200
 04 09 01 17 35  0.0000000  0  8G 1G30G25G14G23G20G16G11
  21188606.24849 111654644.51549      1350.96949        49.700    21188606.48746
  87003572.44146      1052.69946        42.500
  23484686.99547 123720617.39347     -1643.70347        44.600    23484688.05843
  96165865.23243     -1280.81343        35.800
  20510826.17149 108092877.04749      -736.81649        50.100    20510825.67747
  84228164.49247      -574.14547        44.500
  23049099.26647 121431571.74747     -2388.73847        44.600    23049099.55144
  94621940.76844     -1861.35944        36.800
  23546070.32347 123735470.21647      2688.10547        44.400    23546068.86445
  96417174.32545      2094.62545        39.400
  21902579.78348 115098842.52548      2614.30948        47.600    21902579.55345
  89687421.33045      2037.12145        41.000
  23769915.16346 124911785.60846      3402.79346        42.700    23769917.58442
  97333858.36642      2651.52342        33.700
  23017939.88948 121267829.41248     -1876.12948        45.700    23017940.64444
  94494346.27444     -1461.92244        37.300
 04 09 01 17 36  0.0000000  0  8G 1G30G25G14G23G20G16G11
  21173251.23949 111573954.22749      1338.70749        49.600    21173251.61846
  86940696.89746      1043.14546        42.700
  23503662.22947 123820333.95547     -1679.59447        44.200    23503663.61043
  96243566.40743     -1308.77743        36.000
  20519393.40149 108137898.18249      -763.85549        50.100    20519392.82747
  84263245.88647      -595.21547        44.300
  23076413.92347 121575108.88147     -2395.80147        44.900    23076414.03344
  94733787.78544     -1866.85944        36.900
  23515407.42547 123574334.97347      2683.12547        45.000    23515405.68844
  96291614.49544      2090.74244        38.000
  21872850.53449 114942614.58149      2593.28949        47.900    21872850.41745
  89565685.29245      2020.74245        40.400
  23731094.97546 124707784.50546      3397.41446        43.200    23731096.68542
  97174896.71342      2647.33242        33.400
  23039493.00148 121381090.46848     -1899.15248        46.200    23039493.34244
  94582601.53644     -1479.86344        37.400
 04 09 01 17 37  0.0000000  0  8G 1G30G25G14G23G20G16G11
  21158037.53849 111494005.01649      1326.10549        49.500    21158037.70546
  86878398.81046      1033.32446        42.800
  23523042.07147 123922174.13747     -1715.22747        43.800    23523043.26844
  96322922.30844     -1336.54344        36.700
  20528269.64549 108184543.06549      -791.09849        50.100    20528269.07247
  84299592.53847      -616.44147        44.400
  23103808.53547 121719068.93047     -2403.09047        44.700    23103808.78644
  94845964.34044     -1872.53944        37.000
  23484799.31647 123413487.68347      2678.14547        44.600    23484797.50345
  96166279.03045      2086.86345        40.400
  21843361.68049 114787648.76349      2571.94949        48.200    21843361.34945
  89444932.73245      2004.11345        41.100
  23692338.14846 124504118.14546      3391.24646        41.600    23692339.90341
  97016195.89941      2642.53141        29.900
  23061309.41048 121495735.19448     -1922.26648        46.000    23061309.36143
  94671934.97843     -1497.87143        36.100
 04 09 01 17 38  0.0000000  0  8G 1G30G25G14G23G20G16G11
  21142965.43449 111414800.53449      1313.84449        49.600    21142965.55546
  86816681.03646      1023.77046        42.300
  23542823.55847 124026127.35447     -1750.11347        44.200    23542825.26043
  96403924.80743     -1363.72743        36.400
  20537452.99849 108232802.10449      -817.75049        50.000    20537452.37147
  84337196.97247      -637.21147        44.600
  23131283.75747 121863452.36347     -2409.91047        44.800    23131284.03443
  94958470.79443     -1877.85543        36.200
  23454246.39247 123252933.43147      2673.49647        44.300    23454245.15745
  96041171.91245      2083.24245        39.500
  21814116.90549 114633967.11749      2550.45349        48.100    21814116.61645
  89325180.82545      1987.36345        40.400
  23653650.24346 124300812.92146      3385.20746        41.400    23653651.64743
  96857776.50243      2637.82443        34.500
  23083385.56548 121611745.35648     -1944.96148        45.800    23083385.30343
  94762332.37843     -1515.55943        35.500
 04 09 01 17 39  0.0000000  0  8G 1G30G25G14G23G20G16G11
  21128034.44249 111336338.02449      1301.43449        49.600    21128034.67746
  86755541.42746      1014.10246        42.500
  23563004.33547 124132176.63247     -1785.05547        43.400    23563004.62144
  96486560.53044     -1390.95344        36.800
  20546940.39249 108282658.86949      -844.30549        50.100    20546939.78747
  84376046.37847      -657.90247        44.000
  23158838.61747 122008253.14347     -2417.04347        44.600    23158838.74344
  95071302.46944     -1883.41444        36.900
  23423749.37647 123092670.80247      2668.35947        44.100    23423747.78045
  95916292.00945      2079.23845        39.100
  21785119.61849 114481585.48749      2528.61349        48.100    21785119.23046
  89206441.91146      1970.34446        41.600
  23615034.43346 124097888.76746      3378.46146        41.200    23615036.47443
  96699654.02843      2632.56343        34.700
  23105716.59647 121729096.24047     -1966.99247        45.500    23105716.72943
  94853774.50443     -1532.72343        35.900
 04 09 01 17 40  0.0000000  0  8G 1G30G25G14G23G20G16G11
  21113245.78449 111258623.42949      1289.05949        49.400    21113246.21646
  86694984.59246      1004.45746        42.600
  23583581.50747 124240312.53447     -1819.49247        43.800    23583583.16944
  96570822.24344     -1417.78944        38.000
  20556730.28649 108334105.41949      -870.55949        50.000    20556729.80847
  84416134.58247      -678.35947        44.200
  23186473.29647 122153474.04247     -2423.78547        44.500    23186473.45143
  95184461.49643     -1888.66843        36.100
  23393308.97047 122932706.98847      2663.75047        43.700    23393307.78045
  95791644.97545      2075.64545        39.900
  21756374.22349 114330527.41849      2506.62149        48.700    21756373.96045
  89088734.35445      1953.20745        40.800
  23576497.06046 123895373.69846      3371.72746        41.600    23576499.53542
  96541850.31742      2627.31642        33.400
  23128299.69747 121847772.18447     -1988.70747        45.100    23128300.45543
  94946249.16743     -1549.64543        35.800
 04 09 01 17 41  0.0000000  0  8G 1G30G25G14G23G20G16G11
  21098599.19949 111181654.16349      1276.55549        49.600    21098599.39446
  86635008.53346       994.71546        43.100
  23604552.85846 124350517.13346     -1854.10946        43.000    23604554.10443
  96656695.89743     -1444.76643        34.900
  20566819.51449 108387124.78249      -896.80549        50.000    20566819.14147
  84457448.36447      -698.81347        43.800
  23214186.91447 122299108.82747     -2430.81347        44.300    23214187.03843
  95297943.05243     -1894.14543        35.200
  23362925.46047 122773040.63047      2658.59847        43.700    23362924.23445
  95667229.70445      2071.63345        39.300
  21727883.62049 114180808.28749      2483.91449        48.100    21727883.26345
  88972070.11145      1935.51645        40.800
  23538041.57846 123693286.98846      3364.48846        42.700    23538043.05842
  96384380.38042      2621.68042        34.300
  23151130.34048 121967747.49448     -2010.33248        45.600    23151131.31744
  95039736.30544     -1566.49644        36.900
 04 09 01 17 42  0.0000000  0  8G 1G30G25G14G23G20G16G11
  21084094.83949 111105433.89649      1264.10949        49.500    21084095.29146
  86575616.11146       985.01646        42.900
  23625915.41447 124462778.02947     -1888.12947        44.100    23625916.97943
  96744171.84543     -1471.27343        35.300
  20577206.18649 108441707.08749      -922.64549        49.800    20577205.91847
  84499980.01847      -718.94547        44.300
  23241979.27547 122445158.02147     -2437.68447        44.200    23241979.47243
  95411747.50943     -1899.49643        35.900
  23332599.53347 122613676.16447      2653.59447        44.000    23332597.82944
  95543049.66944      2067.73044        38.700
  21699651.76949 114032449.34349      2461.24649        48.400    21699651.47745
  88856465.76745      1917.85245        40.500
  23499672.50147 123491654.87247      3356.53547        43.700    23499673.68243
  96227264.68143      2615.48443        36.000
  23174204.76548 122089002.80948     -2031.37948        45.800    23174205.17844
  95134220.87144     -1582.89544        37.000
 04 09 01 17 43  0.0000000  0  8G 1G30G25G14G23G20G16G11
  21069733.65749 111029964.82249      1251.37549        49.600    21069733.96746
  86516809.03346       975.09446        42.600
  23647667.20146 124577081.69346     -1922.20746        43.300    23647668.25243
  96833239.60143     -1497.82843        34.900
  20587887.83749 108497839.89449      -948.64549        49.800    20587887.71147
  84543719.84947      -739.20747        44.300
  23269850.10047 122591620.34947     -2444.58247        44.500    23269850.56543
  95525873.90443     -1904.87143        35.400
  23302331.63747 122454617.67447      2648.27047        44.100    23302330.08745
  95419108.06345      2063.58245        40.600
  21671682.55649 113885470.75149      2437.92249        48.300    21671682.40045
  88741937.01445      1899.67645        40.600
  23461394.23347 123290501.74447      3348.27047        43.600    23461395.35642
  96070522.16942      2609.04342        34.400
  23197519.00248 122211518.18448     -2052.56648        46.200    23197519.29343
  95229687.27643     -1599.40643        36.500
 04 09 01 17 44  0.0000000  0  8G 1G30G25G14G23G20G16G11
  21055515.99249 110955250.66849      1238.95349        49.700    21055516.33746
  86458590.21046       965.41446        42.800
  23669804.77847 124693415.17047     -1955.69147        44.000    23669805.43743
  96923888.99443     -1523.91843        36.100
  20598862.48749 108555512.33649      -974.04749        49.700    20598862.48047
  84588659.39447      -759.00047        44.100
  23297799.62847 122738495.46847     -2451.44547        44.300    23297799.78143
  95640321.94043     -1910.21943        35.500
  23272122.79547 122295869.67647      2643.32047        45.400    23272121.38444
  95295408.40744      2059.72744        38.700
  21643980.18749 113739893.41349      2414.41049        48.300    21643979.85445
  88628500.13545      1881.35545        40.900
  23423211.73747 123089853.54847      3339.62147        43.500    23423213.12243
  95914173.12143      2602.30143        35.200
  23221069.11148 122335273.77248     -2072.86348        46.000    23221069.46044
  95326120.09144     -1615.22344        37.600
 04 09 01 17 45  0.0000000  0  8G 1G30G25G14G23G20G16G11
  21041442.05049 110881291.56049      1226.23449        49.800    21041442.23746
  86400959.73246       955.50446        42.600
  23692325.20247 124811761.48247     -1989.23047        43.800    23692326.89143
  97016106.86543     -1550.05543        36.000
  20610127.35749 108614709.45649      -999.33649        49.800    20610127.31847
  84634786.99747      -778.70747        44.200
  23325827.39247 122885780.81647     -2458.16447        44.700    23325827.26843
  95755089.64143     -1915.45743        35.900
  23241973.89248 122137433.47748      2637.86348        45.700    23241971.77645
  95171951.69245      2055.47745        39.200
  21616547.78049 113595735.36849      2390.68049        47.800    21616547.57345
  88516169.22145      1862.86345        41.100
  23385130.09447 122889732.48347      3330.73447        44.000    23385130.89941
  95758234.80441      2595.37541        31.900
  23244850.65447 122460247.29947     -2092.85547        45.500    23244851.34743
  95423501.95243     -1630.80143        35.500
 04 09 01 17 46  0.0000000  0  8G 1G30G25G14G23G20G16G11
  21027512.92549 110808093.48149      1213.63749        49.800    21027513.28446
  86343922.26946       945.68846        42.100
  23715226.52847 124932109.38047     -2022.41847        43.600    23715227.66343
  97109884.37043     -1575.91443        34.600
  20621680.80449 108675422.23149     -1024.39549        50.000    20621680.48947
  84682095.63447      -798.23447        44.000
  23353933.22147 123033478.32147     -2465.14147        44.100    23353933.38242
  95870178.48142     -1920.89142        33.600
  23211884.93148 121979316.09448      2632.72748        46.100    23211882.77045
  95048743.42745      2051.47345        39.400
  21589389.80449 113453019.88349      2366.49249        48.200    21589389.75946
  88404962.36846      1844.01646        41.200
  23347153.78247 122690166.55347      3321.30947        44.100    23347154.60443
  95602729.09143      2588.03543        35.200
  23268860.54847 122586420.94347     -2112.77747        44.700    23268861.08743
  95521818.95143     -1646.32443        36.300
 04 09 01 17 47  0.0000000  0  8G 1G30G25G14G23G20G16G11
  21013728.36049 110735655.23649      1200.83649        49.700    21013728.60246
  86287476.88646       935.71546        42.600
  23738504.98046 125054439.87646     -2055.32046        43.200    23738506.66743
  97205206.76143     -1601.55143        36.200
  20633519.47249 108737634.47349     -1049.41449        50.000    20633519.03647
  84730572.68747      -817.72747        44.200
  23382116.36347 123181582.66847     -2472.01647        44.000    23382116.82443
  95985584.33943     -1926.25043        36.500
  23181856.71348 121821517.68848      2627.27748        45.900    23181854.82144
  94925783.71344      2047.22744        38.500
  21562509.64049 113311762.93949      2341.96549        48.800    21562509.34146
  88294892.04146      1824.90646        42.100
  23309287.12146 122491176.35946      3311.39546        43.200    23309287.81243
  95447671.98043      2580.30943        35.700
  23293094.07247 122713768.92147     -2132.39547        45.100    23293094.35242
  95621051.03542     -1661.60942        34.400
 04 09 01 17 48  0.0000000  0  8G 1G30G25G14G23G20G16G11
  21000088.75149 110663978.92849      1188.13349        49.700    21000088.97746
  86231625.21846       925.81646        43.100
  23762157.99846 125178737.41946     -2087.96946        43.100    23762159.81243
  97302061.95243     -1626.99243        35.300
  20645641.03249 108801333.41949     -1074.03149        49.900    20645640.59147
  84780208.20647      -836.91047        44.200
  23410376.97547 123330092.62147     -2478.80147        44.100    23410377.28943
  96101306.24843     -1931.53543        35.700
  23151889.85348 121664041.55348      2621.84448        46.100    23151888.01544
  94803075.12544      2042.99244        38.400
  21535910.59549 113171983.95349      2317.11749        48.800    21535910.30946
  88185973.36646      1805.54346        42.000
  23271534.31047 122292786.12247      3301.25447        43.800    23271535.55342
  95293082.33642      2572.40242        33.200
  23317547.18747 122842270.44747     -2151.21547        45.300    23317547.63344
  95721181.99744     -1676.27344        37.900
 04 09 01 17 49  0.0000000  0  8G 1G30G25G14G23G20G16G11
  20986594.32249 110593065.71049      1175.60549        49.600    20986594.92746
  86176368.17846       916.05546        42.600
  23786182.54947 125304985.11447     -2120.65247        44.000    23786183.73143
  97400436.67643     -1652.46143        34.800
  20658042.88249 108866505.16049     -1098.49649        50.200    20658042.51047
  84830991.34947      -855.97347        44.700
  23438714.51147 123479005.90647     -2485.25047        44.000    23438714.76644
  96217342.44044     -1936.56344        37.400
  23121984.86348 121506889.79148      2616.47748        46.300    23121982.96144
  94680619.28444      2038.80944        37.700
  21509596.27949 113033701.19749      2292.20349        48.900    21509595.81546
  88078220.59146      1786.12946        41.700
  23233900.25046 122095019.51446      3290.68846        42.100    23233901.76543
  95138978.69243      2564.17243        34.900
  23342215.67647 122971902.77947     -2169.67647        45.500    23342216.11043
  95822194.08643     -1690.66043        36.100
 04 09 01 17 50  0.0000000  0  8G 1G30G25G14G23G20G16G11
  20973246.19149 110522920.47649      1162.82449        49.800    20973246.45646
  86121709.56346       906.09446        42.800
  23810575.39547 125433169.45547     -2152.21947        44.600    23810577.10543
  97500320.50743     -1677.05943        36.600
  20670722.92449 108933138.85849     -1122.60549        50.000    20670722.51047
  84882913.68847      -874.76247        44.400
  23467128.85047 123628323.47947     -2492.01247        44.000    23467129.04342
  96333693.65842     -1941.83242        34.300
  23092142.62948 121350068.87548      2610.92248        46.400    23092140.84944
  94558421.23644      2034.48044        38.000
  21483570.82349 112896936.92349      2266.75049        48.700    21483570.56446
  87971651.03946      1766.29746        41.600
  23196389.93846 121897903.10646      3279.75846        43.000    23196391.70843
  94985381.67643      2555.65243        34.700
  23367095.70847 123102646.41347     -2187.92647        45.400    23367096.30544
  95924072.13744     -1704.87944        37.000
 04 09 01 17 51  0.0000000  0  8G 1G30G25G14G23G20G16G11
  20960044.70449 110453545.53549      1149.80949        50.000    20960044.82346
  86067651.16446       895.95346        42.800
  23835333.37246 125563273.85846     -2184.17646        43.000    23835334.92743
  97601700.49043     -1701.95743        36.100
  20683678.51349 109001221.16949     -1146.80149        50.100    20683678.30447
  84935964.81247      -893.61347        44.300
  23495619.75547 123778044.31047     -2498.90247        43.700    23495619.87443
  96450359.10543     -1947.19943        36.300
  23062364.25148 121193582.44348      2605.12948        46.500    23062362.25244
  94436483.83244      2029.96944        37.900
  21457837.99249 112761710.43049      2240.80949        48.800    21457837.64346
  87866279.76946      1746.08246        41.500
  23159008.05646 121701461.48246      3268.23446        42.700    23159009.74043
  94832310.45443      2546.67643        35.400
  23392182.85847 123234479.96547     -2206.33647        45.500    23392183.43343
  96026799.46343     -1719.22743        35.700
 04 09 01 17 52  0.0000000  0  8G 1G30G25G14G23G20G16G11
  20946989.90749 110384942.14249      1136.89549        50.100    20946990.19946
  86014193.98946       885.88746        42.900
  23860453.51047 125695280.30447     -2215.89847        43.900    23860454.73544
  97704562.58044     -1726.67644        36.900
  20696907.05649 109070737.48349     -1170.40649        50.200    20696906.76247
  84990133.34047      -912.00847        44.200
  23524187.10147 123928165.76047     -2505.30147        44.000    23524187.42643
  96567336.73143     -1952.18843        35.900
  23032650.01748 121037432.71548      2599.71948        46.300    23032647.77844
  94314808.79244      2025.75044        37.200
  21432401.25449 112628039.46449      2214.82449        48.800    21432400.94446
  87762120.59946      1725.83246        41.600
  23121759.30047 121505717.04747      3256.58247        43.400    23121760.73542
  94679782.47342      2537.59442        33.100
  23417472.77647 123367380.19347     -2223.73847        45.300    23417473.43343
  96130357.97143     -1732.78543        36.000
 04 09 01 17 53  0.0000000  0  8G 1G30G25G14G23G20G16G11
  20934082.46349 110317112.61649      1124.00049        49.900    20934082.56046
  85961339.81446       875.84046        42.900
  23885932.50447 125829171.65847     -2247.07047        44.300    23885933.58642
  97808893.46342     -1750.96942        34.300
  20710406.00649 109141674.44749     -1193.95749        50.100    20710405.60347
  85045408.87547      -930.35947        44.400
  23552830.46847 124078686.32147     -2512.09447        43.400    23552830.83843
  96684625.35743     -1957.48043        36.100
  23003000.30848 120881623.40348      2594.07448        46.400    23002998.50044
  94193398.99144      2021.35244        38.200
  21407264.17849 112495942.95349      2188.43049        48.700    21407263.73846
  87659188.27746      1705.26646        41.600
  23084647.97247 121310694.58647      3244.34447        44.600    23084648.94043
  94527817.10143      2528.05943        35.100
  23442961.72947 123501324.49847     -2240.84847        44.800    23442962.33844
  96234730.03144     -1746.11744        36.700
 04 09 01 17 54  0.0000000  0  8G 1G30G25G14G23G20G16G11
  20921323.02949 110250062.37849      1111.23049        49.700    20921323.08746
  85909092.88346       865.89146        43.100
  23911767.24947 125964933.87547     -2277.96547        44.100    23911768.25443
  97914682.11743     -1775.03943        35.300
  20724173.14349 109214021.51649     -1217.34049        50.000    20724172.78647
  85101783.19747      -948.57847        44.400
  23581549.66447 124229607.62347     -2518.57047        44.000    23581550.41243
  96802226.23143     -1962.52743        35.700
  22973416.66948 120726161.21548      2588.23848        46.200    22973415.03644
  94072259.69644      2016.80544        37.600
  21382430.88249 112365443.38549      2161.70749        48.800    21382430.36445
  87557500.32145      1684.44545        40.500
  23047678.72647 121116421.15747      3231.60947        44.700    23047679.49243
  94376435.38943      2518.13343        34.900
  23468645.52947 123636294.46647     -2257.92247        44.800    23468646.42744
  96339901.32444     -1759.42244        36.700
 04 09 01 17 55  0.0000000  0  8G 1G30G25G14G23G20G16G11
  20908712.12649 110183791.67749      1097.81649        49.900    20908712.54647
  85857453.39147       855.43847        43.400
  23937954.02046 126102546.80446     -2309.06346        42.700    23937955.31942
  98021912.90442     -1799.27342        33.700
  20738205.51049 109287762.52149     -1240.75849        50.000    20738205.22847
  85159243.68847      -966.82847        44.100
  23610344.73447 124380925.92447     -2525.52347        43.600    23610345.16644
  96920136.47144     -1967.94544        37.600
  22943899.56548 120571047.29848      2582.09848        46.400    22943897.97544
  93951391.77044      2012.02044        37.700
  21357904.43249 112236556.47349      2134.37549        48.700    21357904.00146
  87457068.97346      1663.14546        42.000
  23010856.25947 120922918.55247      3218.38347        44.900    23010856.90142
  94225654.28242      2507.82842        33.400
  23494519.90247 123772264.65147     -2274.64147        44.600    23494520.99443
  96445851.99943     -1772.44943        36.300
 04 09 01 17 56  0.0000000  0  8G 1G30G25G14G23G20G16G11
  20896250.20949 110118303.99249      1084.98849        49.700    20896250.47246
  85806424.03846       845.44146        42.700
  23964489.85146 126241993.71646     -2339.57446        42.600    23964491.27743
  98130572.79943     -1823.04743        35.600
  20752500.70449 109362884.54149     -1263.52049        49.900    20752500.40347
  85217780.30747      -984.56347        44.000
  23639215.18147 124532640.49147     -2531.85547        43.600    23639215.50043
  97038355.48343     -1972.87943        36.300
  22914449.65848 120416286.54448      2576.42248        46.300    22914447.76844
  93830799.04744      2007.59844        38.000
  21333688.81049 112109302.25149      2107.24249        49.100    21333688.24445
  87357909.84745      1642.00445        41.100
  22974185.43747 120730211.71147      3205.01247        45.200    22974185.77543
  94075493.29143      2497.41443        35.800
  23520580.26447 123909213.70247     -2290.48447        44.700    23520581.72743
  96552565.42043     -1784.79743        36.000
 04 09 01 17 57  0.0000000  0  8G 1G30G25G14G23G20G16G11
  20883937.60449 110053601.55449      1071.79349        49.700    20883937.78646
  85756006.56546       835.16046        42.900
  23991371.24846 126383255.64146     -2369.32046        42.500    23991372.48043
  98240646.93443     -1846.22743        34.600
  20767056.01649 109439372.87149     -1286.16449        50.100    20767055.61447
  85277381.58247     -1002.20747        43.800
  23668160.91547 124684749.24747     -2538.28147        43.600    23668161.24443
  97156881.64643     -1977.88343        34.700
  22885067.48748 120261882.36648      2570.33648        46.600    22885065.30944
  93710484.16644      2002.85544        38.600
  21309787.13749 111983698.42649      2079.60549        49.200    21309786.72746
  87260036.75346      1620.46946        42.000
  22937670.04847 120538323.76747      3191.12147        45.100    22937670.77843
  93925970.39243      2486.58643        35.600
  23546823.07547 124047118.58347     -2306.28947        45.100    23546823.93243
  96660023.67243     -1797.11343        36.300
 04 09 01 17 58  0.0000000  0  8G 1G30G25G14G23G20G16G11
  20871775.97849 109989691.05349      1058.47749        49.900    20871776.23246
  85706206.18546       824.78546        43.100
  24018594.83946 126526318.36546     -2399.46146        42.400    24018596.89042
  98352124.28442     -1869.71942        33.100
  20781869.53149 109517217.84149     -1308.83649        50.100    20781868.98847
  85338039.98847     -1019.87547        43.700
  23697181.59146 124837254.76646     -2545.38746        43.300    23697182.37842
  97275716.97042     -1983.42242        34.200
  22855754.55948 120107842.12048      2564.13348        46.700    22855752.18244
  93590452.87544      1998.02344        37.700
  21286203.98049 111859767.89249      2051.24249        49.100    21286203.59946
  87163467.52046      1598.36746        42.500
  22901316.10747 120347283.57747      3176.50047        45.400    22901316.98143
  93777108.09243      2475.19143        35.800
  23573244.07747 124185960.55247     -2321.85247        44.500    23573244.71343
  96768212.08343     -1809.23843        35.800
 04 09 01 17 59  0.0000000  0  8G 1G30G25G14G23G20G16G11
  20859764.72349 109926571.20649      1045.28949        50.000    20859764.93546
  85657021.89546       814.50846        42.900
  24046157.60346 126671159.71846     -2428.75846        41.700    24046159.03543
  98464987.56943     -1892.54343        36.000
  20796937.79749 109596402.08149     -1330.84849        50.100    20796937.11547
  85399741.98347     -1037.02747        43.700
  23726277.05147 124990151.75447     -2551.64147        43.900    23726277.75243
  97394857.35843     -1988.29343        35.200
  22826510.86148 119954166.40448      2558.10248        46.200    22826508.79444
  93470705.62144      1993.32444        38.800
  21262942.07149 111737525.29849      2023.19549        48.800    21262941.41246
  87068213.56746      1576.51246        42.200
  22865127.52347 120157110.79647      3162.10947        45.300    22865127.69243
  93628921.69843      2463.97743        35.100
  23599837.93746 124325713.56846     -2336.91846        43.300    23599839.00342
  96877110.41642     -1820.97742        33.900
 04 09 01 18 00  0.0000000  0  8G 1G30G25G14G23G20G16G11
  20847904.68049 109864246.53549      1031.86749        49.900    20847905.01946
  85608457.22146       804.05146        43.300
  24074055.50646 126817762.77746     -2458.24646        41.700    24074056.12541
  98579223.65441     -1915.52041        32.200
  20812258.46149 109676913.00449     -1353.01249        50.100    20812257.84547
  85462477.74947     -1054.29747        43.500
  23755447.12546 125143440.51046     -2558.17246        42.900    23755447.73342
  97514302.99742     -1993.38742        33.900
  22797337.63848 119800860.84148      2551.90648        46.500    22797335.81745
  93351246.79745      1988.49645        39.000
  21240004.89649 111616990.70949      1994.39549        48.900    21240004.60646
  86974290.51546      1554.07046        41.700
  22829108.33947 119967831.05447      3146.92247        45.300    22829108.51443
  93481431.15643      2452.14543        35.200
  23626601.31947 124466356.26847     -2351.65247        44.400    23626602.69443
  96986702.01143     -1832.46143        35.700
 04 09 01 18 01  0.0000000  0  8G 1G30G25G14G23G20G16G11
  20836196.32849 109802718.72149      1018.78149        50.100    20836196.71146
  85560513.46946       793.85246        42.800
  24102284.46745 126966107.00745     -2486.66845        40.900    24102285.85442
  98694816.50342     -1937.66842        33.300
  20827828.65149 109758735.33749     -1374.47749        50.000    20827828.03347
  85526235.38947     -1071.02347        43.400
  23784690.93246 125297117.90646     -2564.70346        43.100    23784691.25543
  97634051.45843     -1998.47343        36.200
  22768235.48448 119647928.28548      2545.74248        46.700    22768233.34345
  93232078.64145      1983.69145        39.300
  21217396.04349 111498180.57549      1965.77349        48.700    21217395.60946
  86881711.20946      1531.77046        41.800
  22793264.03148 119779466.79848      3131.60548        45.700    22793264.00244
  93334653.96744      2440.20744        37.000
  23653530.25747 124607864.76647     -2365.35247        45.200    23653530.96244
  97096968.24844     -1843.13344        36.700
 04 09 01 18 02  0.0000000  0  8G 1G30G25G14G23G20G16G11
  20824641.58249 109741997.32949      1005.37549        50.000    20824641.68447
  85513198.09647       783.40647        43.600
  24130842.10545 127116180.01945     -2515.39545        40.600    24130844.31541
  98811756.46541     -1960.05141        32.200
  20843647.03749 109841861.08049     -1396.07449        50.000    20843646.37147
  85591008.67247     -1087.85247        43.700
  23814009.95846 125451189.42646     -2570.94546        43.200    23814009.93642
  97754107.04342     -2003.34042        34.400
  22739206.34848 119495378.96148      2539.30948        46.900    22739204.00244
  93113209.09544      1978.68044        38.800
  21195120.23949 111381119.57649      1936.39549        49.100    21195119.75546
  86790494.85346      1508.87546        41.800
  22757599.69748 119592049.16348      3115.74648        45.700    22757599.90543
  93188614.41343      2427.85243        35.600
  23680619.93847 124750222.89847     -2379.63347        44.600    23680620.74243
  97207896.52243     -1854.26243        36.600
 04 09 01 18 03  0.0000000  0  8G 1G30G25G14G23G20G16G11
  20813239.16849 109682078.09449       991.89549        49.900    20813239.45747
  85466507.80147       772.90247        43.600
  24159724.49946 127267955.59646     -2543.57446        42.500    24159725.44842
  98930023.02942     -1982.00842        32.900
  20859709.55749 109926269.86449     -1417.52749        50.000    20859708.87746
  85656781.74146     -1104.57046        43.300
  23843402.29546 125605646.64346     -2577.56646        42.600    23843402.55342
  97874463.14942     -2008.50042        33.800
  22710249.75248 119343210.72348      2532.98448        47.100    22710247.60645
  92994636.51945      1973.75045        38.900
  21173179.05649 111265818.64249      1906.95749        49.000    21173178.48046
  86700649.98346      1485.93846        41.800
  22722118.04048 119405594.34048      3099.43848        45.900    22722118.62543
  93043325.08543      2415.14543        34.800
  23707865.52947 124893400.15747     -2392.88747        45.000    23707866.40543
  97319463.09743     -1864.59043        34.800
 04 09 01 18 04  0.0000000  0  8G 1G30G25G14G23G20G16G11
  20801990.87249 109622968.30449       978.39149        50.000    20801991.39247
  85420448.22647       762.37947        44.000
  24188927.62945 127421418.47045     -2571.60945        40.000    24188929.52342
  99049604.37642     -2003.85542        34.100
  20876014.09949 110011950.97749     -1438.55549        49.800    20876013.52147
  85723546.23547     -1120.95347        43.600
  23872868.38946 125760492.19446     -2584.01246        42.500    23872868.98143
  97995121.85443     -2013.52343        34.800
  22681367.03648 119191431.84048      2526.31648        46.800    22681364.67244
  92876367.33344      1968.55544        38.700
  21151577.09049 111152300.04049      1877.04349        49.000    21151576.79846
  86612193.95146      1462.62946        41.800
  22686825.47248 119220131.26648      3082.70748        46.200    22686826.08143
  92898808.53543      2402.10543        35.300
  23735263.84147 125037378.37747     -2406.16447        44.900    23735264.74543
  97431653.78243     -1874.93843        34.500
 04 09 01 18 05  0.0000000  0  8G 1G30G25G14G23G20G16G11
  20790897.36449 109564671.25849       964.84849        50.000    20790897.74247
  85375021.96847       751.82447        43.600
  24218447.67145 127576549.10545     -2599.02345        40.700    24218450.00941
  99170485.34441     -2025.21541        31.000
  20892558.20749 110098891.23249     -1459.32849        49.800    20892557.89046
  85791291.88346     -1137.14146        43.100
  23902408.33046 125915724.62246     -2590.28546        42.900    23902408.97542
  98116082.03542     -2018.40642        34.000
  22652559.37248 119040047.19948      2519.67248        46.600    22652557.21144
  92758405.34244      1963.37944        38.800
  21130317.88149 111040581.58549      1846.99249        49.300    21130317.46446
  86525140.63346      1439.21146        42.500
  22651726.14848 119035682.99448      3065.52748        46.000    22651726.35243
  92755082.76243      2388.71943        35.700
  23762810.43247 125182134.73847     -2418.96547        44.700    23762811.30542
  97544450.82542     -1884.91042        34.400
 04 09 01 18 06  0.0000000  0  8G 1G30G25G14G23G20G16G11
  20779959.15549 109507190.59449       951.19549        49.900    20779959.41647
  85330231.84147       741.18847        43.700
  24248282.00845 127733327.94745     -2626.73045        40.000    24248282.95742
  99292650.55942     -2046.80542        32.300
  20909339.20449 110187076.25149     -1479.93449        49.800    20909338.88546
  85860007.47246     -1153.19946        43.000
  23932021.57546 126071342.67546     -2596.67246        42.700    23932022.76843
  98237342.65543     -2023.38743        34.500
  22623827.53848 118889061.21048      2513.03948        46.300    22623825.35544
  92640753.98044      1958.21144        38.000
  21109404.47949 110930680.64649      1816.45349        49.200    21109404.03646
  86439503.55246      1415.41446        42.500
  22616824.07148 118852273.62048      3047.91048        45.600    22616824.49244
  92612166.52444      2374.99244        37.100
  23790500.24647 125327646.22747     -2431.52347        44.200    23790501.38543
  97657836.30443     -1894.69543        34.900
 04 09 01 18 07  0.0000000  0  8G 1G30G25G14G23G20G16G11
  20769176.99749 109450530.14449       937.45749        49.800    20769177.09147
  85286080.84947       730.48447        43.600
  24278425.91244 127891735.56344     -2653.76644        38.400    24278427.75941
  99416084.94941     -2067.87541        31.900
  20926354.66949 110276492.85249     -1500.46949        49.800    20926354.25947
  85929682.73047     -1169.19947        43.400
  23961708.17546 126227345.78546     -2603.14146        42.400    23961709.19042
  98358903.35542     -2028.42642        33.300
  22595172.60948 118738478.89148      2506.39848        46.000    22595170.63545
  92523417.16145      1953.03545        39.200
  21088840.24949 110822615.31549      1785.65649        49.200    21088839.82846
  86355296.81346      1391.41846        42.500
  22582124.69047 118669927.78247      3030.21547        45.400    22582125.14343
  92470078.98543      2361.20343        36.100
  23818329.49247 125473890.76647     -2443.50847        43.600    23818331.09743
  97771792.95643     -1904.03543        34.500
 04 09 01 18 08  0.0000000  0  8G 1G30G25G14G23G20G16G11
  20758551.23149 109394691.38649       923.88349        50.000    20758551.38147
  85242570.13247       719.90647        43.400
  24308875.68144 128051750.28844     -2680.23844        38.300    24308877.86541
  99540771.70341     -2088.50041        28.200
  20943601.40549 110367124.32949     -1520.52049        49.900    20943600.92747
  86000304.64447     -1184.82447        43.500
  23991467.47046 126383730.63346     -2609.48446        42.800    23991468.10841
  98480761.49641     -2033.36741        30.600
  22566595.31148 118588303.90748      2499.66048        46.600    22566592.88045
  92406397.73445      1947.78545        38.900
  21068628.20049 110716401.06949      1754.83249        48.900    21068627.92346
  86272532.48746      1367.39846        42.100
  22547631.94448 118488667.41048      3012.02048        45.900    22547632.40344
  92328837.27844      2347.02344        37.400
  23846293.90946 125620843.63746     -2454.90246        43.100    23846295.20542
  97886301.54442     -1912.91442        32.600
 04 09 01 18 09  0.0000000  0  8G 1G30G25G14G23G20G16G11
  20748083.02449 109339679.94349       909.85949        50.000    20748083.18146
  85199704.07846       708.97746        43.300
  24339627.57644 128213353.67544     -2706.92644        37.000    24339629.65041
  99666696.34141     -2109.29341        24.300
  20961076.80549 110458958.14149     -1540.59849        49.800    20961076.31946
  86071863.44646     -1200.46946        43.300
  24021299.29446 126540497.89446     -2616.01646        42.000    24021300.08443
  98602917.62643     -2038.45743        35.100
  22538096.67248 118438542.01448      2492.45348        46.600    22538094.54244
  92289700.22644      1942.16844        38.700
  21048772.25349 110612056.99049      1723.25449        49.200    21048771.88246
  86191225.41446      1342.79346        42.300
  22513350.70947 118308517.71447      2992.99647        45.500    22513351.04343
  92188461.02443      2332.20343        36.500
  23874389.32546 125768483.70746     -2466.32046        42.400    23874389.80042
  98001345.64442     -1921.81342        32.500
 04 09 01 18 10  0.0000000  0  8G 1G30G25G14G23G20G16G11
  20737772.89649 109285500.05249       896.03949        50.000    20737772.93247
  85157485.98447       698.21147        43.600
  24370678.54643 128376526.49143     -2732.24643        35.800    24370679.76941
  99793843.88741     -2129.02741        31.200
  20978778.73049 110551982.03549     -1560.18049        50.000    20978778.09947
  86144349.57147     -1215.72747        43.800
  24051204.12846 126697647.37146     -2622.28946        42.500    24051204.92743
  98725371.57243     -2043.34843        34.600
  22509677.75248 118289200.13148      2485.44548        46.600    22509675.43444
  92173329.98944      1936.70744        37.700
  21029275.69149 110509601.41749      1691.82449        49.300    21029275.17046
  86111389.90946      1318.30146        42.800
  22479285.57948 118129503.74848      2974.03548        45.700    22479285.56444
  92048969.76944      2317.42644        36.900
  23902610.55545 125916789.09645     -2477.25045        40.200    23902611.56342
  98116908.16942     -1930.32842        32.500
 04 09 01 18 11  0.0000000  0  8G 1G30G25G14G23G20G16G11
  20727621.75949 109232154.96549       882.24649        50.100    20727621.72447
  85115918.39547       687.46147        43.400
  24402024.11744 128541247.53844     -2758.11744        38.300    24402025.75841
  99922197.83341     -2149.18841        14.400
  20996704.21849 110646180.76349     -1579.55549        49.900    20996703.56246
  86217751.15946     -1230.82446        43.300
  24081181.09246 126855176.41746     -2628.57846        41.600    24081182.07542
  98848121.27442     -2048.25042        32.800
  22481339.48548 118140282.19948      2478.32848        46.300    22481337.23444
  92057290.09144      1931.16044        38.200
  21010141.36549 110409050.03049      1660.03949        49.200    21010141.02446
  86033038.19346      1293.53546        42.800
  22445440.54948 117951647.94448      2954.59048        46.200    22445440.58844
  91910380.98844      2302.27344        37.100
  23930954.14645 126065736.46045     -2487.73845        39.900    23930955.88041
  98232970.92441     -1938.50041        30.100
 04 09 01 18 12  0.0000000  0  8G 1G30G25G14G23G20G16G11
  20717629.42649 109179645.61949       868.20749        50.000    20717629.67247
  85075002.02547       676.52347        43.500
  24433659.88644 128707493.48244     -2783.33244        36.900    24433660.99941
 100051740.03341     -2168.82841        29.300
  21014849.94049 110741537.51049     -1598.74649        49.900    21014849.43547
  86292055.09747     -1245.78147        43.400
  24111229.34946 127013081.07546     -2634.71146        41.800    24111230.78942
  98971163.71042     -2053.02342        34.200
  22453082.45248 117991790.47148      2471.30548        46.400    22453079.84644
  91941582.28644      1925.68844        38.800
  20991372.12849 110310416.49649      1627.78549        49.300    20991371.53946
  85956180.90846      1268.40246        42.200
  22411819.45447 117774970.90247      2934.73047        45.200    22411820.04044
  91772710.70244      2286.80144        37.800
  23959415.65945 126215299.66245     -2497.77345        40.300    23959417.51641
  98349513.56241     -1946.32041        31.900
 04 09 01 18 13  0.0000000  0  8G 1G30G25G14G23G20G16G11
  20707797.51749 109127979.69349       853.93449        50.100    20707797.94147
  85034742.86647       665.39847        44.200
  24465583.18942 128875247.18942     -2808.82842        34.200    24465583.24942
 100182457.10342     -2188.70342        34.200
  21033214.24849 110838042.08549     -1617.92649        49.900    21033213.65846
  86367253.43746     -1260.72346        43.300
  24141349.55646 127171363.75946     -2641.38346        41.900    24141351.05343
  99094500.68543     -2058.22343        35.300
  22424908.01948 117843733.82448      2463.94148        46.300    22424905.68044
  91826213.51644      1919.94944        37.500
  20972971.50249 110213721.23049      1595.27349        49.200    20972970.96346
  85880833.93846      1243.06646        42.500
  22378428.32748 117599499.83148      2914.34848        45.600    22378428.87144
  91635980.13044      2270.91844        38.300
  23987990.61144 126365459.39744     -2507.48444        38.300    23987991.35541
  98466520.99741     -1953.88741        30.100
 04 09 01 18 14  0.0000000  0  8G 1G30G25G14G23G20G16G11
  20698128.09849 109077165.81649       839.82849        50.200    20698128.44047
  84995147.64247       654.41047        44.200
  24497788.81243 129044492.67243     -2833.12943        36.300    24497790.55741
 100314336.69341     -2207.63741        28.800
  21051795.00749 110935684.78249     -1636.86749        49.700    21051794.41946
  86443338.62846     -1275.48446        43.300
  24171542.56346 127330027.92346     -2647.53946        41.700    24171543.63943
  99218134.90543     -2063.02043        34.800
  22396818.69848 117696122.78548      2456.25848        46.600    22396816.47844
  91711191.96744      1913.96544        38.600
  20954943.95549 110118985.32049      1562.56649        49.300    20954943.50046
  85807013.75746      1217.58246        42.800
  22345272.15648 117425262.60348      2893.50848        46.000    22345272.18544
  91500210.97744      2254.68044        37.700
  24016675.05444 126516197.64844     -2516.62144        37.400    24016676.72641
  98583979.27741     -1961.00841        29.900
 04 09 01 18 15  0.0000000  0  8G 1G30G25G14G23G20G16G11
  20688620.63349 109027203.48849       825.75449        50.000    20688620.82847
  84956215.95647       643.44147        44.000
  24530274.29344 129215204.86344     -2857.12144        37.000    24530276.85241
 100447359.10141     -2226.32841        30.000
  21070588.90049 111034447.68349     -1655.13349        49.700    21070588.33546
  86520296.70846     -1289.71946        43.000
  24201807.12345 127489068.03445     -2653.71945        41.100    24201808.01244
  99342062.06944     -2067.83644        36.900
  22368814.02548 117548958.18548      2449.29348        46.600    22368811.90945
  91596518.30345      1908.53545        39.300
  20937291.31449 110026220.29949      1529.75049        49.600    20937290.69246
  85734729.33346      1192.01246        42.800
  22312354.27348 117252278.38448      2872.69148        45.700    22312354.53644
  91365418.20544      2238.45744        38.300
  24045463.79243 126667487.23943     -2525.96143        36.100    24045466.00241
  98701867.14341     -1968.28541        20.100
 04 09 01 18 16  0.0000000  0  8G 1G30G25G14G23G20G16G11
  20679274.56949 108978089.88649       811.23049        50.000    20679274.81347
  84917945.62247       632.12547        44.000
  24563034.03643 129387356.11143     -2881.78543        35.500    24563034.98343
 100581502.71643     -2245.55943        34.900
  21089591.90149 111134309.35449     -1673.72749        49.700    21089591.40446
  86598110.96846     -1304.20746        42.800
  24232141.75746 127648475.79946     -2660.14146        41.900    24232142.76743
  99466275.71143     -2072.84043        35.100
  22340894.42548 117402239.24348      2441.56348        46.700    22340892.37845
  91482191.91445      1902.51245        40.100
  20920015.58249 109935435.96649      1496.19549        49.200    20920015.22646
  85663988.30046      1165.86346        43.100
  22279677.91748 117080563.56348      2851.02348        45.900    22279678.47344
  91231614.56744      2221.57444        38.700
  24074353.21743 126511580.64753     -2534.50043        36.300    24074356.31741
  98580458.65151     -1974.93441        20.800
 04 09 01 18 17  0.0000000  0  7G 1G30G25G14G23G20G16
  20670093.39349 108929842.35449       798.26649        49.900    20670093.56447
  84880350.14447       622.02347        44.000
  24596065.18742 129560937.92742     -2903.27342        32.800    24596066.50741
 100716761.24841     -2262.29341        29.000
  21108804.01949 111235269.68649     -1690.32449        49.400    21108803.54946
  86676781.32746     -1317.14146        43.200
  24262548.19945 127808262.77445     -2664.54345        41.000    24262549.67541
  99590784.84641     -2076.27341        32.100
  22313063.02548 117255983.83948      2435.13748        46.800    22313060.84645
  91368226.72445      1897.50845        39.600
  20903122.02749 109846660.18649      1464.24249        49.300    20903121.73246
  85594812.38946      1140.96546        43.000
  22247249.84148 116910153.99948      2830.53148        45.700    22247250.39044
  91098828.02744      2205.60544        38.400
 04 09 01 18 18  0.0000000  0  8G 1G30G25G14G23G20G16G11
  20661076.22149 108882457.10149       782.85549        50.100    20661076.29846
  84843426.57046       610.01646        43.200
  24629363.20843 129735921.36143     -2927.71943        35.200    24629366.27841
 100853111.83941     -2281.36741        17.700
  21128220.94849 111337306.52249     -1709.29349        49.500    21128220.60846
  86756290.51946     -1331.91846        42.900
  24293024.93545 127968419.52245     -2671.97745        40.700    24293026.48341
  99715582.12741     -2082.06641        31.900
  22285319.36248 117110190.15448      2426.18848        47.000    22285317.23945
  91254621.33045      1890.53145        39.400
  20886612.35449 109759900.74849      1429.44949        49.700    20886612.01246
  85527207.63546      1113.85246        43.300
  22215073.22048 116741065.00148      2807.33648        46.000    22215073.57945
  90967070.47545      2187.53145        38.900
  24132417.99544 126816716.77654     -2550.54744        37.000    24132421.95041
  98818218.71051     -1987.44941        31.300
 04 09 01 18 19  0.0000000  0  8G 1G30G25G14G23G20G16G11
  20652224.44249 108835940.38749       767.32849        50.000    20652224.61547
  84807179.78147       597.91447        43.700
  24662925.31643 129912287.30643     -2951.73843        36.000    24662917.49241
 100990567.82851     -2300.05541        22.700
  21147840.44049 111440407.28449     -1727.84849        49.500    21147839.95746
  86836628.74946     -1346.37946        42.900
  24323572.38345 128128947.07945     -2679.21545        40.800    24323574.16043
  99840668.31643     -2087.70743        35.700
  22257665.08348 116964866.14148      2417.41848        47.200    22257662.80645
  91141381.89245      1883.69945        39.900
  20870489.72549 109675175.01649      1394.43849        49.500    20870489.19046
  85461187.57246      1086.57046        43.200
  22183152.30048 116573320.86848      2783.69948        45.600    22183153.10344
  90836360.89044      2169.11344        38.500
  24161582.32243 126969976.90153     -2558.53143        36.300

 04 09 01 18 20  0.0000000  0  7G 1G25G14G23G20G16G11
  20643538.28549 108790294.17649       753.66849        50.100    20643538.43847
  84771611.30147       587.27047        44.100
  21167659.31749 111544555.72249     -1744.32449        49.700    21167658.71646
  86917783.34046     -1359.21946        42.800
  24354189.80245 128289841.17145     -2684.44945        40.900    24354191.15442
  99966040.14442     -2091.78142        32.400
  22230100.90248 116820015.16248      2410.26248        47.300    22230098.42145
  91028511.04245      1878.12145        39.200
  20854756.27949 109592495.49749      1361.09049        49.200    20854755.75146
  85396761.96646      1060.58646        42.700
  22151491.56848 116406942.41748      2761.77348        45.700    22151492.03844
  90706715.45744      2152.02744        38.200
  24190830.98243 127123682.17953     -2565.16043        35.000    24190831.84141
  99057397.75851     -1998.83241        17.500
 04 09 01 18 21  0.0000000  0  8G 1G30G25G14G23G20G16G11
  20635020.06049 108745530.65749       739.25449        50.100    20635020.23547
  84736730.63847       576.03947        43.700
  24730818.32741 129961341.34651     -2995.50841        31.500

  21187676.48149 111649746.21149     -1761.27049        49.600    21187675.83346
  86999749.93146     -1372.42246        42.400
  24384878.16046 128451108.48446     -2690.31646        41.400    24384879.60742
 100091702.76442     -2096.35942        33.300
  22202629.39448 116675651.08148      2402.29748        47.500    22202626.90245
  90916019.58845      1871.91845        40.100
  20839416.40249 109511885.18249      1326.66049        49.000    20839415.84846
  85333948.73846      1033.75846        42.800
  22120096.45748 116241959.65848      2738.48448        45.800    22120096.60445
  90578157.56545      2133.87945        39.100
  24220158.68543 127277797.34253     -2571.46543        34.600    24220159.50841
  99177546.45351     -2003.74241        17.600
 04 09 01 18 22  0.0000000  0  7G 1G25G14G23G20G16G11
  20626669.95649 108701649.95749       723.37949        50.200    20626669.97347
  84702537.88947       563.66847        43.800
  21207888.46449 111755960.39249     -1779.23849        49.600    21207887.90346
  87082514.20346     -1386.42246        41.900
  24415636.26545 128612743.07145     -2697.60545        40.000    24415637.81441
 100217651.60441     -2102.03541        30.500
  22175250.70749 116531775.60449      2393.14849        47.800    22175248.36245
  90803908.86645      1864.78945        40.700
  20824472.46249 109433354.09949      1290.82449        49.100    20824471.94246
  85272755.69446      1005.83246        42.600
  22088970.44448 116078390.73048      2713.50848        46.400    22088970.19244
  90450701.38244      2114.41844        38.700
  24249561.59443 127432309.38443     -2578.90243        36.200

 04 09 01 18 23  0.0000000  0  7G 1G25G14G23G20G16G11
  20618488.60049 108658656.49549       709.08249        50.200    20618488.44647
  84669036.49047       552.52747        43.600
  21228292.44249 111863184.31349     -1795.47349        49.600    21228291.95046
  87166065.28446     -1399.07446        42.300
  24446464.23145 128774743.18745     -2703.32845        40.400    24446465.84641
 100343885.22641     -2106.37541        29.700
  22147966.35749 116388394.97749      2385.45349        47.800    22147964.00545
  90692183.74945      1858.79345        40.400
  20809926.90849 109356916.19149      1256.43849        49.400    20809926.34647
  85213193.69347       979.03947        43.400
  22058117.73848 115916257.80548      2690.05148        46.000    22058117.30145
  90324364.14845      2096.14145        39.100
  24279034.29343 127587187.23653     -2584.05143        34.600

 04 09 01 18 24  0.0000000  0  7G 1G25G14G23G20G16G11
  20610476.69249 108616553.78049       694.07849        50.200    20610476.47447
  84636229.17947       540.83647        43.700
  21248885.59849 111971402.40849     -1811.95749        49.600    21248885.17646
  87250391.03846     -1411.91846        42.200
  24477361.13045 128937106.39945     -2709.22345        40.800    24477362.68141
 100470401.77341     -2111.09041        31.300
  22120776.96648 116245514.51748      2377.00048        47.400    22120774.65746
  90580848.37046      1852.20346        41.200
  20795782.16649 109282584.28649      1221.02749        49.400    20795781.37247
  85155272.73447       951.44547        43.400
  22027541.68148 115755582.05648      2665.51648        45.800    22027541.72044
  90199162.38644      2077.02344        37.600
  24308573.94943 127742415.68843     -2590.55543        34.500

 04 09 01 18 25  0.0000000  0  7G 1G25G14G23G20G16G11
  20602636.40149 108575353.14649       679.14149        50.000    20602636.36847
  84604124.78847       529.19947        43.900
  21269666.90749 112080608.22249     -1828.23449        49.600    21269666.55246
  87335486.45046     -1424.60246        42.500
  24508327.92945 129099837.63845     -2715.28145        40.700    24508329.44142
 100597205.10042     -2115.80942        34.100
  22093685.13548 116103147.19148      2368.58248        47.400    22093683.14445
  90469912.84445      1845.64545        40.300
  20782041.94749 109210379.33649      1185.69149        49.400    20782041.34046
  85099009.13746       923.91446        43.100
  21997248.64948 115596392.25248      2640.82048        46.300    21997248.82045
  90075118.47745      2057.77745        39.800
  24338174.85842 127897979.11752     -2595.41842        33.900    24338173.62441
  99660749.78251     -2022.40641        28.400
 04 09 01 18 26  0.0000000  0  7G 1G25G14G23G20G16G11
  20594967.27749 108535051.55949       662.79349        50.100    20594967.33847
  84572720.95947       516.45747        43.800
  21290631.94549 112190779.85749     -1845.55949        49.400    21290631.39846
  87421334.45246     -1438.10246        42.100
  24539362.78345 129262927.73545     -2722.53545        39.300    24539364.84642
 100724288.12042     -2121.46542        32.600
  22066690.89948 115961291.55548      2358.60948        47.200    22066688.41445
  90359376.02645      1837.87545        40.900
  20768707.52449 109140306.84649      1148.64849        49.300    20768707.18147
  85044407.20647       895.04747        44.000
  21967241.20248 115438702.31548      2614.14148        46.500    21967241.38144
  89952243.30744      2036.98844        38.300
  24367834.57842 128053840.87952     -2600.88742        32.900

 04 09 01 18 27  0.0000000  0  7G 1G25G14G23G20G16G11
  20587471.52649 108495661.03549       649.77749        50.100    20587471.46247
  84542027.04247       506.31647        43.600
  21311779.47149 112301910.95049     -1859.18049        49.600    21311778.93446
  87507930.08446     -1448.71546        42.600
  24570467.51245 129426382.60945     -2726.37945        40.200    24570469.73041
 100851655.35341     -2124.45341        32.100
  22039796.74148 115819961.92248      2352.02348        47.300    22039794.36345
  90249249.08445      1832.74245        40.700
  20755782.78349 109072387.42249      1114.89549        49.200    20755782.55847
  84991482.98447       868.74647        43.600
  21937524.82148 115282541.46448      2590.69948        46.700    21937524.66144
  89830559.62344      2018.72344        38.400
  24397549.31543 128209983.99443     -2603.86343        34.800

 04 09 01 18 28  0.0000000  0  7G 1G25G14G23G20G16G11
  20580147.28849 108457171.49649       634.29749        50.100    20580147.17247
  84512035.19347       494.25447        43.700
  21333104.42049 112413973.58249     -1875.12949        49.600    21333103.67046
  87595251.59146     -1461.14546        42.500
  24601638.84845 129590185.87745     -2732.65645        39.700    24601640.76442
 100979294.05242     -2129.35242        34.400
  22013001.33048 115679150.06648      2342.76248        47.300    22012998.72145
  90139525.59245      1825.52745        40.600
  20743267.66049 109006619.63249      1078.37149        49.300    20743267.15347
  84940235.36347       840.28547        43.400
  21908100.48548 115127916.33748      2564.55548        46.800    21908100.42044
  89710072.60144      1998.35244        38.400
  24427309.30942 128366371.69152     -2608.61742        32.900

 04 09 01 18 29  0.0000000  0  6G 1G25G14G23G20G16
  20573000.49849 108419615.28449       618.45749        50.100    20573000.53947
  84482770.61247       481.91047        43.700
  21354608.95249 112526980.92149     -1890.90649        49.300    21354608.29946
  87683309.24746     -1473.43846        42.400
  24632880.67945 129754363.14145     -2738.95745        39.600    24632882.61742
 101107224.20042     -2134.25842        33.000
  21986310.72948 115538890.07948      2333.32048        47.300    21986308.06146
  90030232.13846      1818.16846        41.300
  20731169.54349 108943043.19149      1041.72749        49.200    20731168.93947
  84890695.28647       811.73047        43.700
  21878977.71248 114974875.46048      2537.71948        47.000    21878977.72045
  89590820.05545      1977.44145        39.200
 04 09 01 18 30  0.0000000  0  6G 1G25G14G23G20G16
  20566028.14349 108382975.53749       602.91849        50.000    20566028.33647
  84454220.16747       469.80547        44.200
  21376286.62249 112640898.20249     -1906.18449        49.300    21376286.14846
  87772075.93346     -1485.34046        41.900
  24664189.13845 129918890.58645     -2745.32445        39.500    24664191.35041
 101235427.21241     -2139.21941        27.500
  21959722.26148 115399167.00548      2323.97748        47.500    21959719.66846
  89921357.05746      1810.88746        41.300
  20719486.57149 108881648.79949      1004.88349        49.200    20719485.93147
  84842855.51247       783.02347        43.500
  21850156.40448 114823418.70148      2510.81348        47.200    21850156.34444
  89472801.87244      1956.47344        38.800
 04 09 01 18 31  0.0000000  0  6G 1G25G14G23G20G16
  20559232.38449 108347263.67049       587.45349        49.900    20559232.79847
  84426392.74947       457.75447        44.100
  21398136.16949 112755718.24149     -1921.07449        49.300    21398135.81246
  87861546.07046     -1496.94546        42.400
  24695565.57545 130083773.37145     -2750.97745        39.600    24695568.02941
 101363907.07741     -2143.62541        25.000
  21933238.36048 115259994.34048      2314.94148        47.600    21933236.01545
  89812910.87145      1803.84845        41.000
  20708222.36149 108822455.14649       968.21549        49.200    20708221.89047
  84796730.58747       754.44947        44.100
  21821641.75948 114673573.31948      2483.94948        46.900    21821641.62145
  89356039.30045      1935.54345        39.300
 04 09 01 18 32  0.0000000  0  6G 1G25G14G23G20G16
  20552613.95949 108312483.79349       571.87149        50.100    20552614.19747
  84399291.55947       445.60947        43.700
  21420154.82449 112871426.45849     -1935.82049        49.500    21420154.46246
  87951708.29546     -1508.43446        41.900
  24727009.08044 130249008.85644     -2756.84044        38.600    24727011.14441
 101492661.76841     -2148.19541        29.700
  21906860.68448 115121378.19648      2305.39848        47.500    21906857.91545
  89704898.33245      1796.41045        40.900
  20697378.97149 108765472.84549       931.14849        49.300    20697378.45047
  84752328.79747       725.56647        43.700
  21793437.41448 114525359.19248      2456.45348        47.400    21793437.55845
  89240547.83345      1914.11745        39.200
 04 09 01 18 33  0.0000000  0  6G 1G25G14G23G20G16
  20546173.94849 108278641.57949       556.14849        50.000    20546174.17647
  84372920.99947       433.35947        43.700
  21442339.95149 112988010.16349     -1950.25849        49.300    21442339.59046
  88042552.72346     -1519.68446        41.700
  24758519.64944 130414595.38244     -2762.65644        38.600    24758520.31741
 101621690.03941     -2152.72341        31.700
  21880590.24548 114983326.50748      2296.11748        47.700    21880587.74245
  89597325.63845      1789.18045        40.900
  20686958.70749 108710713.97649       893.98449        49.300    20686958.24847
  84709659.54847       696.60947        43.900
  21765547.56148 114378797.14548      2428.86348        47.100    21765547.57044
  89126343.68444      1892.61744        38.700
 04 09 01 18 34  0.0000000  0  6G 1G25G14G23G20G16
  20539914.39649 108245747.35749       540.37949        50.100    20539914.45147
  84347289.14447       421.07047        43.700
  21464690.13149 113105461.16649     -1964.57449        49.200    21464689.75946
  88134072.95946     -1530.84046        41.600
  24790096.97944 130580535.97444     -2768.46944        38.600    24790098.64041
 101750994.15341     -2157.25041        28.500
  21854429.57648 114845851.27848      2286.56348        47.400    21854426.95446
  89490202.11746      1781.73446        41.300
  20676964.57949 108658195.00749       856.64549        49.200    20676964.25947
  84668735.66747       667.51247        43.900
  21737977.25348 114233912.95148      2400.73448        47.400    21737977.01045
  89013446.96845      1870.69945        39.400
 04 09 01 18 35  0.0000000  0  6G 1G25G14G23G20G16
  20533835.83649 108213803.90449       524.46549        50.000    20533835.86447
  84322398.13847       408.67247        43.800
  21487202.41949 113223763.51849     -1978.75449        49.300    21487201.88746
  88226256.58246     -1541.89146        42.100
  24821740.95444 130746826.94544     -2774.13344        37.300    24821743.60741
 101880571.25341     -2161.67241        30.400
  21828379.47848 114708957.51548      2276.68048        47.400    21828376.67245
  89383531.69245      1774.03145        40.800
  20667398.50349 108607924.23949       819.13349        49.400    20667397.98847
  84629563.63747       638.28147        44.300
  21710729.33848 114090724.55148      2372.33248        47.400    21710728.84244
  88901871.66444      1848.56644        38.700
 04 09 01 18 36  0.0000000  0  6G 1G25G14G23G20G16
  20527938.67249 108182814.43049       508.69149        49.900    20527938.90347
  84298250.50447       396.37947        43.900
  21509873.86349 113342902.26349     -1992.53949        49.100    21509873.29846
  88319091.93746     -1552.63346        41.900
  24853450.93544 130913464.35644     -2780.31344        38.800    24853454.73641
 102010418.35141     -2166.48441        25.000
  21802441.11249 114572650.71849      2266.92249        47.900    21802438.44845
  89277318.65045      1766.43045        40.900
  20658261.89649 108559910.66349       781.50449        49.400    20658261.13647
  84592150.45647       608.96147        43.600
  21683807.36648 113949250.05348      2343.59848        47.100    21683807.09945
  88791631.83545      1826.17645        39.700
 04 09 01 18 37  0.0000000  0  6G 1G25G14G23G20G16
  20522224.10449 108152784.85149       492.49649        49.800    20522224.62347
  84274850.84147       383.76247        44.200
  21532701.89149 113462864.96549     -2005.96949        49.000    21532701.54646
  88412569.33946     -1563.09846        41.800
  24885226.97644 131080446.55044     -2786.36744        37.300    24885230.41741
 102140534.08541     -2171.10941        32.000
  21776615.83248 114436939.10748      2256.76648        47.500    21776613.10445
  89171569.39445      1758.51645        41.100
  20649556.61449 108514164.35949       743.58249        49.400    20649556.10347
  84556503.97847       579.41047        43.700
  21657215.32248 113809509.56648      2314.53548        47.400    21657215.40345
  88682743.21145      1803.53145        40.000
 04 09 01 18 38  0.0000000  0  6G 1G25G14G23G20G16
  20516693.43449 108123720.54549       476.58249        50.000    20516693.64547
  84252203.33947       371.35947        44.000
  21555684.42549 113583639.14649     -2019.37949        48.900    21555684.09246
  88506679.06546     -1573.54746        42.000
  24917068.57644 131247771.92144     -2791.17644        36.900    24917070.85541
 102270917.19241     -2174.92241        29.200
  21750905.57149 114301830.51249      2247.07049        47.800    21750902.90246
  89066290.00846      1750.96146        41.300
  20641284.86149 108470696.27049       705.72749        49.300    20641284.40647
  84522632.73947       549.91447        43.900
  21630957.46248 113671522.91348      2285.32448        47.400    21630957.41145
  88575221.21745      1780.77045        39.000
 04 09 01 18 39  0.0000000  0  6G 1G25G14G23G20G16
  20511347.80449 108095628.30049       459.91849        50.100    20511347.85247
  84230313.28147       358.37547        44.400
  21578819.10349 113705212.93449     -2032.91449        48.800    21578818.77946
  88601411.86746     -1584.09446        41.700
  24948975.19844 131415439.83544     -2797.70344        38.700    24948976.67041
 102401567.20241     -2180.03141        30.900
  21725311.80648 114167334.28148      2236.24248        47.500    21725309.16846
  88961487.79646      1742.52346        41.600
  20633448.71449 108429517.08349       666.98449        49.400    20633448.25647
  84490545.04747       519.72747        43.900
  21605037.33148 113535311.34848      2255.12148        47.700    21605037.17545
  88469082.42745      1757.23445        40.200
 04 09 01 18 40  0.0000000  0  6G 1G25G14G23G20G16
  20506188.23949 108068514.38849       443.89849        50.100    20506188.27947
  84209185.56747       345.89147        44.200
  21602103.52149 113827573.89049     -2045.62949        48.400    21602103.45446
  88696758.05046     -1594.00046        42.500
  24980946.58945 131583449.01745     -2803.12945        39.500    24980948.90942
 102532483.12742     -2184.26242        32.800
  21699836.19649 114033459.08949      2226.12949        47.900    21699833.34545
  88857169.51345      1734.64545        40.800
  20626049.97749 108390636.75049       628.92649        49.200    20626049.54147
  84460248.68047       490.07047        43.800
  21579458.59949 113400894.35249      2225.36749        47.800    21579458.31245
  88364342.00745      1734.05145        39.900
 04 09 01 18 41  0.0000000  0  6G 1G25G14G23G20G16
  20501215.90649 108042385.11149       427.32049        49.900    20501216.20947
  84188825.08647       332.97347        44.300
  21625535.48949 113950710.00449     -2058.64149        48.800    21625535.55346
  88792708.25146     -1604.14146        41.700
  25012982.29244 131751797.92344     -2808.51644        38.500    25012984.59841
 102663663.78941     -2188.46141        31.700
  21674480.50049 113900213.49549      2215.39549        47.800    21674477.83846
  88753341.81346      1726.27746        41.500
  20619090.52849 108354064.80649       590.22349        49.300    20619090.09147
  84431751.05847       459.91047        43.800
  21554224.95149 113268291.74349      2194.89849        47.800    21554224.79945
  88261015.40045      1710.30945        39.800
 04 09 01 18 42  0.0000000  0  6G 1G25G14G23G20G16
  20496432.60849 108017248.61549       410.64549        50.000    20496432.75947
  84169238.20847       319.98047        44.200
  21649113.28349 114074611.52749     -2071.33249        48.600    21649113.36846
  88889254.86646     -1614.02746        41.900
  25045082.68544 131920487.61744     -2813.84444        36.800    25045085.53142
 102795110.02642     -2192.60942        32.900
  21649246.50249 113767608.46249      2204.79349        47.900    21649243.66545
  88650013.24745      1718.01645        40.700
  20612572.79149 108319812.89049       551.46949        49.200    20612572.25847
  84405061.24847       429.71147        44.000
  21529340.61048 113137525.14448      2163.99648        47.600    21529340.72745
  88159119.45845      1686.22745        39.400
 04 09 01 18 43  0.0000000  0  6G 1G25G14G23G20G16
  20491838.12749 107993105.03649       394.20349        49.900    20491838.24647
  84150425.03147       307.16847        44.000
  21672833.18049 114199260.61649     -2083.55549        48.400    21672833.32346
  88986384.00546     -1623.55146        41.800
  25077246.45342 132089510.13442     -2819.86742        34.100    25077248.93241
 102687129.61351     -2197.30541        18.200
  21624135.03949 113635646.69449      2194.10949        47.800    21624132.30246
  88547185.92946      1709.69146        41.300
  20606496.94049 108287884.03449       512.83249        49.200    20606496.38847
  84380181.62247       399.60547        44.100
  21504808.45949 113008607.08049      2133.12949        48.000    21504808.03945
  88058663.91645      1662.17645        40.000
 04 09 01 18 44  0.0000000  0  5G 1G25G23G20G16
  20487432.75049 107969954.31549       377.85949        50.000    20487432.96647
  84132385.51347       294.43447        44.600
  21696691.96749 114324639.18049     -2095.29349        48.400    21696692.05446
  89084081.55646     -1632.69946        41.200
  21599146.43149 113504331.06049      2183.44949        48.000    21599143.78546
  88444862.10746      1701.38746        41.400
  20600863.48349 108258280.63349       474.24649        49.100    20600862.87147
  84357114.03647       369.53947        43.400
  21480630.44749 112881551.15349      2102.21949        48.000    21480629.89245
  87959659.41645      1638.09045        39.600
 04 09 01 18 45  0.0000000  0  5G 1G25G23G20G16
  20483217.90549 107947805.04249       359.15649        50.000    20483218.13547
  84115126.33947       279.85947        44.400
  21720687.77349 114450736.83049     -2109.19949        48.300    21720687.67646
  89182339.44146     -1643.53546        41.400
  21574282.90949 113373672.53349      2170.37549        47.800    21574279.95146
  88343050.31346      1691.19946        41.500
  20595674.62549 108231012.66849       433.20349        49.200    20595673.88147
  84335866.26447       337.55947        43.500
  21456810.64449 112756377.22549      2068.89849        48.100    21456809.96245
  87862121.38145      1612.12545        40.300
 04 09 01 18 46  0.0000000  0  6G 1G13G25G23G20G16
  20479198.09249 107926680.88349       343.74249        50.000    20479198.42147
  84098665.94947       267.84847        44.400
  24889670.20942 130796112.85352      2967.13342        32.800    24889671.50541
 101919056.14651      2312.03141        23.600
  21744821.39549 114577559.88749     -2119.34849        48.200    21744821.18646
  89281162.58446     -1651.44146        41.400
  21549549.43949 113243697.80749      2160.74249        47.800    21549546.62846
  88241771.35646      1683.69146        41.300
  20590934.90549 108206105.43449       395.59449        49.100    20590934.35947
  84316458.03247       308.25047        44.000
  21433355.78849 112633121.39749      2038.41449        48.100    21433355.34745
  87766077.98445      1588.37145        40.600
 04 09 01 18 47  0.0000000  0  5G 1G25G23G20G16
  20475373.74649 107906583.38749       326.88749        50.100    20475373.98347
  84083005.55647       254.71547        44.400
  21769089.83049 114705091.49749     -2130.82049        48.400    21769089.67745
  89380537.83045     -1660.38345        40.800
  21524946.89748 113114411.10748      2149.43448        47.600    21524944.22646
  88141028.51646      1674.87946        41.700
  20586645.06349 108183561.57149       356.59849        49.300    20586644.42847
  84298891.39347       277.86347        44.300
  21410268.45849 112511796.82549      2006.36749        48.200    21410267.78945
  87671539.41945      1563.39845        40.500
 04 09 01 18 48  0.0000000  0  6G 1G13G25G23G20G16
  20471746.31149 107887521.44549       309.57049        50.000    20471746.67647
  84068152.08947       241.21947        44.200
  24821905.95343 130439999.82753      2968.91443        35.900    24821908.67241
 101641589.32051      2313.46141        16.200
  21793491.52549 114833322.64849     -2142.47749        48.100    21793491.32745
  89480458.18445     -1669.46545        41.000
  21500477.61449 112985824.24949      2137.70349        47.900    21500474.93446
  88040830.99246      1665.73846        41.900
  20582806.60149 108163390.09049       316.84849        49.300    20582805.98446
  84283173.35446       246.89146        43.200
  21387552.47449 112392423.68449      1973.69549        48.300    21387551.94245
  87578521.45745      1537.94145        39.600
 04 09 01 18 49  0.0000000  0  6G 1G13G25G23G20G16
  20468310.43049 107869465.85949       291.97749        50.100    20468310.78347
  84054082.81047       227.51247        44.200
  24787999.54344 130261818.95344      2969.78944        38.200    24788000.45541
 101502747.14241      2314.11741        28.500
  21818017.14749 114962206.44649     -2153.98049        47.800    21818017.11646
  89580887.08246     -1678.43046        41.700
  21476136.50249 112857910.60149      2125.75449        48.300    21476133.88546
  87941158.05346      1656.43046        42.300
  20579414.01149 108145562.58149       277.02049        49.100    20579413.40547
  84269281.77847       215.85547        43.900
  21365204.25049 112274983.74149      1940.62549        48.200    21365203.77945
  87487009.86645      1512.17245        40.000
 04 09 01 18 50  0.0000000  0  6G 1G13G25G23G20G16
  20465072.63649 107852450.97849       275.11749        50.000    20465072.95947
  84040824.46747       214.37547        44.300
  24754080.51444 130083572.99144      2971.36744        37.800    24754083.13941
 101363854.34241      2315.35241        31.600
  21842670.21449 115091759.54349     -2164.57849        47.900    21842670.25645
  89681837.52245     -1686.68845        41.000
  21451930.70149 112730708.20049      2114.24249        48.400    21451928.19246
  87842039.34446      1647.45746        42.100
  20576474.12749 108130113.22849       237.80949        49.300    20576473.52147
  84257243.31747       185.30147        44.000
  21343232.71249 112159522.34849      1907.85949        48.200    21343232.18145
  87397040.00145      1486.64145        40.300
 04 09 01 18 51  0.0000000  0  6G 1G13G25G23G20G16
  20462034.35849 107836484.60349       257.01249        50.100    20462034.63847
  84028383.13247       200.26647        44.500
  24720149.65143 129905267.76243      2971.61743        36.600    24720151.74541
 101224915.33341      2315.54741        25.100
  21867448.90548 115221971.88848     -2175.94948        47.700    21867448.96846
  89783301.64546     -1695.54746        41.500
  21427862.35049 112604227.94849      2101.47749        48.500    21427859.69446
  87743483.33946      1637.51246        42.100
  20573988.16949 108117049.76649       197.45749        49.300    20573987.68547
  84247063.98047       153.85947        44.300
  21321641.02849 112046057.91049      1874.11349        48.400    21321640.45445
  87308626.19745      1460.34445        40.300
 04 09 01 18 52  0.0000000  0  6G 1G13G25G23G20G16
  20459195.29849 107821564.65949       240.15249        50.200    20459195.38047
  84016757.20547       187.12947        44.200
  24686207.60144 129726899.82644      2973.34444        38.100    24686209.86541
 101085927.45341      2316.88741        20.700
  21892349.16148 115352823.64448     -2185.98048        47.600    21892349.29845
  89885264.02145     -1703.36345        40.500
  21403931.56849 112478471.19649      2090.15249        48.600    21403928.90446
  87645491.11346      1628.68846        42.300
  20571955.74949 108106368.99049       158.38349        49.100    20571955.33747
  84238741.29247       123.41047        44.100
  21300431.09049 111934598.67549      1840.99249        48.700    21300430.46145
  87221774.88645      1434.53545        40.800
 04 09 01 18 53  0.0000000  0  6G 1G13G25G23G20G16
  20456556.45049 107807697.57049       222.08249        50.000    20456556.56647
  84005951.68547       173.04747        44.200
  24652254.63844 129548474.26144      2974.14144        38.700    24652255.35141
 100946894.67341      2317.50841        29.700
  21917369.05848 115484303.90148     -2196.52048        47.600    21917369.05245
  89987716.13045     -1711.59445        39.600
  21380140.35449 112353447.34149      2077.26649        48.800    21380137.61846
  87548069.95346      1618.64546        42.100
  20570377.59949 108098076.06649       118.16449        49.300    20570377.25847
  84232279.27447        92.07447        44.500
  21279605.84849 111825161.10549      1806.76649        48.800    21279605.15345
  87136498.91645      1407.86745        40.900
 04 09 01 18 54  0.0000000  0  6G 1G13G25G23G20G16
  20454120.14949 107794895.17349       204.58249        50.000    20454120.30747
  83995975.79847       159.41047        44.300
  24618292.11845 129370000.40745      2975.23045        40.200    24618294.18742
 100807824.32142      2318.36742        32.600
  21942507.50748 115616406.58948     -2206.67248        47.700    21942507.33245
  90090653.26245     -1719.50845        40.300
  21356491.31149 112229171.18149      2065.07849        48.400    21356488.62146
  87451231.42846      1609.14846        42.500
  20569255.86949 108092180.82949        78.33649        49.200    20569255.33947
  84227685.57847        61.03947        44.300
  21259169.04349 111717765.80949      1772.93049        48.700    21259168.72646
  87052814.32546      1381.50046        41.400
 04 09 01 18 55  0.0000000  0  6G 1G13G25G23G20G16
  20451886.63749 107783158.55049       186.69549        50.000    20451886.84047
  83986830.37947       145.47347        44.400
  24584320.75845 129191478.05545      2975.69945        40.700    24584321.97541
 100668716.06341      2318.72341        28.700
  21967761.21048 115749115.38548     -2216.78948        47.300    21967760.88145
  90194062.67345     -1727.43445        40.200
  21332985.48749 112105647.68349      2052.45349        48.400    21332982.80346
  87354979.39946      1599.31346        42.400
  20568590.13749 108088682.10149        38.38749        49.100    20568589.62047
  84224959.28347        29.91047        44.100
  21239122.99649 111612423.52749      1738.53549        48.700    21239122.51045
  86970729.49345      1354.69945        41.100
 04 09 01 18 56  0.0000000  0  6G 1G13G25G23G20G16
  20449858.60149 107772500.82649       168.73049        50.100    20449858.69847
  83978525.65947       131.47747        43.900
  24550341.56446 129012918.44446      2976.39846        41.400    24550343.04442
 100529578.83342      2319.27342        32.500
  21993129.15848 115882426.34248     -2226.72748        47.100    21993129.33345
  90297941.31645     -1735.11345        40.200
  21309626.11949 111982893.43349      2039.50049        48.600    21309623.51046
  87259326.77646      1589.21946        42.300
  20568382.29049 108087590.49149        -1.84849        49.100    20568381.86147
  84224108.66747        -1.44147        44.000
  21219471.98849 111509155.91549      1703.85549        48.800    21219471.34546
  86890261.29046      1327.67646        41.500
 04 09 01 18 57  0.0000000  0  6G 1G13G25G23G20G16
  20448036.19849 107762923.23149       150.18449        50.100    20448036.18447
  83971062.59447       117.02347        44.600
  24516355.82545 128834321.34745      2976.40645        40.600    24516356.82842
 100390412.35842      2319.27342        32.300
  22018608.78448 116016322.65548     -2236.90648        47.500    22018609.06645
  90402276.07145     -1742.98845        40.500
  21286414.05749 111860912.70749      2026.14849        48.400    21286411.17046
  87164276.88746      1578.81346        42.300
  20568632.28949 108088904.06549       -42.23849        49.300    20568631.78347
  84225132.22447       -32.91847        44.600
  21200217.21949 111407972.80949      1668.50849        48.800    21200216.72046
  86811417.38046      1300.13346        41.700
 04 09 01 18 58  0.0000000  0  6G 1G13G25G23G20G16
  20446420.67749 107754434.15749       132.55149        50.000    20446420.92347
  83964447.74247       103.28147        44.800
  24482363.86245 128655694.38245      2977.96145        41.000    24482364.87142
 100251222.63942      2320.48442        33.900
  22044198.37648 116150795.99148     -2245.73048        47.100    22044198.47345
  90507060.45545     -1749.92245        41.000
  21263351.23649 111739717.89049      2013.46949        48.300    21263348.51746
  87069839.41046      1568.93446        42.500
  20569340.90149 108092627.84249       -82.02349        49.200    20569340.47747
  84228033.86447       -63.91847        44.100
  21181362.33749 111308890.93249      1633.87549        48.700    21181361.89945
  86734210.81045      1273.14545        41.000
 04 09 01 18 59  0.0000000  0  6G 1G13G25G23G20G16
  20445012.90249 107747035.88749       114.19149        50.100    20445013.23447
  83958682.86347        88.97747        44.800
  24448366.85145 128477038.93145      2977.67245        40.700    24448368.19841
 100112010.72541      2320.26641        28.300
  22069894.83048 116285831.84048     -2255.29748        47.300    22069894.81245
  90612283.16745     -1757.37945        40.900
  21240439.38149 111619315.07249      1999.94949        48.600    21240436.68346
  86976019.07446      1558.39846        42.700
  20570508.02449 108098760.68449      -122.37149        49.100    20570507.55947
  84232812.69847       -95.35547        43.600
  21162909.56149 111211920.65349      1598.41449        48.600    21162908.94446
  86658649.62646      1245.51646        41.400
 04 09 01 19 00  0.0000000  0  6G 1G13G25G23G20G16
  20443814.18049 107740736.62249        95.75449        50.100    20443814.35647
  83953774.34547        74.60947        44.800
  24414365.63345 128298362.03245      2977.87545        40.300    24414366.72242
  99972782.06642      2320.41442        32.500
  22095696.87248 116421421.75548     -2264.36348        47.200    22095696.68445
  90717937.60745     -1764.44145        40.300
  21217680.47649 111499716.64249      1986.49249        48.800    21217677.78946
  86882825.53546      1547.91446        43.100
  20572134.29649 108107307.07949      -162.67249        49.100    20572133.83347
  84239472.22347      -126.76247        43.800
  21144861.68549 111117077.93349      1562.96949        48.700    21144860.83746
  86584746.28746      1217.89546        41.200
 04 09 01 19 01  0.0000000  0  6G 1G13G25G23G20G16
  20442826.32149 107735545.59649        77.09049        49.900    20442826.68847
  83949729.38547        60.06647        44.500
  24380361.71044 128119671.45244      2978.17644        38.600    24380362.88941
  99833542.82341      2320.66041        30.400
  22121602.52048 116557557.06748     -2273.47348        47.000    22121602.55245
  90824017.02245     -1771.53945        40.200
  21195077.24249 111380935.57349      1972.70349        48.700    21195074.53746
  86790268.87646      1537.16846        42.400
  20574220.60249 108118270.97549      -202.96149        49.300    20574220.07147
  84248015.50947      -158.15647        43.900
  21127221.54849 111024378.83749      1527.01649        48.900    21127220.83846
  86512513.29946      1189.87946        41.800
 04 09 01 19 02  0.0000000  0  6G 1G13G25G23G20G16
  20442049.80949 107731465.39549        58.81649        49.900    20442050.16947
  83946550.00947        45.82847        44.200
  24346355.77545 127940969.39245      2978.62545        40.700    24346357.64242
  99694294.61942      2321.00842        34.000
  22147609.52648 116694223.60548     -2282.04748        47.200    22147609.42045
  90930510.39945     -1778.22345        40.300
  21172630.54749 111262978.02249      1959.10249        48.700    21172627.93946
  86698353.94546      1526.57046        42.300
  20576766.64449 108131650.33249      -242.97749        49.200    20576766.10247
  84258440.97247      -189.33647        43.900
  21109991.05449 110933832.83349      1491.19549        48.500    21109990.49345
  86441958.03645      1161.96945        41.100
 04 09 01 19 03  0.0000000  0  6G 1G13G25G23G20G16
  20441486.29949 107728504.17749        40.12149        50.100    20441486.65147
  83944242.55847        31.26247        44.500
  24312349.05045 127762263.23945      2978.33645        40.100    24312350.14841
  99555043.16041      2320.77741        32.200
  22173715.86748 116831413.51948     -2290.71148        47.000    22173715.68645
  91037411.58945     -1784.97345        39.800
  21150342.92749 111145856.14949      1945.10249        48.800    21150340.45846
  86607090.17746      1515.66046        42.200
  20579772.82549 108147447.33349      -283.27749        49.400    20579772.17147
  84270750.30647      -220.73847        44.000
  21093173.05949 110845454.52549      1454.98049        48.600    21093172.63546
  86373091.88246      1133.74646        41.800
 04 09 01 19 04  0.0000000  0  6G 1G13G25G23G20G16
  20441136.80749 107726667.67449        21.23849        50.100    20441137.10247
  83942811.51247        16.54747        44.700
  24278342.51946 127583557.60046      2978.12146        41.200    24278344.74642
  99415792.18842      2320.61342        32.500
  22199919.80348 116969115.59248     -2299.24248        47.100    22199919.55245
  91144711.87045     -1791.62145        39.800
  21128216.38149 111029580.01549      1930.74249        48.900    21128213.51746
  86516485.42646      1504.47346        42.000
  20583239.01149 108165662.50949      -323.72749        49.100    20583238.42147
  84284943.94347      -252.25847        44.100
  21076769.97649 110759255.67349      1418.35249        48.800    21076769.34746
  86305924.00046      1105.20746        41.600
 04 09 01 19 05  0.0000000  0  7G 1G13G 4G25G23G20G16
  20441002.73449 107725962.93049         2.25049        50.000    20441002.96647
  83942262.34947         1.75047        44.300
  24244337.11545 127404859.44645      2978.55145        40.600    24244338.72741
  99276547.01441      2320.94541        28.000
  25214945.91243 132505422.17653       430.18443        34.900

  22226219.18448 117107320.42948     -2307.53548        47.000    22226219.20545
  91252403.90845     -1798.08245        40.200
  21106252.86349 110914160.72449      1916.39849        48.700    21106249.87746
  86426548.34346      1493.29346        41.800
  20587165.36049 108186296.29549      -364.06349        49.100    20587164.91247
  84301022.20747      -283.68847        44.100
  21060784.27949 110675249.11249      1381.80949        48.800    21060783.33146
  86240464.38546      1076.73046        41.700
 04 09 01 19 06  0.0000000  0  6G 1G13G25G23G20G16
  20441084.53149 107726392.78749       -16.73049        50.000    20441084.82247
  83942597.29647       -13.03947        44.600
  24210333.96846 127226171.07146      2978.10246        41.900    24210334.61341
  99137309.40941      2320.59441        31.400
  22252611.94648 117246014.68548     -2315.63748        47.100    22252611.89545
  91360477.30945     -1804.39545        40.300
  21084453.60549 110799605.50049      1901.92649        48.700    21084450.68446
  86337284.56046      1482.01646        42.600
  20591551.33349 108209344.70749      -404.25049        49.000    20591550.99647
  84318981.99347      -315.00447        44.000
  21045217.10949 110593443.50649      1345.05949        48.700    21045216.17046
  86176719.80246      1048.09446        41.600
 04 09 01 19 07  0.0000000  0  6G 1G13G25G23G20G16
  20441385.15149 107727972.62049       -36.05949        50.000    20441385.36147
  83943828.33847       -28.10247        44.200
  24176334.80046 127047507.61146      2977.32046        41.900    24176337.26741
  98998091.32141      2319.99241        30.900
  22279097.58348 117385196.93748     -2323.71548        46.900    22279097.45145
  91468930.97045     -1810.69145        40.000
  21062822.66349 110685934.36649      1887.03949        49.100    21062819.67146
  86248709.67446      1470.41846        42.700
  20596398.33249 108234816.24949      -444.73449        48.900    20596397.93647
  84338829.94447      -346.55147        43.900
  21030072.60949 110513859.45549      1307.77349        48.500    21030071.74146
  86114706.27846      1019.04346        41.700
 04 09 01 19 08  0.0000000  0  6G 1G13G25G23G20G16
  20441903.42149 107730695.64349       -55.10949        50.100    20441903.53147
  83945950.17347       -42.94547        44.400
  24142340.18246 126868861.93246      2977.15646        42.400    24142340.32541
  98858886.92641      2319.85941        31.600
  22305671.68248 117524844.23848     -2331.50848        47.000    22305671.48945
  91577747.02045     -1816.76245        39.800
  21041359.50549 110573144.75549      1872.13349        49.000    21041356.75946
  86160821.69646      1458.80146        43.000
  20601703.74949 108262696.63949      -484.82049        48.900    20601703.43747
  84360554.91747      -377.78547        43.500
  21015350.28149 110436494.36849      1270.67249        48.500    21015349.96546
  86054421.83546       990.12946        42.200
 04 09 01 19 09  0.0000000  0  6G 1G13G25G23G20G16
  20442643.03749 107734582.53249       -74.28549        49.900    20442643.17147
  83948978.92247       -57.88747        44.000
  24108351.88546 126690254.46546      2976.39146        42.600    24108353.28041
  98719712.40841      2319.26241        31.400
  22332335.02148 117664961.67248     -2338.97748        46.700    22332334.85645
  91686929.39245     -1822.58245        39.800
  21020068.81749 110461261.49449      1857.23849        49.100    21020066.14646
  86073639.97446      1447.19546        42.600
  20607470.23249 108292998.61449      -525.05949        49.200    20607469.78847
  84384166.81947      -409.14147        43.800
  21001055.19549 110361373.50849      1233.41049        48.700    21001054.86146
  85995886.11946       961.09446        41.900
 04 09 01 19 10  0.0000000  0  7G 1G13G 4G25G23G20G16
  20443602.51949 107739624.82549       -93.74649        50.000    20443602.74347
  83952907.99547       -73.05147        44.200
  24074369.94446 126511677.10446      2975.92246        42.900    24074370.78141
  98580561.31641      2318.89841        30.100
  25195206.14743 132401711.68553       261.77743        35.600

  22359083.24348 117805524.46348     -2346.48048        46.800    22359083.03945
  91796458.81245     -1828.43045        39.200
  20998950.00049 110350281.14849      1842.07849        49.000    20998947.18646
  85987161.80746      1435.38346        42.700
  20613694.27149 108325705.45049      -565.13749        49.300    20613693.57547
  84409652.65047      -440.37147        43.600
  20987186.72649 110288492.78949      1195.89149        48.800    20987186.16546
  85939095.97446       931.85946        42.000
 04 09 01 19 11  0.0000000  0  6G 1G13G25G23G20G16
  20444785.32049 107745839.84449      -112.72749        49.900    20444785.46847
  83957750.86347       -87.84447        44.400
  24040397.00946 126333147.88746      2975.83246        42.700    24040397.62041
  98441447.79541      2318.82841        30.700
  22385916.57048 117946534.29248     -2353.05148        46.800    22385916.55745
  91906336.56045     -1833.55145        39.400
  20978007.13049 110240225.76749      1827.12549        48.900    20978004.34646
  85901404.39546      1423.73046        42.300
  20620377.51649 108360825.95649      -604.75049        49.300    20620376.80746
  84437019.25546      -471.23846        43.300
  20973748.31449 110217872.94649      1158.78549        49.000    20973747.42946
  85884067.55446       902.94546        41.900
 04 09 01 19 12  0.0000000  0  7G 1G13G 4G25G23G20G16
  20446190.55949 107753224.51249      -133.21949        50.100    20446190.68747
  83963505.14847      -103.80947        44.000
  24006432.80246 126154664.21046      2973.93846        42.600    24006433.22942
  98302369.69042      2317.35242        33.500
  25190007.37842 132374378.87952       193.70742        32.300    25190009.89242
 103148878.95552       150.93842        34.100
  22412831.39448 118087972.69148     -2361.06348        46.800    22412831.38944
  92016548.25644     -1839.79344        38.700
  20957240.58549 110131097.26349      1810.73049        48.800    20957237.69246
  85816369.23446      1410.95746        42.000
  20627517.80449 108398348.35849      -645.75849        49.300    20627517.07547
  84466257.46947      -503.19147        43.800
  20960740.06749 110149514.41849      1119.90649        48.900    20960739.02446
  85830801.19946       872.65246        41.600
 04 09 01 19 13  0.0000000  0  7G 1G13G 4G25G23G20G16
  20447822.66649 107761801.17449      -151.70749        50.100    20447822.82547
  83970188.25547      -118.21547        44.100
  23972480.58446 125976248.57746      2974.14846        42.000    23972482.76542
  98163344.66942      2317.51642        32.900
  25187985.59942 132363756.89552       161.26242        32.600    25187981.95344
 103140595.57954       125.68444        37.800
  22439829.24748 118229847.05648     -2366.92648        46.700    22439829.28545
  92127099.66345     -1844.35945        39.200
  20936655.67749 110022922.72749      1796.10949        49.000    20936652.70946
  85732077.41546      1399.56346        42.200
  20635117.49049 108438285.30449      -684.43849        49.100    20635116.86847
  84497377.15747      -533.33247        43.900
  20948166.92149 110083442.73749      1083.27349        48.900    20948166.03646
  85779316.82046       844.10546        41.600
 04 09 01 19 14  0.0000000  0  7G 1G13G 4G25G23G20G16
  20449679.69649 107771560.48649      -173.06649        50.000    20449679.96347
  83977792.90947      -134.85947        44.300
  23938540.80246 125797892.32346      2971.62146        41.700    23938541.19142
  98024365.83642      2315.54742        33.600
  25186346.23643 132355143.28953
                       126.44943        35.000
  22466905.21048 118372131.67748     -2375.22748        46.300    22466905.09745
  92237970.75445     -1850.82845        39.300
  20916251.49549 109915698.07449      1778.60549        49.000    20916248.35946
  85648525.75946      1385.92246        42.000
  20643173.07149 108480617.61449      -725.98449        49.200    20643172.47246
  84530363.35346      -565.70746        43.200
  20936027.61449 110019650.87949      1043.65249        48.900    20936026.86446
  85729608.91046       813.23046        42.400
 04 09 01 19 15  0.0000000  0  7G 1G13G 4G25G23G20G16
  20451762.99949 107782508.34249      -192.00449        50.100    20451763.45147
  83986323.69847      -149.61747        44.200
  23904612.91246 125619602.06646      2971.30146        41.700    23904614.17543
  97885438.50243      2315.29743        34.800
  25185089.06643 132348526.54553        93.89843        34.700    25185096.20641
 103128784.89951        73.16441        31.300
  22494057.27348 118514817.54048     -2380.97748        46.100    22494057.37945
  92349154.51345     -1855.30945        39.700
  20896029.97349 109809433.61849      1763.38349        48.900    20896026.91446
  85565722.30846      1374.06346        42.300
  20651683.75249 108525341.16249      -764.93849        49.200    20651683.10447
  84565212.84347      -596.05947        43.700
  20924323.74249 109958146.98349      1006.33649        48.800    20924323.14146
  85681683.83446       784.15646        42.000
 04 09 01 19 16  0.0000000  0  7G 1G13G 4G25G23G20G16
  20454075.54849 107794660.45749      -211.66449        50.000    20454075.79647
  83995792.87347      -164.93847        44.000
  23870701.45246 125441394.06846      2970.18046        41.500    23870702.45043
  97746575.20543      2314.42243        35.700
  25184214.45842 132343942.51452
                        60.95742        33.200
  22521285.95048 118657904.25248     -2387.08248        46.600    22521285.99944
  92460650.60844     -1860.06644        38.800
  20875995.15249 109704150.22149      1747.48449        49.000    20875992.21846
  85483683.31846      1361.67246        42.700
  20660650.30949 108572460.44849      -804.27049        49.600    20660649.71747
  84601929.15247      -626.70747        44.000
  20913058.63849 109898948.32249       968.27049        48.900    20913057.97646
  85635555.04246       754.49246        42.600
 04 09 01 19 17  0.0000000  0  7G 1G13G 4G25G23G20G16
  20456618.59349 107808024.42449      -233.61349        50.000    20456618.88747
  84006206.33747      -182.03947        44.100
  23836806.51646 125263277.72646      2966.70746        41.400    23836807.15443
  97607783.35343      2311.71543        34.900
  25183723.34042 132341363.58742        25.71942        32.900    25183730.13241
 103123188.00051        20.03941        28.600
  22548589.80648 118801385.52548     -2395.35548        46.700    22548589.57845
  92572454.14945     -1866.51645        39.000
  20856149.64349 109599861.24549      1729.02749        49.100    20856146.54946
  85402419.19946      1347.28946        42.100
  20670072.01849 108621972.55049      -845.97349        49.200    20670071.55447
  84640509.99447      -659.20347        43.900
  20902234.12549 109842064.42449       927.94549        49.000    20902233.29646
  85591229.96746       723.07046        42.600
 04 09 01 19 18  0.0000000  0  7G 1G13G 4G25G23G20G16
  20459390.59749 107822591.48049      -252.13749        50.000    20459390.90347
  84017557.28447      -196.47347        43.900
  23802928.06346 125085245.84346      2967.18046        43.000    23802929.26442
  97469057.29942      2312.08642        32.800
  25183613.78143 132340773.72253        -6.21143        34.900    25183609.65341
 103122684.30351        -4.84841        21.500
  22575963.79748 118945237.96948     -2399.91048        46.100    22575963.91545
  92684546.91045     -1870.06345        39.200
  20836492.77149 109496563.30849      1713.96149        49.000    20836489.62846
  85321927.31046      1335.55146        42.900
  20679945.42449 108673857.44849      -883.90249        49.600    20679945.01246
  84680939.75546      -688.75846        43.300
  20891848.48349 109787487.78149       891.03549        49.100    20891847.74146
  85548702.74046       694.30946        42.500
 04 09 01 19 19  0.0000000  0  7G 1G13G 4G25G23G20G16
  20462394.92849 107838379.34849      -273.61349        50.000    20462395.00247
  84029859.51347      -213.20747        43.800
  23769069.56946 124907317.08046      2964.26646        43.100    23769070.73542
  97330411.59342      2309.81342        33.400
  25183882.71643 132342188.24843       -40.51643        36.200    25183884.26641
 103123821.47251       -31.58641        16.200
  22603409.19648 119089464.65248     -2407.12548        46.500    22603409.28445
  92796931.29845     -1875.68445        39.400
  20817028.75949 109394279.69149      1695.87549        49.000    20817025.67146
  85242225.81146      1321.45746        42.900
  20690271.56249 108728121.04849      -924.48449        49.200    20690271.03647
  84723223.04847      -720.37947        43.800
  20881905.44849 109735237.27249       851.12949        49.000    20881904.88546
  85507988.08146       663.21546        42.200
 04 09 01 19 20  0.0000000  0  7G 1G13G 4G25G23G20G16
  20465633.88749 107855400.38049      -294.19549        49.800    20465633.96947
  84043122.64647      -229.24647        43.600
  23735232.87947 124729505.70747      2962.22347        43.600    23735234.04343
  97191857.38443      2308.22343        35.600
  25184531.93742 132345607.48652       -73.34442        33.100    25184533.50441
 103126448.50251       -57.15241        28.600
  22630925.34548 119234062.86648     -2413.24648        46.300    22630925.59045
  92909605.17345     -1880.45345        39.100
  20797761.23449 109293028.00749      1678.65649        49.300    20797758.23946
  85163328.40746      1308.03946        43.000
  20701050.16449 108784763.59549      -964.03949        49.200    20701049.90147
  84767360.07247      -751.20347        44.100
  20872407.46049 109685325.32649       812.07449        48.900    20872406.68146
  85469095.67846       632.78146        42.400
 04 09 01 19 21  0.0000000  0  6G 1G13G25G23G20G16
  20469107.71349 107873655.23349      -314.18449        49.900    20469107.86947
  84057347.19847      -244.82047        43.900
  23701419.31847 124551813.85747      2960.85947        45.000    23701419.81942
  97053396.27242      2307.16042        33.900
  22658509.75548 119379019.52248     -2418.62548        46.400    22658509.98645
  93022558.37045     -1884.64545        40.000
  20778691.34849 109192814.69949      1661.83249        49.200    20778688.36746
  85085240.14246      1294.93046        43.300
  20712279.46649 108843773.40049     -1002.78149        49.300    20712279.09646
  84813341.71746      -781.39146        43.300
  20863354.66249 109637752.71549       773.82049        49.000    20863353.73746
  85432026.13946       602.97346        42.400
 04 09 01 19 22  0.0000000  0  7G 1G13G 4G25G23G20G16
  20472813.80649 107893130.47649      -335.33249        50.100    20472813.83147
  84072522.70247      -261.30147        43.900
  23667626.35647 124374230.30047      2958.29747        45.000    23667627.35143
  96915019.57543      2305.16443        36.200
  25186964.05742 132358391.31152      -140.36342        33.400    25186966.40041
 103136418.28951      -109.39141        26.200
  22686156.95048 119524305.96648     -2424.74648        46.000    22686157.03744
  93135768.52244     -1889.41444        38.500
  20759817.38949 109093631.67449      1643.89849        49.100    20759814.62746
  85007954.69646      1280.95746        43.000
  20723953.99149 108905123.97249     -1042.62149        49.300    20723953.76347
  84861147.32347      -812.43447        43.900
  20854744.34749 109592505.60649       734.09049        49.000    20854743.66446
  85396768.67446       572.01646        42.700
 04 09 01 19 23  0.0000000  0  6G 1G13G25G23G20G16
  20476757.98449 107913857.34949      -355.15249        49.900    20476758.03047
  84088673.49547      -276.74647        43.700
  23633860.28047 124196788.43947      2957.00447        45.200    23633860.90643
  96776753.28443      2304.15643        35.300
  22713870.29548 119669940.73848     -2429.45348        46.000    22713870.40645
  93249250.11545     -1893.08245        39.600
  20741146.57849 108995516.43549      1627.16849        49.200    20741143.90347
  84931501.29147      1267.91847        43.600
  20736077.60949 108968833.85949     -1080.68449        49.400    20736077.29147
  84910791.36247      -842.09447        43.700
  20846582.58949 109549615.27649       695.92249        48.900    20846581.83346
  85363347.65746       542.27346        42.900
 04 09 01 19 24  0.0000000  0  7G 1G13G 4G25G23G20G16
  20480940.61449 107935837.94149      -378.01649        49.700    20480940.91047
  84105801.22347      -294.56347        43.700
  23600122.06448 124019492.35948      2952.60548        45.900    23600122.80143
  96638600.57243      2300.72743        35.700
  25190901.69041 132379070.11351      -205.93841        32.200    25190917.11244
 103152605.85754      -160.47344        37.200
  22741647.41848 119815910.59848     -2436.76248        46.000    22741647.60445
  93362992.79345     -1898.77745        39.800
  20722680.42949 108898476.81949      1607.05149        49.200    20722677.77946
  84855886.02546      1252.24646        43.100
  20748648.05349 109034891.31949     -1121.61749        49.200    20748647.65247
  84962264.66547      -873.99247        43.400
  20838869.35649 109509082.17749       654.70749        48.700    20838868.50446
  85331763.45646       510.15646        42.600
 04 09 01 19 25  0.0000000  0  6G 1G13G25G23G20G16
  20485361.53549 107959070.05249      -395.50849        49.800    20485361.63446
  84123904.15146      -308.19146        43.300
  23566411.27948 123842342.31848      2953.19548        45.600    23566411.93944
  96500561.67344      2301.18844        36.800
  22769485.55648 119962200.44148     -2438.69948        45.800    22769485.84344
  93476984.81844     -1900.28944        38.300
  20704419.76849 108802516.18849      1592.42649        49.300    20704417.02446
  84781111.51646      1240.84846        42.900
  20761662.13649 109103280.23849     -1157.10949        49.300    20761661.77846
  85015554.70746      -901.64846        43.100
  20831604.13049 109470902.90449       618.84449        49.000    20831603.25046
  85302013.40146       482.21146        43.000
 04 09 01 19 26  0.0000000  0  6G 1G13G25G23G20G16
  20490020.69149 107983553.86849      -418.86749        49.800    20490020.87746
  84142982.43846      -326.39546        43.200
  23532729.17747 123665342.01247      2948.43847        45.300    23532730.07043
  96362639.45543      2297.48043        35.000
  22797381.84148 120108796.55448     -2446.23448        46.100    22797382.02044
  93591215.51144     -1906.16044        38.500
  20686365.89049 108707641.63449      1571.57849        49.400    20686362.88746
  84707183.30646      1224.60246        43.200
  20775117.06149 109173986.83949     -1198.06649        49.400    20775116.78147
  85070650.71847      -933.56347        43.400
  20824786.56249 109435076.20049       577.05149        48.800    20824785.74946
  85274096.51946       449.64846        42.900
 04 09 01 19 27  0.0000000  0  7G 1G13G 4G25G23G20G16
  20494921.81749 108009309.66149      -439.34449        49.600    20494922.05047
  84163051.87747      -342.34847        43.700
  23499079.80847 123488513.72747      2946.03547        45.500    23499080.86744
  96224851.28844      2295.60944        36.700
  25199608.62842 132424832.13552      -302.65642        33.700

  22825338.18348 120255706.64148     -2450.69948        46.100    22825338.14545
  93705690.84445     -1909.64145        39.100
  20668523.63749 108613879.27749      1553.85949        49.600    20668520.60047
  84634121.74047      1210.79747        43.400
  20789014.37049 109247017.48549     -1236.05149        49.400    20789013.98546
  85127557.68046      -963.16046        43.000
  20818419.98849 109401620.41949       538.30949        48.900    20818419.35446
  85248027.10646       419.45746        43.000
 04 09 01 19 28  0.0000000  0  7G 1G13G 4G25G23G20G16
  20500065.10549 108036337.52149      -460.84449        49.700    20500065.23647
  84184112.54747      -359.10247        43.600
  23465463.80747 123311861.37447      2942.86747        44.900    23465464.26743
  96087200.19243      2293.14143        35.300
  25203251.84843 132443991.98953      -335.49643        35.700    25203251.19341
 103203111.52051      -261.43041        30.900
  22853351.32148 120402916.93648     -2455.76248        46.000    22853351.35344
  93820400.11444     -1913.58244        38.500
  20650893.97349 108521235.63149      1534.89149        49.300    20650891.22447
  84561931.90647      1196.01647        43.800
  20803351.16649 109322356.79349     -1274.71149        49.300    20803350.73346
  85186263.59746      -993.28546        43.000
  20812504.35149 109370533.52249       498.59049        49.100    20812503.51446
  85223803.57746       388.50846        42.600
 04 09 01 19 29  0.0000000  0  7G 1G13G 4G25G23G20G16
  20505451.01949 108064640.12349      -483.39549        49.900    20505451.11147
  84206166.51947      -376.67647        43.600
  23431882.18647 123135390.10547      2938.72347        45.300    23431883.25342
  95949690.23042      2289.91042        34.100
  25207262.61542 132465071.12642      -367.94942        34.200

  22881419.34347 120550416.65647     -2461.75847        45.400    22881419.67945
  93935334.89745     -1918.25845        39.900
  20633478.91349 108429719.62249      1514.76649        49.300    20633476.23947
  84490620.75347      1180.33247        44.100
  20818124.64749 109399992.11449     -1314.07049        49.300    20818124.19646
  85246758.61546     -1023.95346        42.800
  20807039.51549 109341814.92549       457.80149        49.100    20807038.45146
  85201425.47646       356.72746        42.600
 04 09 01 19 30  0.0000000  0  6G 1G13G25G23G20G16
  20511080.99049 108094225.54649      -503.91449        50.000    20511081.00547
  84229220.08347      -392.66447        43.700
  23398337.55847 122959111.65647      2936.23047        44.900    23398338.53943
  95812330.48543      2287.96943        35.900
  22909541.89448 120698201.36048     -2465.46948        45.700    22909542.30145
  94050491.75945     -1921.14845        39.400
  20616281.30849 108339345.41449      1496.67649        49.200    20616278.55647
  84420199.31747      1166.23847        43.700
  20833333.57949 109479916.28349     -1351.17649        49.400    20833333.03446
  85309037.15046     -1052.86746        42.700
  20802026.21149 109315469.68249       419.28549        49.200    20802025.15246
  85180896.75046       326.71146        42.700
 04 09 01 19 31  0.0000000  0  6G 1G13G25G23G20G16
  20516956.95049 108125104.18149      -525.37149        49.800    20516957.09547
  84253281.34947      -409.38347        43.600
  23364832.34148 122783039.81948      2932.94548        45.700    23364833.29143
  95675131.75043      2285.41043        35.900
  22937718.28147 120846268.61447     -2469.93847        45.500    22937718.66744
  94165868.77744     -1924.62944        37.300
  20599304.32849 108250130.30849      1477.12149        49.300    20599301.35247
  84350681.07647      1151.00047        43.700
  20848977.23349 109562123.81649     -1389.03949        49.300    20848976.74746
  85373094.92946     -1082.37146        42.900
  20797465.90149 109291505.02349       379.63749        49.100    20797464.88646
  85162223.00946       295.81646        42.700
 04 09 01 19 32  0.0000000  0  6G 1G13G25G23G20G16
  20523077.33249 108157267.47949      -547.18049        49.800    20523077.66247
  84278343.65347      -426.37947        43.700
  23331365.45047 122607170.52447      2929.06347        45.300    23331365.90343
  95538090.82043      2282.38343        35.400
  22965944.58747 120994597.73247     -2474.66047        45.400    22965944.60144
  94281449.85944     -1928.30944        38.300
  20582547.48649 108162072.61849      1457.59049        49.300    20582544.47847
  84282064.71147      1135.78147        43.600
  20865050.72949 109646590.02749     -1426.88349        49.300    20865050.19146
  85438912.71846     -1111.85946        42.600
  20793356.13249 109269908.76449       339.93449        49.000    20793355.26346
  85145394.77546       264.87946        43.000
 04 09 01 19 33  0.0000000  0  6G 1G13G25G23G20G16
  20529445.94749 108190734.10249      -568.79749        49.900    20529446.19047
  84304421.53147      -443.22347        44.100
  23297941.36248 122431526.22048      2925.51648        45.800    23297942.00643
  95401225.21143      2279.62143        34.700
  22994221.67147 121143194.58847     -2478.94147        45.300    22994221.67044
  94397239.57644     -1931.64544        38.300
  20566015.54649 108075197.44949      1438.01649        49.300    20566012.68347
  84214369.78147      1120.52747        43.800
  20881554.60149 109733317.42449     -1464.47349        49.600    20881553.83046
  85506492.47146     -1141.15246        42.700
  20789699.87249 109250695.27149       300.30149        48.800    20789698.92446
  85130423.24246       233.99646        42.800
 04 09 01 19 34  0.0000000  0  6G 1G13G25G23G20G16
  20536063.08649 108225507.92649      -590.27349        49.700    20536063.50247
  84331518.00947      -459.95747        43.800
  23264561.55647 122256114.64547      2921.44147        44.700    23264562.67743
  95264540.94643      2276.44543        35.000
  23022548.33848 121292051.36548     -2483.01648        45.600    23022548.37044
  94513231.83044     -1934.82044        38.100
  20549710.83849 107989515.95249      1418.07049        49.200    20549708.05447
  84147604.99347      1104.98847        44.000
  20898486.05549 109822293.31949     -1501.49249        49.300    20898485.48846
  85575824.29146     -1169.99646        42.700
  20786497.01049 109233864.36949       260.81649        49.000    20786496.08346
  85117308.27046       203.23046        42.800
 04 09 01 19 35  0.0000000  0  6G 1G13G25G23G20G16
  20542929.96449 108261593.24849      -612.24649        50.000    20542930.10147
  84359636.42947      -477.07847        43.700
  23231227.66247 122080945.33747      2917.39147        44.700    23231228.47143
  95128045.46343      2273.28943        35.100
  23050922.65247 121441160.49447     -2487.21947        45.000    23050923.13644
  94629420.71344     -1938.09844        37.900
  20533635.38549 107905039.00449      1397.85949        49.300    20533632.58247
  84081778.82347      1089.23847        44.000
  20915842.89049 109913504.70149     -1538.63749        49.200    20915842.52846
  85646898.06146     -1198.94146        42.400
  20783747.53249 109219415.57149       221.04749        48.900    20783746.49446
  85106049.47846       172.24246        43.200
 04 09 01 19 36  0.0000000  0  6G 1G13G25G23G20G16
  20550047.32549 108298994.83649      -634.39149        49.900    20550047.26547
  84388780.51247      -494.33247        43.800
  23197941.85047 121906027.48647      2913.00447        44.500    23197942.27943
  94991745.92443      2269.87143        34.800
  23079343.35447 121590514.50947     -2491.37947        45.100    23079344.32144
  94745800.40144     -1941.33644        38.000
  20517791.65849 107821779.11649      1377.33249        49.400    20517788.74747
  84016901.00747      1073.24247        44.200
  20933623.12049 110006939.56049     -1575.79749        49.300    20933622.50746
  85719704.40346     -1227.89846        42.300
  20781451.32249 109207348.69649       181.19949        49.100    20781450.22746
  85096646.74146       141.19146        42.800
 04 09 01 19 37  0.0000000  0  6G 1G13G25G23G20G16
  20557414.92149 108337711.78849      -656.11349        49.900    20557414.69347
  84418949.55247      -511.26247        43.400
  23164704.49047 121731365.19247      2908.92647        44.300    23164705.21643
  94855645.50343      2266.69143        35.900
  23107809.24548 121740101.16448     -2494.81348        46.000    23107809.55544
  94862361.37244     -1944.01244        37.700
  20502180.55749 107739742.24649      1357.11749        49.400    20502177.71247
  83952976.19647      1057.49247        44.000
  20951822.66749 110102579.28649     -1612.16849        49.500    20951822.38946
  85794228.80946     -1256.23846        42.900
  20779607.22349 109197657.71849       141.84449        49.000    20779606.06746
  85089095.34746       110.52346        42.900
 04 09 01 19 38  0.0000000  0  6G 1G13G25G23G20G16
  20565034.18049 108377751.19049      -678.31649        50.000    20565034.15547
  84450149.06447      -528.56347        43.600
  23131518.52947 121556970.60347      2904.14547        44.400    23131518.82842
  94719753.66742      2262.96542        34.300
  23136318.61948 121889916.34348     -2498.75848        45.800    23136318.44144
  94979100.38944     -1947.08644        37.900
  20486804.89749 107658942.59949      1336.22749        49.200    20486801.91147
  83890015.44747      1041.21147        43.400
  20970439.97949 110200413.18549     -1648.83249        49.200    20970439.72246
  85870462.96946     -1284.80946        42.700
  20778215.16949 109190343.54749       102.12149        48.700    20778214.23846
  85083396.00346        79.57046        43.100
 04 09 01 19 39  0.0000000  0  6G 1G13G25G23G20G16
  20572906.75049 108419121.82749      -700.70749        49.700    20572906.77647
  84482385.90947      -546.00847        43.700
  23098386.20647 121382857.68547      2899.39847        44.400    23098386.39343
  94584081.32443      2259.27043        36.300
  23164870.32247 122039957.43047     -2502.49247        45.400    23164870.55644
  95096015.46344     -1949.99644        38.000
  20471667.54449 107579395.99649      1315.28949        49.300    20471664.57647
  83828031.09947      1024.89847        44.000
  20989473.00249 110300432.17649     -1685.05149        49.200    20989472.80446
  85948399.80746     -1313.03146        42.500
  20777276.09849 109185409.01549        62.35549        49.100    20777275.39546
  85079550.91846        48.58646        42.900
 04 09 01 19 40  0.0000000  0  6G 1G13G25G23G20G16
  20581035.17749 108461837.34349      -722.71149        49.700    20581035.26447
  84515670.71747      -563.15647        43.600
  23065310.76747 121209045.88947      2894.79347        44.800    23065311.25742
  94448643.64142      2255.68042        34.000
  23193465.23947 122190227.04147     -2505.85247        45.100    23193465.94444
  95213108.60144     -1952.61344        37.600
  20456773.00449 107501124.11249      1294.26649        49.500    20456770.15847
  83767040.03747      1008.51647        43.900
  21008920.82549 110402631.20949     -1720.74649        49.400    21008920.55046
  86028035.36346     -1340.84446        41.800
  20776791.51649 109182861.81549        23.12149        49.100    20776790.61646
  85077566.09346        18.01246        42.900
 04 09 01 19 41  0.0000000  0  6G 1G13G25G23G20G16
  20589416.14849 108505879.53749      -745.35249        49.600    20589416.27347
  84549989.29547      -580.79747        43.600
  23032290.44147 121035522.21547      2889.42647        44.900    23032290.47942
  94313430.46742      2251.49642        34.200
  23222098.73147 122340696.16847     -2509.68447        45.300    23222099.37244
  95330357.19144     -1955.60244        37.700
  20442118.71649 107424115.42649      1272.69549        49.400    20442115.77847
  83707033.27447       991.70747        44.000
  21028776.67649 110506973.60449     -1756.89849        49.300    21028776.38046
  86109341.06746     -1369.01646        42.100
  20776756.36849 109182676.56449       -16.77749        49.000    20776755.38146
  85077421.75546       -13.07846        43.200
 04 09 01 19 42  0.0000000  0  6G 1G13G25G23G20G16
  20598054.03449 108551272.18549      -767.66049        49.700    20598054.14146
  84585360.17346      -598.18046        43.300
  22999330.04447 120862316.19547      2884.27747        44.800    22999330.60043
  94178464.83843      2247.48443        35.300
  23250772.74248 122491377.45548     -2513.06648        45.900    23250773.13144
  95447771.11644     -1958.23844        38.500
  20427710.79849 107348401.22049      1251.07449        49.500    20427707.51347
  83648035.20047       974.85947        44.200
  21049041.17849 110613463.92349     -1792.59049        49.400    21049040.79846
  86192320.48546     -1396.82846        41.700
  20777173.62449 109184869.81749       -56.29749        48.800    20777172.74246
  85079130.80046       -43.87146        43.100
 04 09 01 19 43  0.0000000  0  6G 1G13G25G23G20G16
  20606948.63549 108598013.60649      -790.49649        49.700    20606949.08847
  84621782.05147      -615.97347        43.800
  22966431.35947 120689432.72347      2878.32047        44.600    22966431.93243
  94043750.53043      2242.84443        35.700
  23279484.71847 122642258.47347     -2516.42647        45.500    23279484.71244
  95565340.65244     -1960.85544        37.600
  20413550.29249 107273987.19349      1229.16849        49.300    20413547.13247
  83590050.26047       957.78947        44.200
  21069710.25149 110722081.48249     -1827.96549        49.000    21069710.17946
  86276957.48846     -1424.39146        42.100
  20778041.87849 109189432.76949       -95.89549        48.900    20778041.00846
  85082686.36546       -74.72746        43.300
 04 09 01 19 44  0.0000000  0  6G 1G13G25G23G20G16
  20616100.89649 108646109.05049      -812.72349        49.700    20616101.28147
  84659259.01347      -633.29347        43.700
  22933596.18547 120516883.12147      2873.14547        44.900    22933596.54743
  93909296.36743      2238.81343        34.900
  23308233.61747 122793335.38047     -2519.36347        45.400    23308233.46444
  95683062.83444     -1963.14544        36.800
  20399639.68449 107200887.05249      1207.55549        49.300    20399636.71547
  83533089.12747       940.94947        44.100
  21090781.73949 110832812.20249     -1862.82849        49.200    21090781.58446
  86363241.12446     -1451.55946        41.700
  20779360.78649 109196363.33649      -134.97349        48.800    20779359.72546
  85088086.82046      -105.17646        43.000
 04 09 01 19 45  0.0000000  0  6G 1G13G25G23G20G16
  20625511.96149 108695564.14049      -835.75049        49.600    20625512.28647
  84697795.43147      -651.23847        44.000
  22900827.06748 120344680.38948      2866.93848        45.900    22900827.11143
  93775112.50243      2233.97343        35.100
  23337018.75147 122944603.41147     -2522.96147        44.800    23337018.88444
  95800933.96344     -1965.94544        37.300
  20385981.85849 107129114.51849      1184.82049        49.200    20385978.68047
  83477162.49247       923.23447        44.200
  21112252.67949 110945642.94149     -1898.09449        49.100    21112252.34945
  86451161.12345     -1479.03945        41.000
  20781129.76949 109205659.55949      -174.76249        48.900    20781128.84646
  85095330.65646      -136.18046        42.800
 04 09 01 19 46  0.0000000  0  6G 1G13G25G23G20G16
  20635182.02849 108746381.28449      -858.12549        49.400    20635182.48247
  84737393.20047      -668.67247        43.600
  22868125.79248 120172833.88948      2861.23448        45.700    22868126.06143
  93641206.20743      2229.53143        34.900
  23365838.85647 123096054.74347     -2525.50047        45.100    23365839.65044
  95918947.90844     -1967.92644        37.200
  20372578.54949 107058679.76549      1162.93449        49.600    20372575.45647
  83422278.27747       906.18047        44.400
  21134119.90849 111060556.21849     -1932.34849        48.800    21134119.68845
  86540703.88345     -1505.73045        41.100
  20783347.75049 109217315.48349      -213.75849        48.900    20783346.88347
  85104413.20647      -166.56647        43.400
 04 09 01 19 47  0.0000000  0  6G 1G13G25G23G20G16
  20645111.38049 108798560.65849      -881.20349        49.400    20645111.75746
  84778052.43346      -686.65646        43.300
  22835493.70248 120001351.36448      2854.68048        45.800    22835493.63343
  93507583.51643      2224.42243        36.200
  23394692.78547 123247681.24647     -2528.64547        45.200    23394693.44043
  96037098.35543     -1970.37543        36.600
  20359431.52449 106989591.19349      1140.01649        49.600    20359428.31047
  83368443.03847       888.32047        44.300
  21156379.93249 111177532.38449     -1966.93449        49.200    21156379.52245
  86631854.08345     -1532.68045        41.100
  20786013.43349 109231323.63949      -253.28149        48.900    20786012.54547
  85115328.65647      -197.36347        43.700
 04 09 01 19 48  0.0000000  0  6G 1G13G25G23G20G16
  20655302.44349 108852114.43249      -903.79349        49.700    20655302.71447
  84819782.62647      -704.25847        43.500
  22802934.30448 119830251.18848      2848.75048        46.100    22802934.52943
  93374258.76843      2219.80143        35.200
  23423580.08547 123399484.75347     -2531.39147        44.800    23423580.74944
  96155386.73444     -1972.51644        37.000
  20346544.38849 106921868.84749      1117.39149        49.500    20346541.19247
  83315672.39047       870.69147        44.400
  21179030.70549 111296563.13649     -2000.67249        48.800    21179030.58946
  86724605.24746     -1558.96946        41.700
  20789127.20049 109247686.40349      -292.07449        48.900    20789126.30146
  85128078.87646      -227.59446        43.300
 04 09 01 19 49  0.0000000  0  6G 1G13G25G23G20G16
  20665755.07249 108907041.98649      -926.98849        49.700    20665755.10747
  84862583.29947      -722.33247        43.400
  22770449.01948 119659541.13348      2841.82048        45.800    22770449.31142
  93241238.01142      2214.40242        34.400
  23452499.28847 123551455.49947     -2534.29747        45.100    23452499.79643
  96273805.42643     -1974.78143        35.800
  20333918.61649 106855519.68649      1094.33649        49.600    20333915.53947
  83263971.75447       852.72747        44.400
  21202068.53249 111417627.68849     -2034.79749        48.800    21202068.25945
  86818941.21445     -1585.55945        41.000
  20792687.26849 109266394.48949      -331.30949        49.100    20792686.24246
  85142656.61146      -258.16446        42.900
 04 09 01 19 50  0.0000000  0  6G 1G13G25G23G20G16
  20676469.41149 108963346.85249      -950.10549        49.700    20676469.50846
  84906457.19646      -740.34446        43.000
  22738040.40748 119489232.10748      2834.87148        46.100    22738040.14043
  93108529.72543      2208.98843        35.600
  23481449.27147 123703587.75047     -2536.99647        45.400    23481449.84143
  96392349.94243     -1976.88343        36.600
  20321556.35849 106790555.67649      1071.06649        49.700    20321553.11447
  83213350.44747       834.59447        44.800
  21225490.15149 111540708.74249     -2068.16849        49.100    21225489.82546
  86914848.45446     -1611.56346        41.400
  20796692.34749 109287441.69849      -370.43849        48.700    20796691.34746
  85159057.03346      -288.65646        43.100
 04 09 01 19 51  0.0000000  0  6G 1G13G25G23G20G16
  20687447.18949 109021035.27349      -972.79349        49.400    20687447.29047
  84951409.19547      -758.02347        43.500
  22705710.71648 119319338.59248      2828.20348        46.300    22705710.60543
  92976145.22543      2203.79343        35.500
  23510429.11747 123855879.22347     -2539.39847        44.100    23510430.02644
  96511018.53444     -1978.75444        37.900
  20309460.43249 106726991.46249      1047.77349        49.600    20309457.28047
  83163819.89947       816.44547        45.000
  21249292.87749 111665792.16749     -2101.15249        48.900    21249292.54345
  87012316.00145     -1637.26645        40.900
  20801141.94849 109310825.31149      -409.11749        48.900    20801141.08346
  85177278.03946      -318.79746        43.000
 04 09 01 19 52  0.0000000  0  6G 1G13G25G23G20G16
  20698688.74849 109080110.53349      -996.05149        49.700    20698689.13047
  84997441.83847      -776.14847        43.600
  22673462.22948 119149872.32048      2820.94148        46.700    22673462.39043
  92844093.64143      2198.13343        35.100
  23539438.64847 124008324.64547     -2542.03947        45.400    23539439.47343
  96629807.09943     -1980.81343        36.600
  20297633.21149 106664839.03349      1024.23449        49.800    20297630.17147
  83115389.44047       798.10247        45.100
  21273473.14449 111792860.28549     -2134.09049        48.900    21273472.88646
  87111330.04446     -1662.93046        41.400
  20806035.25149 109336538.95849      -447.82849        49.000    20806034.27446
  85197314.64546      -348.96146        43.200
 04 09 01 19 53  0.0000000  0  6G 1G13G25G23G20G16
  20710194.42649 109140572.94549     -1019.20349        49.500    20710194.62246
  85044555.39446      -794.18846        43.000
  22641297.08848 118980842.44948      2813.48848        47.100    22641296.89443
  92712382.11743      2192.32443        35.300
  23568476.10547 124160915.90847     -2544.34447        44.900    23568476.65244
  96748709.30644     -1982.60944        37.100
  20286076.41449 106604106.96149      1000.25449        49.900    20286073.27047
  83068065.75447       779.41447        44.900
  21298027.21949 111921892.69749     -2166.70749        48.800    21298027.11945
  87211874.70745     -1688.34845        41.000
  20811369.89349 109364572.95749      -486.44149        48.900    20811368.82246
  85219159.31846      -379.04746        42.900
 04 09 01 19 54  0.0000000  0  6G 1G13G25G23G20G16
  20721965.45349 109202429.79449     -1042.81349        49.600    20721965.73546
  85092755.50346      -812.58646        43.000
  22609217.79648 118812264.81048      2805.46948        46.300    22609217.76544
  92581022.98144      2186.07844        37.000
  23597540.95247 124313652.62347     -2546.89147        44.900    23597541.65744
  96867724.83244     -1984.59444        36.900
  20274792.77949 106544811.11549       976.06349        49.800    20274789.73047
  83021861.20047       760.56647        45.000
  21322952.41549 112052875.33749     -2199.34849        48.700    21322952.45346
  87313939.02746     -1713.78146        41.300
  20817145.47049 109394924.19149      -525.19549        48.900    20817144.53347
  85242809.63447      -409.24647        43.400
 04 09 01 19 55  0.0000000  0  6G 1G13G25G23G20G16
  20734002.55149 109265684.79949     -1065.81349        49.600    20734002.72746
  85142045.09446      -830.50846        42.900
  22577226.71748 118644152.22848      2797.90648        46.100    22577227.00944
  92450026.23444      2180.18444        37.000
  23626632.76647 124466530.63247     -2549.08247        45.200    23626633.53344
  96986850.44244     -1986.30144        37.300
  20263784.81749 106486964.13549       951.93849        49.700    20263781.80447
  82976785.64847       741.76647        45.100
  21348245.27649 112185790.41349     -2231.25449        48.600    21348245.34545
  87417509.14445     -1738.64545        40.800
  20823360.79749 109427585.72149      -563.48449        48.900    20823359.94146
  85268260.17246      -439.08246        43.300
 04 09 01 19 56  0.0000000  0  6G 1G13G25G23G20G16
  20746305.50149 109330337.50249     -1089.01649        49.700    20746305.84346
  85192423.79746      -848.58646        42.900
  22545326.24448 118476514.22348      2790.09448        46.400    22545326.09544
  92319399.28444      2174.09844        37.100
  23655750.19847 124619542.18747     -2551.01647        44.900    23655750.58743
  97106080.13343     -1987.80943        35.600
  20253054.11649 106430573.89249       927.89849        49.900    20253051.11447
  82932845.20447       723.03547        45.300
  21373901.91049 112320616.48249     -2262.81349        48.600    21373902.15446
  87522568.34246     -1763.23446        41.700
  20830013.66649 109462546.30649      -601.67249        49.000    20830012.68246
  85295502.18046      -468.84046        43.100
 04 09 01 19 57  0.0000000  0  6G 1G13G25G23G20G16
  20758875.25449 109396391.41349     -1112.35249        49.600    20758875.51046
  85243894.36346      -866.77046        43.000
  22513518.71648 118309363.87248      2781.76248        47.000    22513518.60044
  92189152.31444      2167.60244        37.900
  23684891.75047 124772683.04847     -2553.31347        44.700    23684892.36743
  97225410.58143     -1989.59843        35.500
  20242602.99549 106375653.40049       903.08249        49.700    20242599.87547
  82890050.02447       703.69547        45.100
  21399919.08149 112457335.86849     -2294.16849        48.700    21399919.01245
  87629102.84345     -1787.66845        40.600
  20837102.78349 109499799.27049      -639.82849        49.100    20837101.72046
  85324530.46646      -498.57046        43.000
 04 09 01 19 58  0.0000000  0  6G 1G13G25G23G20G16
  20771712.35049 109463851.70549     -1136.32849        49.500    20771712.87346
  85296460.79546      -885.45346        42.700
  22481806.62948 118142716.02348      2773.00048        46.800    22481806.56543
  92059296.92043      2160.77743        36.600
  23714057.60947 124925950.61447     -2555.73847        44.900    23714058.14243
  97344839.75643     -1991.48843        36.000
  20232434.31849 106322216.32449       878.03149        49.800    20232431.16647
  82848410.74847       684.17647        44.700
  21426293.04749 112595931.59149     -2325.69549        48.500    21426292.95245
  87737099.42345     -1812.23445        41.000
  20844626.74749 109539338.30449      -678.16049        48.900    20844625.67246
  85355340.09946      -528.44146        43.200
 04 09 01 19 59  0.0000000  0  6G 1G13G25G23G20G16
  20784817.69949 109532720.40149     -1159.66849        49.400    20784818.08146
  85350124.70846      -903.64146        42.800
  22450192.44548 117976582.79248      2764.34848        47.000    22450192.61044
  91929842.51944      2154.03544        37.200
  23743246.85347 125079340.22147     -2557.56347        44.900    23743247.30343
  97464364.02743     -1992.91043        35.500
  20222549.79249 106270272.95549       853.00849        49.800    20222546.46247
  82807935.39847       664.68047        44.800
  21453020.07849 112736383.65449     -2356.34449        48.200    21453020.23245
  87846542.50945     -1836.11345        40.800
  20852583.75049 109581153.31349      -715.91849        49.000    20852582.76246
  85387923.21446      -557.86346        43.100
 04 09 01 20 00  0.0000000  0  6G 1G13G25G23G20G16
  20798191.47349 109603000.45049     -1183.11749        49.300    20798191.85846
  85404888.35946      -921.91446        43.000
  22418678.77348 117810977.03948      2755.50048        47.300    22418678.51144
  91800799.14444      2147.14144        38.400
  23772458.44047 125232848.13047     -2559.66047        44.000    23772459.03943
  97583980.48143     -1994.54343        36.100
  20212951.80649 106219835.78649       827.97349        49.700    20212948.81947
  82768633.71547       645.17247        45.100
  21480096.79749 112878673.51349     -2386.81349        48.000    21480097.09645
  87957417.63445     -1859.85545        40.200
  20860972.49149 109625235.83949      -753.59449        49.200    20860971.36046
  85422273.23546      -587.21946        42.800
 04 09 01 20 01  0.0000000  0  7G 1G13G25G27G23G20G16
  20811835.64949 109674700.37749     -1206.26649        49.600    20811835.80246
  85460758.41446      -939.94946        42.900
  22387269.15148 117645918.52748      2746.85548        47.200    22387269.00244
  91672182.18244      2140.40244        38.400
  23801692.92947 125386476.91147     -2560.94947        44.100    23801693.69743
  97703691.12943     -1995.54743        36.000
  24768012.93543 130156779.16153      2454.47743        35.300    24768014.56341
 101420858.91651      1912.57441        16.900
  20203643.98049 106170922.43949       802.99249        49.800    20203640.68147
  82730519.43447       625.70347        44.900
  21507520.93649 113022787.37549     -2416.53549        48.100    21507521.22845
  88069714.06745     -1883.02045        40.800
  20869792.17649 109671582.83849      -790.75449        49.100    20869790.93547
  85458387.77447      -616.17647        43.400
 04 09 01 20 02  0.0000000  0  7G 1G13G25G27G23G20G16
  20825747.93249 109747809.54649     -1230.34049        49.400    20825748.18046
  85517726.56046      -958.71146        42.900
  22355963.64848 117481408.20448      2737.22348        47.200    22355963.63144
  91543992.37244      2132.89844        38.000
  23830947.50947 125540209.68547     -2562.95747        44.500    23830947.85743
  97823482.81243     -1997.11343        36.500
  24740018.56944 130009672.00944      2448.90244        37.600    24740021.58241
 101306230.13441      1908.23441        22.700
  20194625.67749 106123531.40949       776.96149        49.700    20194622.60147
  82693591.37447       605.42247        45.000
  21535285.87049 113168692.80749     -2446.74249        48.100    21535286.16345
  88183406.51945     -1906.55545        40.000
  20879038.26649 109720171.81449      -828.60549        48.900    20879037.02246
  85496249.31046      -645.66846        42.800
 04 09 01 20 03  0.0000000  0  7G 1G13G25G27G23G20G16
  20839929.80849 109822335.72849     -1253.90249        49.500    20839930.17646
  85575798.88946      -977.07046        43.000
  22324765.97248 117317463.46548      2727.37948        47.100    22324765.95644
  91416243.27644      2125.22744        38.500
  23860221.97347 125694046.99947     -2564.95747        45.000    23860221.79842
  97943355.93342     -1998.67242        34.200
  24712084.73245 129862879.66745      2443.94545        39.800    24712087.92141
 101191846.65741      1904.37941        30.300
  20185900.29149 106077679.22149       751.23449        49.800    20185896.99947
  82657862.40747       585.37547        44.800
  21563388.93949 113316374.31449     -2476.08249        48.100    21563388.94245
  88298482.92945     -1929.41845        39.900
  20888710.19849 109770997.82849      -865.64149        49.100    20888708.85046
  85535853.99146      -674.52746        42.800
 04 09 01 20 04  0.0000000  0  7G 1G13G25G27G23G20G16
  20854382.52949 109898285.02849     -1277.45349        49.300    20854382.71946
  85634980.11646      -995.42246        42.600
  22293679.34048 117154102.52748      2717.63748        47.400    22293679.10544
  91288949.09344      2117.63744        37.900
  23889516.45247 125847989.63747     -2566.46547        44.700    23889516.77143
  98063311.12543     -1999.84843        35.900
  24684211.37845 129716406.17045      2438.85245        39.700    24684215.00941
 101077711.63941      1900.40241        32.000
  20177470.76949 106033381.31649       725.25849        50.000    20177467.44147
  82623344.55847       565.13347        44.800
  21591826.81349 113465816.40649     -2505.19949        47.800    21591826.86145
  88414931.20645     -1952.10545        39.400
  20898806.59849 109824054.67749      -902.76649        49.000    20898805.24846
  85577196.98246      -703.45746        42.700
 04 09 01 20 05  0.0000000  0  7G 1G13G25G27G23G20G16
  20869105.85049 109975656.40849     -1301.48049        49.400    20869105.98546
  85695269.46646     -1014.14546        42.600
  22262706.11548 116991336.56248      2707.78548        47.500    22262705.76144
  91162118.51844      2109.96144        37.800
  23918829.77147 126002031.14347     -2568.10547        44.600    23918830.17743
  98183343.37143     -2001.12543        35.700
  24656398.54845 129570248.63145      2433.36345        41.100    24656402.43241
 100963822.84141      1896.12541        29.300
  20169338.59849 105990646.12849       699.04349        50.100    20169335.09947
  82590044.40747       544.70747        45.300
  21620595.47149 113616996.01149     -2534.03149        47.800    21620595.39645
  88532733.39645     -1974.57445        39.800
  20909324.75849 109879328.80249      -939.59849        48.800    20909323.72346
  85620267.72146      -732.15646        42.800
 04 09 01 20 06  0.0000000  0  7G 1G13G25G27G23G20G16
  20884100.04149 110054451.85549     -1325.20349        49.300    20884100.26646
  85756668.47846     -1032.62946        42.900
  22231848.37448 116829178.60548      2697.45748        47.300    22231848.08044
  91035761.71044      2101.91044        37.700
  23948160.81647 126156168.11147     -2569.64547        44.100    23948161.45143
  98303450.00143     -2002.32443        35.700
  24628645.88645 129424406.80945      2427.88745        40.800    24628648.99242
 100850180.05042      1891.85942        33.500
  20161505.71149 105949484.53149       672.79349        49.800    20161502.42347
  82557970.43347       524.25047        45.300
  21649690.72149 113769891.95549     -2562.57049        47.900    21649690.83345
  88651873.00445     -1996.81345        40.100
  20920262.86049 109936809.24949      -976.37549        48.900    20920261.84546
  85665057.66746      -760.81646        42.900
 04 09 01 20 07  0.0000000  0  7G 1G13G25G27G23G20G16
  20899365.87449 110134673.94849     -1348.86749        49.300    20899366.03946
  85819179.15846     -1051.07046        42.800
  22201109.32948 116667643.93148      2687.09048        47.400    22201108.98844
  90909890.59044      2093.83244        37.900
  23977509.67147 126310397.47547     -2571.24647        44.200    23977510.28443
  98423628.61943     -2003.57043        35.500
  24600953.09846 129278881.18346      2422.73846        41.200    24600956.00644
 100736783.61844      1887.84844        37.900
  20153974.67749 105909908.41349       646.27049        49.900    20153971.29747
  82527131.90947       503.58247        45.400
  21679108.74448 113924484.66548     -2590.64148        47.700    21679108.93145
  88772334.74345     -2018.68445        39.900
  20931618.95149 109996485.59849     -1012.86349        48.800    20931617.83946
  85711558.70446      -789.24646        42.300
 04 09 01 20 08  0.0000000  0  7G 1G13G25G27G23G20G16
  20914903.09249 110216322.14549     -1372.76649        49.300    20914903.34846
  85882801.09846     -1069.69146        42.700
  22170491.02848 116506744.78748      2676.18448        47.300    22170490.88244
  90784514.69644      2085.33644        38.200
  24006875.67447 126464714.76847     -2572.85947        44.200    24006876.17343
  98543875.76243     -2004.82843        35.700
  24573320.28346 129133670.08246      2417.48846        42.500    24573323.24143
 100623632.26743      1883.75443        35.900
  20146747.16949 105871927.35949       619.45749        50.100    20146743.74847
  82497536.28447       482.69147        45.400
  21708845.46949 114080751.46249     -2618.41849        48.000    21708845.69145
  88894100.95345     -2040.32845        40.300
  20943390.45449 110058344.65049     -1049.33649        49.200    20943389.20746
  85759760.56146      -817.66846        42.700
 04 09 01 20 09  0.0000000  0  7G 1G13G25G27G23G20G16
  20930712.57049 110299401.92549     -1396.53949        49.200    20930712.97846
  85947538.55846     -1088.21546        42.600
  22139997.20248 116346499.19148      2665.15248        47.700    22139997.09944
  90659648.03644      2076.73844        38.100
  24036258.12947 126619120.07647     -2574.23847        43.700    24036258.46943
  98664191.47143     -2005.90243        34.900
  24545747.81146 128988777.06546      2412.17246        42.900    24545751.01843
 100510728.77943      1879.60943        35.600
  20139825.95149 105835556.15949       592.66849        50.000    20139822.64648
  82469195.07948       461.81648        45.700
  21738897.54449 114238675.09049     -2645.66849        47.900    21738897.33945
  89017158.21345     -2061.56345        39.700
  20955575.73349 110122378.34249     -1085.32449        48.800    20955574.55546
  85809656.92846      -845.71146        42.500
 04 09 01 20 10  0.0000000  0  7G 1G13G25G27G23G20G16
  20946795.33549 110383916.36349     -1420.50049        49.300    20946795.54746
  86013393.92746     -1106.88746        42.200
  22109631.10248 116186923.39248      2653.83248        47.600    22109630.86144
  90535303.29644      2067.91844        38.200
  24065656.41046 126773612.68946     -2575.47746        42.800    24065657.42642
  98784575.22242     -2006.86742        33.900
  24518236.17947 128844203.53347      2406.89847        43.600    24518239.49644
 100398074.21644      1875.50444        37.400
  20133213.35849 105800806.97349       565.44549        49.900    20133209.95848
  82442117.80548       440.60548        45.700
  21769260.74348 114398235.64448     -2672.94948        47.500    21769260.93344
  89141490.99444     -2082.82044        37.900
  20968172.77949 110188576.10049     -1121.29749        48.900    20968171.65846
  85861239.59046      -873.74246        42.400
 04 09 01 20 11  0.0000000  0  8G 1G13G 3G25G27G23G20G16
  20963148.73049 110469854.47049     -1444.34849        49.100    20963148.96446
  86080358.65146     -1125.46946        42.300
  22079392.47448 116028018.95948      2642.55148        47.600    22079392.43844
  90411481.70444      2059.12944        38.600
  23938208.72542 125796143.19352      2919.52742        32.500

  24095068.96646 126928176.64946     -2577.00046        43.000    24095069.95943
  98905014.55143     -2008.05543        35.500
  24490783.11747 128699936.84347      2401.71547        43.400    24490786.22644
 100285658.75344      1871.46544        37.100
  20126909.17149 105767678.23549       538.29749        50.000    20126906.08548
  82416303.20748       419.44948        45.700
  21799929.35448 114559399.55448     -2699.59448        47.700    21799929.47645
  89267073.14445     -2103.58245        39.200
  20981176.99349 110256913.88649     -1157.07049        48.800    20981175.99646
  85914489.79646      -901.61746        43.100
 04 09 01 20 12  0.0000000  0  8G 1G13G 3G25G27G23G20G16
  20979775.02849 110557226.54849     -1468.39149        49.100    20979775.34046
  86148440.74746     -1144.20346        42.000
  22049286.50148 115869810.56348      2630.64848        47.200    22049286.21744
  90288202.47144      2049.85244        38.700
  23904912.17843 125621138.49753      2912.56643        35.100

  24124497.17147 127082818.67547     -2578.48447        43.500    24124497.80043
  99025514.71543     -2009.21143        34.700
  24463390.28746 128555986.21046      2395.91046        42.900    24463393.12343
 100173489.55343      1866.94143        35.800
  20120917.13749 105736190.39949       510.71149        49.900    20120913.86548
  82391767.23848       397.95348        45.800
  21830900.86348 114722154.54348     -2725.95348        47.400    21830901.04844
  89393895.09444     -2124.12144        38.600
  20994587.61849 110327387.70349     -1192.66849        48.700    20994586.69446
  85969404.45146      -929.35546        42.300
 04 09 01 20 13  0.0000000  0  8G 1G13G 3G25G27G23G20G16
  20996674.86649 110646035.15549     -1492.17649        49.200    20996675.12846
  86217642.22246     -1162.73846        42.300
  22019315.71848 115712314.07548      2618.87148        47.100    22019315.80144
  90165477.98344      2040.67644        38.500
  23871702.64743 125446620.49943      2904.55543        35.900    23871696.31041
  97750632.92051      2263.27741        20.600
  24153939.17746 127237537.58546     -2579.39146        43.000    24153940.00942
  99146074.80542     -2009.91842        33.900
  24436057.67346 128412352.99646      2391.07446        41.200    24436060.76044
 100061567.74744      1863.17244        37.600
  20115239.82049 105706355.57549       483.37549        50.000    20115236.53548
  82368519.32748       376.65248        45.800
  21862171.19948 114886480.80948     -2751.67648        47.200    21862171.43644
  89521941.42244     -2144.16844        38.100
  21008402.67849 110399986.81549     -1227.75449        48.700    21008401.64746
  86025975.17646      -956.69546        42.400
 04 09 01 20 14  0.0000000  0  8G 1G13G 3G25G27G23G20G16
  21013848.08249 110736281.28149     -1516.19949        49.000    21013848.44846
  86287963.84346     -1181.45746        42.700
  21989483.43148 115555545.01648      2606.71548        46.600    21989483.65944
  90043320.31144      2031.20344        38.700
  23838584.49743 125272587.61043      2895.93843        35.100    23838589.16741
  97615016.16751      2256.59441        29.400
  24183394.92046 127392330.68346     -2580.62946        42.700    24183396.34542
  99266692.70342     -2010.88342        34.000
  24408785.25846 128269037.25246      2385.67646        41.200    24408788.45244
  99949893.29344      1858.96544        37.500
  20109879.07949 105678184.20049       455.48849        50.100    20109875.58948
  82346567.61048       354.92248        45.900
  21893736.40748 115052356.54748     -2777.51648        47.300    21893736.52945
  89651195.13645     -2164.30145        39.000
  21022619.84249 110474698.02049     -1262.89149        48.800    21022618.65046
  86084191.69046      -984.07446        41.800
 04 09 01 20 15  0.0000000  0  8G 1G13G 3G25G27G23G20G16
  21031293.44749 110827957.35049     -1540.18849        49.200    21031293.95446
  86359399.70046     -1200.14846        42.700
  21959790.90148 115399509.92148      2594.17648        46.700    21959791.20645
  89921734.58245      2021.43445        39.500
  23805562.80742 125099056.88242      2887.66042        34.300    23805569.51041
  97479815.66151      2250.12141        30.000
  24212863.39546 127547187.80746     -2581.36346        42.400    24212864.85743
  99387360.49143     -2011.45743        35.500
  24381571.63046 128126030.32646      2380.48846        41.300    24381574.85442
  99838459.47142      1854.92242        34.000
  20104835.32149 105651678.51549       427.36749        50.100    20104831.70148
  82325913.82548       333.01248        45.600
  21925590.34548 115219751.21448     -2802.76648        47.200    21925590.88244
  89781632.42344     -2183.97744        38.400
  21037234.78949 110551500.04549     -1297.78949        49.000    21037233.89246
  86144037.41246     -1011.26646        42.400
 04 09 01 20 16  0.0000000  0  8G 1G13G 3G25G27G23G20G16
  21049012.05349 110921068.31049     -1563.91449        49.100    21049012.40146
  86431953.66046     -1218.63746        42.600
  21930241.70348 115244228.29948      2581.56348        46.700    21930241.97944
  89800735.97044      2011.60544        38.300
  23772642.16141 124926057.40341      2878.50841        31.900    23772651.36142
  97345007.90152      2242.98442        32.700
  24242344.68546 127702110.52246     -2582.63746        42.700    24242345.72642
  99508079.36642     -2012.44942        34.200
  24354417.74646 127983336.59846      2375.56646        42.800    24354420.61043
  99727269.72543      1851.08643        35.100
  20100111.22749 105626853.62949       399.62149        50.200    20100107.78948
  82306569.76248       311.39148        45.900
  21957730.27948 115388647.42548     -2827.36748        47.200    21957730.66944
  89913239.74144     -2203.14544        38.000
  21052245.85549 110630383.58249     -1332.09449        48.900    21052245.03646
  86205505.09846     -1038.00046        42.700
 04 09 01 20 17  0.0000000  0  8G 1G13G 3G25G27G23G20G16
  21067003.44249 111015613.73849     -1587.88349        49.300    21067003.66546
  86505625.37646     -1237.31646        42.400
  21900838.91548 115089714.77948      2568.71948        47.500    21900839.10944
  89680335.87344      2001.59844        38.600
  23739827.79742 124753626.46152      2869.17242        32.300

  24271837.51046 127857095.77246     -2583.56346        42.900    24271838.26043
  99628846.98243     -2013.16843        36.100
  24327323.56346 127840954.59746      2370.69946        43.000    24327326.08543
  99616322.86343      1847.29343        35.900
  20095708.70649 105603718.39449       371.31649        50.200    20095705.22448
  82288542.30948       289.33648        46.100
  21990152.03348 115559021.89248     -2851.82048        47.300    21990151.82644
  90045998.97144     -2222.19944        37.200
  21067650.16449 110711333.53049     -1366.35249        48.900    21067649.17546
  86268582.96146     -1064.69146        42.400
 04 09 01 20 18  0.0000000  0  7G 1G13G25G27G23G20G16
  21085268.92749 111111599.09449     -1611.64549        49.000    21085269.16246
  86580419.12546     -1255.83246        42.200
  21871586.04748 114935989.67548      2555.50448        47.500    21871586.20644
  89560550.12544      1991.29744        38.800
  24301342.55747 128012145.96447     -2584.50047        43.600    24301343.71342
  99749665.19242     -2013.89842        33.500
  24300289.52647 127698889.39547      2365.28147        43.400    24300291.98443
  99505622.87243      1843.07443        36.000
  20091630.71049 105582287.77849       342.99649        50.300    20091627.20348
  82271843.12348       267.26648        46.000
  22022851.39048 115730857.33548     -2875.82048        47.600    22022851.17444
  90179896.61944     -2240.90244        37.900
  21083446.03249 110794341.21749     -1400.49649        48.700    21083444.96446
  86333264.26646     -1091.30146        42.100
 04 09 01 20 19  0.0000000  0  7G 1G13G25G27G23G20G16
  21103807.49349 111209019.82649     -1635.97349        48.800    21103807.90846
  86656331.33746     -1274.78546        42.600
  21842485.25549 114783064.10049      2541.63749        47.900    21842485.29945
  89441387.37345      1980.49245        39.000
  24330859.07846 128167254.54846     -2585.86746        43.100    24330860.10042
  99870528.90342     -2014.96542        34.300
  24273314.37646 127557136.00746      2359.81646        43.200    24273317.02244
  99395165.88444      1838.81644        37.300
  20087877.92049 105562567.02849       313.96549        50.100    20087874.41948
  82256476.30148       244.64548        45.800
  22055823.21948 115904126.51548     -2899.94548        47.000    22055823.33444
  90314911.46044     -2259.69944        38.400
  21099629.77949 110879387.71149     -1434.61749        48.600    21099628.74646
  86399534.24546     -1117.88746        42.200
 04 09 01 20 20  0.0000000  0  8G 1G13G 3G25G27G23G20G16
  21122617.95049 111307869.97549     -1660.12149        48.900    21122618.51546
  86733357.40046     -1293.60546        42.000
  21813538.54549 114630947.95549      2527.65649        47.900    21813538.46945
  89322855.35945      1969.59845        40.100
  23642066.27442 124239877.47752      2837.66442        34.100    23642072.54842
  96810322.39152      2211.16442        32.700
  24360384.49746 128322412.96946     -2587.19546        42.700    24360385.93043
  99991431.44343     -2016.00043        34.600
  24246397.59746 127415688.21246      2354.08246        42.300    24246400.19944
  99284947.02244      1834.34844        36.700
  20084451.27249 105544560.20949       285.11749        50.300    20084447.73648
  82242445.00648       222.16848        46.100
  22089062.44048 116078800.77148     -2923.58248        46.500    22089062.76944
  90451021.15644     -2278.11744        38.600
  21116197.55749 110966452.44849     -1468.53149        48.500    21116196.73246
  86467376.88246     -1144.31346        42.300
 04 09 01 20 21  0.0000000  0  8G 1G13G 3G25G27G23G20G16
  21141702.59649 111408159.96449     -1683.48849        48.900    21141702.91746
  86811505.40046     -1311.81346        41.800
  21784750.62548 114479667.00648      2514.23448        47.700    21784750.71745
  89204974.14645      1959.14145        39.700
  23609722.82644 124069912.44044      2826.97344        36.900    23609723.22041
  96677859.21451      2202.82841        21.400
  24389921.68946 128477630.78646     -2587.47346        42.900    24389923.19242
 100112380.27342     -2016.21542        33.200
  24219540.91546 127274556.19546      2349.63346        42.700    24219543.66043
  99174974.21243      1830.87943        35.400
  20081354.83149 105528288.29049       256.67249        50.300    20081351.50548
  82229765.58348       200.00048        46.000
  22122567.05548 116254868.30048     -2945.95748        46.600    22122567.60544
  90588216.51344     -2295.55544        38.400
  21133148.79949 111055531.58649     -1501.36349        48.600    21133147.92146
  86536789.18646     -1169.89846        42.100
 04 09 01 20 22  0.0000000  0  8G 1G13G 3G25G27G23G20G16
  21161060.15849 111509883.69949     -1707.40249        48.800    21161060.47146
  86890770.60446     -1330.44546        41.800
  21756123.64849 114329231.55049      2500.03549        47.900    21756123.65345
  89087751.74745      1948.07445        40.200
  23577508.89843 123900628.58143      2815.61343        34.800    23577510.30041
  96545949.95341      2193.98841        29.700
  24419468.73346 128632899.55946     -2588.23446        42.000    24419469.44741
 100233368.79341     -2016.81341        31.700
  24192743.18847 127133733.82447      2344.20747        43.600    24192745.43543
  99065242.65343      1826.65243        36.200
  20078589.08149 105513754.21849       227.52049        50.300    20078585.73548
  82218440.33148       177.28548        46.200
  22156331.50448 116432300.34948     -2968.45748        47.200    22156331.95644
  90726475.14644     -2313.08644        37.200
  21150479.29149 111146604.03949     -1534.45749        48.400    21150478.38346
  86607754.71746     -1195.68446        41.800
 04 09 01 20 23  0.0000000  0  8G 1G13G 3G25G27G23G20G16
  21180690.87549 111613044.70749     -1731.43049        48.600    21180691.46946
  86971155.75846     -1349.16846        41.700
  21727661.31849 114179661.60349      2485.49249        48.000    21727661.24945
  88971203.77545      1936.74245        39.700
  23545428.70744 123732055.24944      2803.25444        36.700    23545432.35541
  96414594.27941      2184.34841        23.100
  24449025.40446 128788221.15546     -2589.18446        41.500    24449026.14742
 100354398.50042     -2017.66042        34.000
  24166005.34747 126993224.75747      2339.02047        43.600    24166007.30144
  98955755.18144      1822.60944        36.800
  20076156.46349 105500971.01749       198.35949        50.200    20076153.30248
  82208479.39348       154.56348        46.600
  22190351.86648 116611077.88448     -2990.75448        47.000    22190352.23544
  90865782.20344     -2330.46144        37.300
  21168187.00949 111239658.53749     -1567.41049        48.400    21168186.08646
  86680264.69346     -1221.36346        41.900
 04 09 01 20 24  0.0000000  0  8G 1G13G 3G25G27G23G20G16
  21200593.75849 111717635.76449     -1755.17249        48.600    21200594.31846
  87052655.22846     -1367.66846        41.300
  21699365.49449 114030965.81049      2470.87149        47.900    21699365.27045
  88855336.95945      1925.35245        39.800
  23513489.39243 123564210.86443      2791.21943        34.900    23513491.97644
  96283806.58944      2174.97344        38.300
  24478590.69645 128943588.37145     -2589.93845        40.900    24478591.78343
 100475463.72843     -2018.13743        34.600
  24139325.47447 126853022.17347      2334.10547        43.600    24139327.71243
  98846506.55143      1818.78143        35.800
  20074057.92349 105489941.93849       169.04749        50.400    20074054.59848
  82199885.30048       131.72348        46.800
  22224622.48048 116791171.27848     -3012.35248        46.600    22224622.65344
  91006114.59744     -2347.28944        36.700
  21186267.82749 111334673.07449     -1599.96149        48.600    21186266.77346
  86754301.97246     -1246.72746        41.200
 04 09 01 20 25  0.0000000  0  8G 1G13G 3G25G27G23G20G16
  21220769.51549 111823659.07249     -1779.03949        48.800    21220769.96245
  87135270.74645     -1386.26645        40.900
  21671239.70349 113883163.88949      2455.85249        48.200    21671239.38145
  88740166.66645      1913.64845        39.800
  23481693.11944 123397123.29844      2778.59044        37.300    23481695.68041
  96153608.60441      2165.13341        26.700
  24508165.24146 129099001.88946     -2590.43446        41.900    24508166.58842
 100596565.05142     -2018.52342        32.700
  24112704.47046 126713128.56446      2328.96146        42.800    24112706.82144
  98737498.66644      1814.77344        37.200
  20072295.08649 105480678.56849       139.62149        50.200    20072291.66548
  82192667.08748       108.79348        46.400
  22259139.47248 116972560.02648     -3033.71948        46.200    22259139.99644
  91147456.34344     -2363.94144        37.300
  21204719.01249 111431634.88649     -1632.23049        48.300    21204718.08546
  86829856.61546     -1271.87146        41.600
 04 09 01 20 26  0.0000000  0  8G 1G13G 3G25G27G23G20G16
  21241217.48749 111931113.18349     -1802.72349        48.400    21241217.86346
  87219001.17146     -1404.72346        41.300
  21643287.12849 113736271.56749      2440.54349        48.500    21643286.86245
  88625705.15145      1901.71945        39.800
  23450046.19744 123230818.50244      2765.32844        37.600    23450049.19841
  96024020.64741      2154.79741        29.600
  24537747.93046 129254459.51746     -2591.27046        41.400    24537749.03841
 100717700.74741     -2019.32841        31.500
  24086142.19146 126573543.06146      2323.82046        43.300    24086144.76144
  98628730.86744      1810.76644        37.600
  20070869.95649 105473189.60649       110.14149        50.200    20070866.56048
  82186831.52848        85.82048        46.200
  22293898.92548 117155220.67148     -3054.69548        46.100    22293899.56645
  91289789.19245     -2380.28945        38.900
  21223537.72649 111530527.96549     -1664.10249        48.300    21223536.80646
  86906916.13146     -1296.70746        41.700
 04 09 01 20 27  0.0000000  0  8G 1G13G 3G25G27G23G20G16
  21261937.32449 112039997.27349     -1826.68849        48.500    21261937.91746
  87303845.85946     -1423.39546        41.400
  21615510.79249 113590305.61649      2424.85949        48.600    21615510.43045
  88511965.48045      1889.49645        39.700
  23418553.05744 123065321.74644      2751.53544        37.700    23418555.30341
  95895062.22441      2144.05141        28.600
  24567338.63045 129409960.43445     -2592.31645        40.700    24567340.01141
 100838870.15441     -2019.98841        32.100
  24059638.42347 126434266.10847      2318.64547        43.400    24059640.77943
  98520203.46443      1806.73443        36.400
  20069784.24149 105467484.40849        80.06649        50.300    20069781.01848
  82182385.92148        62.38748        46.300
  22328896.02948 117339130.63948     -3075.51648        46.300    22328896.73844
  91433095.52144     -2396.50844        38.100
  21242721.06849 111631336.60849     -1696.09049        48.500    21242720.17946
  86985468.29446     -1321.63346        41.600
 04 09 01 20 28  0.0000000  0  8G 1G13G 3G25G27G23G20G16
  21282929.10549 112150309.18049     -1850.52349        48.600    21282929.74346
  87389803.13546     -1441.96946        41.200
  21587913.50649 113445281.61449      2409.05949        48.400    21587913.11045
  88398959.80345      1877.18445        40.100
  23387218.15344 122900657.64144      2737.62544        38.400    23387220.26843
  95766752.70043      2133.21143        35.100
  24596937.16946 129565501.50246     -2592.70346        41.400    24596939.15742
 100960070.87242     -2020.29342        32.300
  24033193.13646 126295296.07646      2313.60546        42.800    24033195.59443
  98411915.21943      1802.80543        35.700
  20069039.51449 105463569.95649        50.23849        50.400    20069036.07648
  82179335.68348        39.14548        46.200
  22364126.18348 117524265.34248     -3095.60948        46.700    22364126.70944
  91577356.19144     -2412.16844        37.000
  21262265.47449 111734043.44049     -1727.48849        48.300    21262264.63245
  87065499.57145     -1346.09845        41.100
 04 09 01 20 29  0.0000000  0  8G 1G13G 3G25G27G23G20G16
  21304191.76249 112262044.16149     -1874.25449        48.600    21304192.34746
  87476869.29946     -1460.46146        41.200
  21560498.02649 113301212.91949      2393.10549        48.400    21560497.77645
  88286698.51345      1864.75445        40.300
  23356046.71645 122736848.32945      2722.66445        39.000    23356049.09441
  95639109.22241      2121.55941        30.300
  24626542.98545 129721079.05945     -2593.23045        40.700    24626544.64542
 101081300.02442     -2020.70342        34.200
  24006805.54146 126156629.35846      2308.46146        42.800    24006807.94144
  98303863.35744      1798.79744        37.700
  20068636.38649 105461451.80749        20.25449        50.300    20068633.07748
  82177685.16348        15.77748        46.200
  22399583.92748 117710597.97948     -3115.51248        46.400    22399584.62643
  91722550.34343     -2427.67643        36.600
  21282167.24249 111838628.92249     -1758.75449        48.000    21282166.61446
  87146994.72346     -1370.46146        41.700
 04 09 01 20 30  0.0000000  0  8G 1G13G 3G25G27G23G20G16
  21325725.33949 112375203.28149     -1897.86749        48.500    21325725.68845
  87565045.18545     -1478.85945        40.900
  21533267.96149 113158118.45549      2376.67249        48.700    21533267.73745
  88175196.37145      1851.94945        40.100
  23325043.02745 122573922.16645      2707.70345        39.600    23325044.46542
  95512153.90042      2109.89542        33.700
  24656155.44645 129876694.08645     -2593.75445        39.800    24656156.97841
 101202558.37641     -2021.10941        32.000
  23980476.44646 126018268.59646      2303.60246        43.200    23980478.58343
  98196049.88943      1795.01243        35.300
  20068577.14149 105461140.90649        -9.93049        50.200    20068573.78948
  82177442.89648        -7.74248        46.000
  22435265.98948 117898107.90348     -3134.88348        46.200    22435266.58443
  91868661.85843     -2442.77043        36.600
  21302424.09949 111945079.81049     -1789.72349        48.000    21302423.51646
  87229943.43646     -1394.59446        41.300
 04 09 01 20 31  0.0000000  0  8G 1G13G 3G25G27G23G20G16
  21347529.82849 112489786.68349     -1921.63749        48.300    21347530.13645
  87654330.89845     -1497.38345        40.200
  21506226.85649 113016016.71949      2359.95749        48.500    21506226.91945
  88064467.78145      1838.92645        40.000
  23294212.26445 122411905.78145      2692.54345        39.400    23294213.90841
  95385907.53441      2098.08241        31.800
  24685774.97445 130032347.33545     -2594.82045        39.900    24685776.77042
 101323846.50842     -2021.94142        32.500
  23954205.70647 125880215.09847      2298.32047        44.100    23954207.73144
  98088475.85644      1790.89544        37.000
  20068863.77349 105462646.97449       -40.32849        50.200    20068860.55448
  82178616.44548       -31.42648        46.600
  22471168.07548 118086773.06148     -3153.84448        46.000    22471168.52344
  92015673.52544     -2457.54344        37.300
  21323033.16549 112053380.66449     -1820.39849        48.200    21323032.53046
  87314333.69046     -1418.49646        41.200
 04 09 01 20 32  0.0000000  0  8G 1G13G 3G25G27G23G20G16
  21369604.07849 112605788.12949     -1945.28949        48.200    21369604.62046
  87744721.58646     -1515.81346        41.200
  21479377.09049 112874920.00749      2343.03949        48.700    21479376.79045
  87954522.32945      1825.74245        39.900
  23263558.44845 122250820.67245      2676.71945        39.700    23263560.77442
  95260386.87442      2085.75042        34.100
  24715401.59645 130188033.57445     -2595.09045        41.000    24715403.55442
 101445160.35342     -2022.06342        34.000
  23927992.62947 125742464.21547      2293.29747        43.700    23927994.80142
  97981137.63242      1786.98042        33.600
  20069497.03649 105465973.95249       -70.72749        50.300    20069493.72948
  82181208.88448       -55.11348        46.700
  22507284.78848 118276565.67948     -3172.52748        45.800    22507285.07044
  92163563.72844     -2472.10244        37.100
  21343990.47649 112163510.63949     -1850.72749        48.400    21343989.65846
  87400149.23146     -1442.12946        41.300
 04 09 01 20 33  0.0000000  0  8G 1G13G 3G25G27G23G20G16
  21391947.93949 112723205.70749     -1968.95749        48.400    21391948.37945
  87836215.74745     -1534.25445        40.700
  21452722.00249 112734846.12449      2325.66849        48.900    21452721.59045
  87845373.87845      1812.20745        39.500
  23233086.80345 122090693.09845      2660.48445        39.900    23233089.24842
  95135612.30542      2073.10242        33.400
  24745034.13545 130343751.75845     -2595.80145        40.700    24745035.86742
 101566499.06842     -2022.70742        32.700
  23901837.26147 125605016.57347      2288.04347        44.100    23901839.24743
  97874035.70843      1782.88743        35.100
  20070478.15749 105471130.14449      -101.44549        50.200    20070474.82848
  82185226.68348       -79.05148        46.400
  22543611.38448 118467462.65948     -3190.96548        46.200    22543611.53044
  92312314.46844     -2486.46944        37.500
  21365292.49749 112275452.95349     -1881.06649        48.300    21365291.60046
  87487376.98346     -1465.77046        42.000
 04 09 01 20 34  0.0000000  0  8G 1G13G 3G25G27G23G20G16
  21414561.68949 112842040.56249     -1992.10549        48.200    21414561.99346
  87928814.27746     -1552.29346        41.200
  21426265.21549 112595814.78649      2308.75849        48.600    21426264.73345
  87737037.79845      1799.02745        40.800
  23202803.48745 121931550.87445      2644.24645        40.400    23202804.98242
  95011605.47642      2060.44942        32.500
  24774672.18345 130499504.05245     -2595.82845        39.200    24774674.27342
 101687864.37942     -2022.72742        32.400
  23875739.95047 125467874.43647      2283.51647        44.000    23875741.96844
  97767171.83444      1779.35944        37.200
  20071809.38249 105478125.86949      -131.66049        50.200    20071805.99248
  82190677.88748      -102.59448        46.300
  22580143.89048 118659443.08048     -3208.31648        46.000    22580144.41343
  92461909.43743     -2499.98843        36.100
  21386936.65549 112389193.60949     -1910.30949        48.300    21386935.82845
  87576006.04945     -1488.55545        40.900
 04 09 01 20 35  0.0000000  0  8G 1G13G 3G25G27G23G20G16
  21437443.86949 112962287.67849     -2016.03949        47.900    21437444.46845
  88022513.27245     -1570.94145        41.100
  21400009.33349 112457839.80049      2290.62549        49.000    21400009.33745
  87629524.85345      1784.89845        40.900
  23172710.97845 121773416.11345      2626.77745        40.600    23172713.29542
  94888383.74142      2046.83642        32.600
  24804316.76945 130655287.28345     -2596.62945        40.400    24804318.97041
 101809253.80541     -2023.35241        31.000
  23849699.85247 125331034.71547      2278.34847        43.600    23849701.99643
  97660543.60643      1775.33243        36.600
  20073491.44249 105486965.42049      -162.81349        50.300    20073488.05448
  82197565.83348      -126.87148        46.700
  22616877.61148 118852480.34748     -3226.01248        46.300    22616878.44944
  92612327.95044     -2513.77744        37.200
  21408919.20749 112504712.56749     -1940.16449        48.300    21408918.36546
  87666020.79546     -1511.82046        41.600
 04 09 01 20 36  0.0000000  0  8G 1G13G 3G25G27G23G20G16
  21460593.72349 113083941.47049     -2039.32049        47.900    21460594.32045
  88117308.38045     -1589.08245        40.900
  21373957.31749 112320935.48149      2272.54749        48.800    21373957.10845
  87522846.18445      1770.81345        40.300
  23142814.71546 121616311.20246      2609.51646        41.400    23142816.79841
  94765964.47541      2033.39141        31.000
  24833966.96945 130811096.66945     -2597.23045        40.900    24833968.72941
 101930663.57741     -2023.82041        31.500
  23823717.05247 125194494.18747      2273.16847        43.500    23823718.73243
  97554148.50143      1771.29743        35.900
  20075525.32549 105497653.39949      -193.72349        50.200    20075521.91948
  82205894.11648      -150.95748        46.300
  22653807.53948 119046547.70348     -3242.92648        46.400    22653808.49244
  92763549.11844     -2526.95744        37.100
  21431236.21449 112621989.06049     -1969.20349        48.300    21431235.23245
  87757405.05145     -1534.44545        41.100
 04 09 01 20 37  0.0000000  0  8G 1G13G 3G25G27G23G20G16
  21484011.34549 113207001.23849     -2062.94549        48.000    21484011.71345
  88213199.04545     -1607.49245        40.700
  21348112.78649 112185121.49849      2254.12549        49.100    21348112.43045
  87417017.13845      1756.45745        40.800
  23113119.66046 121460263.93746      2591.62546        42.400    23113121.67442
  94644369.34042      2019.44542        34.200
  24863622.27045 130966934.18045     -2597.87145        39.800    24863623.48742
 102052095.23542     -2024.32042        32.400
  23797791.31346 125058255.00046      2267.95346        43.200    23797793.37744
  97447988.20444      1767.23444        38.000
  20077912.50649 105510198.93949      -224.89849        50.000    20077909.31048
  82215669.85148      -175.25048        46.100
  22690929.30048 119241623.59548     -3259.74648        46.300    22690930.32444
  92915556.16744     -2540.06644        38.500
  21453884.81949 112741008.23149     -1998.31649        48.200    21453883.82345
  87850147.23145     -1557.13345        40.300
 04 09 01 20 38  0.0000000  0  8G 1G13G 3G25G27G23G20G16
  21507696.30548 113331466.91548     -2086.19148        47.400    21507696.92346
  88310185.22946     -1625.60546        41.200
  21322479.47449 112050416.92749      2235.66449        49.200    21322478.93345
  87312052.56045      1742.07445        40.900
  23083631.16246 121305301.77246      2573.45346        42.100    23083633.34743
  94523619.75443      2005.28543        35.600
  24893282.63745 131122801.22245     -2598.18445        39.700    24893284.39241
 102173549.97141     -2024.56341        29.400
  23771923.51646 124922319.54746      2263.17246        43.100    23771925.83244
  97342064.57444      1763.50844        38.500
  20080655.22349 105524611.47149      -255.80949        50.200    20080651.95948
  82226900.37148      -199.33648        46.300
  22728239.03748 119437686.60448     -3275.69948        46.400    22728239.85243
  93068332.37143     -2552.49643        35.600
  21476862.14249 112861754.66549     -2026.85249        47.800    21476861.14245
  87944235.33445     -1579.36745        40.600
 04 09 01 20 39  0.0000000  0  8G 1G13G 3G25G27G23G20G16
  21531647.25348 113457330.04448     -2109.20748        47.400    21531648.15645
  88408260.33745     -1643.54345        40.700
  21297059.52049 111916834.45149      2217.11349        49.100    21297059.06645
  87207962.34645      1727.61745        41.100
  23054353.33447 121151444.92747      2555.20747        43.500    23054355.30543
  94403731.41743      1991.06643        36.100
  24922947.63845 131278692.06045     -2598.19945        39.900    24922949.44341
 102295023.23941     -2024.57441        30.800
  23746112.74247 124786682.53647      2258.10947        44.100    23746114.61244
  97236373.49944      1759.56344        37.600
  20083753.44249 105540892.33049      -286.73449        50.200    20083750.24348
  82239586.74248      -223.43448        46.100
  22765731.05448 119634707.78948     -3291.37548        46.000    22765731.80243
  93221855.20943     -2564.71143        35.800
  21500163.85149 112984206.09749     -2054.91449        47.900    21500162.93045
  88039652.00445     -1601.23445        40.100
 04 09 01 20 40  0.0000000  0  8G 1G13G 3G25G27G23G20G16
  21555864.00748 113584589.10048     -2132.37148        47.600    21555864.78745
  88507423.17645     -1661.59045        41.000
  21271856.55949 111784392.79649      2197.91049        49.200    21271856.17345
  87104761.09645      1712.65245        40.500
  23025290.87447 120998720.23847      2535.90647        44.400    23025292.70643
  94284725.28943      1976.02743        35.800
  24952617.60545 131434608.26545     -2598.74245        39.600    24952619.34842
 102416516.25542     -2025.00042        34.000
  23720358.87047 124651345.23147      2253.32047        44.000    23720360.75944
  97130915.96144      1755.83244        37.700
  20087208.65549 105559049.70049      -318.07449        50.100    20087205.32348
  82253735.33348      -247.85248        45.900
  22803401.44748 119832664.72448     -3306.72748        45.700    22803401.84443
  93376107.19443     -2576.67643        35.200
  21523786.68648 113108345.37948     -2082.68848        47.700    21523785.89345
  88136383.88045     -1622.87545        40.800
 04 09 01 20 41  0.0000000  0  9G 1G13G19G 3G25G27G23G20G16
  21580345.42248 113713239.27648     -2155.66448        47.300    21580346.20645
  88607669.99845     -1679.74245        40.900
  21246873.86649 111653107.56249      2178.40649        49.000    21246873.36145
  87002460.94045      1697.45745        40.600
  24945935.15543 131091770.73253      3115.06643        35.200    24945940.12541
 102149417.92251      2427.32041        28.700
  22996448.56647 120847150.91647      2516.48047        44.800    22996449.46043
  94166619.42843      1960.89143        35.800
  24982291.87544 131590547.25144     -2599.04344        38.200    24982293.80043
 102538027.01043     -2025.23443        36.000
  23694661.70447 124516305.93647      2248.23447        44.300    23694663.62344
  97025690.65944      1751.86744        37.900
  20091021.77049 105579088.03749      -349.59849        50.000    20091018.34848
  82269349.60248      -272.41848        45.900
  22841244.87847 120031532.01047     -3321.82847        45.300    22841245.59843
  93531068.57643     -2588.44143        35.600
  21547727.16548 113234153.29548     -2110.51248        47.600    21547726.19445
  88234415.98945     -1644.55945        40.200
 04 09 01 20 42  0.0000000  0  9G 1G13G19G 3G25G27G23G20G16
  21605090.92148 113843278.14348     -2178.96548        47.100    21605091.77545
  88708998.92145     -1697.89845        40.700
  21222114.75149 111522997.75949      2158.66449        48.900    21222114.23745
  86901076.69045      1682.07445        40.300
  24910332.72343 130904680.60243      3120.75043        35.300    24910335.63741
 102003633.96441      2431.75841        17.700
  22967830.44548 120696763.14048      2496.52748        45.600    22967831.61642
  94049434.27442      1945.34442        33.800
  25011970.85845 131746510.04845     -2599.65245        39.400    25011972.65141
 102659556.37641     -2025.70741        28.300
  23669021.62547 124381566.07547      2243.36347        44.700    23669022.98444
  96920698.67044      1748.07044        38.300
  20095194.34049 105601014.68149      -381.18449        50.100    20095190.99848
  82286435.28348      -297.03148        46.100
  22879256.90147 120231287.02547     -3336.79347        44.200    22879257.60842
  93686721.68142     -2600.10542        32.800
  21571981.91348 113361612.95948     -2138.00048        47.400    21571981.00145
  88333735.16645     -1665.97745        40.800
 04 09 01 20 43  0.0000000  0  9G 1G13G19G 3G25G27G23G20G16
  21630100.27848 113974703.18248     -2201.94148        47.300    21630101.22345
  88811407.96645     -1715.80145        40.300
  21197582.71449 111394081.83449      2138.54349        49.100    21197582.15645
  86800622.74545      1666.39545        40.400
  24874673.80643 130717295.33643      3125.73443        35.300    24874676.96341
 101857619.95541      2435.64841        30.100
  22939441.76347 120547583.19147      2476.11347        44.700    22939442.94543
  93933190.25543      1929.43843        36.400
  25041654.31944 131902497.83544     -2599.89544        38.400    25041655.86041
 102781105.15641     -2025.89841        27.900
  23643438.40447 124247126.36347      2238.13347        44.600    23643439.56743
  96815940.57243      1743.99643        35.900
  20099727.73449 105624836.80649      -412.86349        50.100    20099724.31048
  82304997.96748      -321.71548        46.000
  22917433.24646 120431907.12846     -3350.83246        42.700    22917434.45241
  93843048.86141     -2611.04341        31.900
  21596547.97248 113490707.60548     -2165.01648        47.600    21596547.06845
  88434328.37145     -1687.02745        40.100
 04 09 01 20 44  0.0000000  0  9G 1G13G19G 3G25G27G23G20G16
  21655371.46048 114107503.16348     -2224.73848        47.100    21655372.24545
  88914888.39045     -1733.56645        40.100
  21173279.95949 111266369.19449      2118.24649        49.100    21173279.31445
  86701106.42145      1650.57845        40.300
  24838962.56143 130529619.15553      3130.23843        36.000    24838964.43841
 101711409.94451      2439.05941        32.000
  22911286.65247 120399628.15947      2455.39847        45.300    22911288.38044
  93817900.72644      1913.29344        37.600
  25071340.91344 132058502.59544     -2600.44944        37.800    25071343.29542
 102902667.17642     -2026.32842        32.400
  23617910.99647 124112979.33847      2233.12947        44.800    23617912.36543
  96711410.52843      1740.09843        36.600
  20104621.01449 105650552.08549      -444.49649        50.100    20104617.72748
  82325035.83548      -346.36348        46.000
  22955769.23446 120633360.75046     -3364.48446        42.300    22955769.96241
  94000025.52841     -2621.68041        29.600
  21621420.06148 113621411.11748     -2191.94148        47.600    21621418.91745
  88536175.23445     -1708.00845        40.600
 04 09 01 20 45  0.0000000  0  9G 1G13G19G 3G25G27G23G20G16
  21680904.51048 114241679.65648     -2247.70748        47.100    21680905.19345
  89019441.42145     -1751.46545        40.400
  21149210.74149 111139884.23949      2097.85549        49.300    21149209.96545
  86602546.74045      1634.68845        40.900
  24803202.29444 130341700.30844      3134.37944        37.700    24803203.94142
 101564980.07142      2442.37542        33.300
  22883370.84648 120252928.83448      2434.36748        45.600    22883372.54144
  93703589.66544      1896.90644        37.700
  25101031.91944 132214529.45944     -2600.58244        38.100    25101033.97041
 103024246.43441     -2026.43041        30.600
  23592440.37147 123979130.75247      2228.40647        44.100    23592441.86444
  96607113.03444      1736.41844        37.400
  20109876.88849 105678171.78749      -476.10249        50.200    20109873.45948
  82346557.65548      -370.99248        45.800
  22994260.03046 120835629.67546     -3377.94946        41.200    22994260.61741
  94157637.52641     -2632.17241        30.900
  21646595.87448 113753711.27348     -2218.06348        47.400    21646594.87945
  88639266.22245     -1728.36345        38.900
 04 09 01 20 46  0.0000000  0  9G 1G13G19G 3G25G27G23G20G16
  21706698.32448 114377226.88848     -2270.26248        47.100    21706699.11045
  89125062.56245     -1769.03945        40.800
  21125377.84949 111014641.91349      2077.14549        49.500    21125377.09645
  86504955.34545      1618.55145        41.100
  24767397.73644 130153549.17944      3137.88344        37.900    24767400.12942
 101418369.18342      2445.10542        33.300
  22855698.23548 120107508.25848      2413.08248        45.900    22855699.88444
  93590275.03544      1880.32044        38.400
  25130726.73244 132370576.71844     -2600.87144        37.900    25130728.00841
 103145841.58241     -2026.65641        31.400
  23567026.30047 123845578.83347      2223.60247        44.800    23567027.84344
  96503046.70444      1732.67244        36.800
  20115495.89349 105707699.38249      -507.86749        50.300    20115492.52848
  82369566.15648      -395.74248        45.700
  23032900.65545 121038688.18945     -3390.57445        40.100    23032902.30941
  94315864.74141     -2642.00841        32.200
  21672071.64848 113887587.48148     -2244.07848        47.400    21672070.81145
  88743585.30945     -1748.63745        39.900
 04 09 01 20 47  0.0000000  0  9G 1G13G19G 3G25G27G23G20G16
  21732751.30648 114514137.38148     -2292.93448        46.600    21732752.48745
  89231745.98645     -1786.70345        40.700
  21101784.17349 110890656.84949      2056.05949        49.500    21101783.59546
  86408343.62946      1602.12146        41.200
  24731553.19144 129965185.42744      3141.27044        37.400    24731554.63642
 101271592.56642      2447.73842        33.000
  22828273.10848 119963387.91148      2391.25848        45.800    22828274.61744
  93477973.54844      1863.31644        38.000
  25160425.67144 132218930.13954     -2601.66044        36.800    25160425.07041
 103027753.08051     -2027.27041        15.000
  23541667.92747 123712320.51047      2218.60547        44.200    23541669.37043
  96399209.13443      1728.78143        36.600
  20121478.19249 105739136.80349      -539.66049        50.100    20121475.11148
  82394062.82048      -420.52048        46.000
  23071686.23244 121242509.14244     -3403.10544        38.800    23071688.31641
  94474686.07041     -2651.77341        29.000
  21697843.37548 114023018.36348     -2269.85248        47.200    21697842.44245
  88849115.82645     -1768.71945        39.600
 04 09 01 20 48  0.0000000  0  8G 1G13G19G 3G27G23G20G16
  21759064.02448 114652411.55548     -2315.27748        46.900    21759065.20145
  89339492.00945     -1804.11745        40.400
  21078434.09449 110767951.54149      2034.95349        49.200    21078433.40746
  86312729.13446      1585.67646        41.300
  24695673.21744 129776636.51344      3144.41044        37.000    24695674.97342
 101124671.69342      2450.19142        32.500
  22801100.87047 119820597.01047      2369.23447        45.400    22801102.34944
  93366708.00544      1846.15244        38.600
  23516366.16647 123579360.82247      2214.10247        44.400    23516368.03443
  96295604.27443      1725.27043        35.800
  20127825.70949 105772493.36749      -571.25849        50.000    20127822.65148
  82420054.92348      -445.14148        45.900
  23110614.17744 121447073.67844     -3414.69944        38.600    23110615.67341
  94634086.83241     -2660.80541        20.600
  21723908.29148 114159990.41848     -2294.97748        47.200    21723907.33745
  88955847.25145     -1788.29745        39.800
 04 09 01 20 49  0.0000000  0  9G 1G13G19G 3G25G27G23G20G16
  21785634.97148 114792040.12248     -2338.21148        47.300    21785635.41845
  89448293.39545     -1821.98445        40.600
  21055329.97749 110646539.09849      2012.80949        49.200    21055329.51446
  86218122.05846      1568.41846        41.400
  24659761.39244 129587920.19844      3146.47744        37.300    24659763.26742
 100977620.42242      2451.80142        34.400
  22774185.21247 119679154.98947      2346.20347        45.100    22774186.72243
  93256493.53543      1828.20743        36.000
  25219832.74544 132531117.58654     -2601.60244        36.700

  23491120.75847 123446694.82847      2208.88747        44.600    23491122.30444
  96192228.25544      1721.20744        37.800
  20134538.65349 105807769.03449      -603.80149        50.100    20134535.33248
  82447542.44248      -470.49648        45.700
  23149678.49244 121652352.99644     -3426.52344        36.800    23149679.63841
  94794044.52141     -2670.01641        15.300
  21750261.98548 114298479.93448     -2320.60248        47.000    21750260.96045
  89063761.12445     -1808.26645        39.400
 04 09 01 20 50  0.0000000  0  8G 1G13G19G 3G27G23G20G16
  21812461.60248 114933014.46048     -2359.55148        46.700    21812462.09145
  89558143.44945     -1838.61345        40.500
  21032474.44849 110526432.70949      1991.98449        49.300    21032474.04946
  86124532.68646      1552.19146        41.200
  24623821.80044 129399055.59144      3149.80144        38.000    24623823.26942
 100830453.57642      2454.38742        32.600
  22747530.16147 119539082.70247      2323.96547        44.300    22747531.69544
  93147346.38644      1810.87944        37.600
  23465930.39447 123314319.15147      2205.15647        44.900    23465932.22244
  96089078.47944      1718.30144        37.000
  20141616.60149 105844964.12749      -634.73449        49.900    20141613.31748
  82476525.59648      -494.60248        46.200
  23188872.01843 121858319.62443     -3437.40643        36.100

  21776900.26948 114438464.77748     -2344.08648        46.800    21776899.26545
  89172840.18845     -1826.59845        39.700
 04 09 01 20 51  0.0000000  0  9G 1G13G19G 3G25G27G23G20G16
  21839544.57048 115075337.27148     -2382.91048        46.600    21839545.58145
  89669044.25545     -1856.81645        39.700
  21009872.55949 110407658.84449      1968.59849        49.200    21009872.03446
  86031981.63446      1533.96946        41.500
  24587859.51745 129210073.64445      3150.63745        39.600    24587860.68842
 100683195.25642      2455.03942        33.800
  22721142.06747 119400411.84047      2299.41847        44.100    22721143.59044
  93039291.25644      1791.75044        38.500
  25279253.08243 132843366.78253     -2601.85943        35.300    25279255.65741
 103514321.15651     -2027.41841        17.100
  23440797.11448 123182241.57548      2199.11348        45.800    23440798.31544
  95986160.99244      1713.59044        37.700
  20149062.03449 105884090.61749      -667.94149        49.900    20149058.88648
  82507013.75148      -520.47748        45.700
  23228193.43243 122064957.37043     -3449.44143        35.800

  21803820.91448 114579933.49948     -2369.81348        47.000    21803819.97845
  89283075.50545     -1846.60945        39.700
 04 09 01 20 52  0.0000000  0  9G 1G13G19G 3G25G27G23G20G16
  21866881.98448 115218997.49148     -2405.43848        46.200    21866883.23945
  89780987.20745     -1874.37145        39.600
  20987526.31249 110290227.70549      1946.03149        49.700    20987525.61146
  85940476.86046      1516.38746        41.200
  24551877.66545 129020991.01045      3152.04745        40.700    24551879.11243
 100535858.47143      2456.13743        34.600
  22695023.84047 119263159.72847      2275.73447        44.700    22695025.29644
  92932341.66444      1773.29744        37.800
  25308967.74543 132999519.40843     -2602.50843        35.000    25308969.62141
 103635998.35541     -2027.93441        28.100
  23415719.22847 123050456.00847      2194.07447        45.300    23415720.41744
  95883471.03044      1709.66444        38.700
  20156874.50449 105925145.81549      -700.21949        49.900    20156871.39948
  82539004.79148      -545.62948        45.600
  23267637.99144 122272235.82744     -3459.58644        36.800

  21831019.14548 114722860.92948     -2394.02348        46.900    21831018.20245
  89394447.49145     -1865.47745        39.600
 04 09 01 20 53  0.0000000  0  9G 1G13G19G 3G25G27G23G20G16
  21894473.86048 115363992.09048     -2427.49248        46.800    21894474.69745
  89893969.92245     -1891.55545        40.100
  20965439.37849 110174160.23149      1923.19949        49.600    20965438.65946
  85850034.68046      1498.59446        41.200
  24515881.48945 128831833.07845      3153.26245        40.200    24515883.42442
 100388463.01042      2457.08642        33.700
  22669180.76847 119127353.63947      2251.39147        44.700    22669182.21644
  92826518.83544      1754.32844        36.900
  25338685.75642 133155689.37142     -2602.89142        34.400    25338686.88841
 103757689.12641     -2028.24641        17.900
  23390697.17048 122918965.19448      2189.27748        45.600    23390698.34044
  95781010.75244      1705.92644        37.000
  20165055.35649 105968135.98349      -732.52049        50.100    20165052.16248
  82572503.59448      -570.79748        45.600
  23307200.58543 122480134.11143     -3469.69143        36.000

  21858491.78548 114867231.45748     -2417.87148        46.600    21858490.95545
  89506943.96945     -1884.05945        39.600
 04 09 01 20 54  0.0000000  0  8G 1G13G19G 3G27G23G20G16
  21922316.86248 115510305.76948     -2449.59848        46.700    21922317.38645
  90007980.47645     -1908.78145        38.900
  20943613.41249 110059464.09949      1899.84049        49.600    20943612.75646
  85760661.08146      1480.39146        42.000
  24479873.39445 128642613.56445      3153.86745        39.900    24479875.95443
 100241019.56743      2457.55943        35.500
  22643615.37547 118993007.27547      2226.58247        45.300    22643616.56744
  92721833.43644      1734.99644        37.200
  23365729.37547 122787759.78947      2184.17247        45.000    23365730.63444
  95678772.84044      1701.94944        37.300
  20173603.20149 106013054.36649      -765.00849        49.900    20173599.79447
  82607504.90247      -596.11347        45.200
  23346874.68243 122688618.70643     -3479.57043        36.300

  21886233.74448 115013016.02048     -2441.89148        47.100    21886232.93744
  89620542.28144     -1902.77344        38.600
 04 09 01 20 55  0.0000000  0  8G 1G13G19G 3G27G23G20G16
  21950411.68748 115657945.62648     -2471.80548        46.300    21950412.61645
  90123024.42845     -1926.08645        39.700
  20922054.15949 109946169.47349      1876.47749        49.700    20922053.36646
  85672379.57946      1462.18846        41.700
  24443860.84845 128453368.83545      3154.36745        40.800    24443863.62744
 100093556.45844      2457.94944        37.700
  22618334.58148 118860156.84248      2201.51248        45.700    22618336.09244
  92618313.70544      1715.46144        37.100
  23340818.26247 122656852.87847      2179.33247        44.900    23340819.85244
  95576767.53744      1698.17644        38.000
  20182520.80849 106059916.95749      -797.26249        49.800    20182517.37947
  82644021.18747      -621.24647        45.100
  23386657.11443 122897678.63243     -3488.75843        36.100

  21914243.77248 115160208.59048     -2464.84048        47.200    21914242.84444
  89735237.75244     -1920.65644        38.800
 04 09 01 20 56  0.0000000  0  8G 1G13G19G 3G27G23G20G16
  21978755.98148 115806897.05348     -2493.35948        46.000    21978757.27445
  90239090.38845     -1942.87945        40.400
  20900763.36849 109834285.79649      1853.03549        49.700    20900762.80046
  85585197.51446      1443.92246        42.400
  24407847.00446 128264113.41946      3154.69546        42.700    24407849.42045
  99946084.99345      2458.20345        39.000
  22593341.47448 118728817.38148      2176.44148        45.800    22593342.47143
  92515971.35043      1695.92643        36.300
  23315962.80647 122526236.02747      2174.67647        45.100    23315964.21544
  95474988.26044      1694.55144        37.000
  20191807.32249 106108718.07349      -829.33649        50.000    20191804.02647
  82682048.01147      -646.23847        45.200
  23426542.64742 123107281.48142     -3498.70742        33.700

  21942516.48948 115308781.67448     -2487.40248        47.100    21942515.37044
  89851008.95344     -1938.23844        38.800
 04 09 01 20 57  0.0000000  0  7G 1G13G19G 3G27G23G16
  22007350.14848 115957160.01248     -2515.41848        46.300    22007351.53745
  90356178.30245     -1960.07045        40.900
  20879745.54149 109723836.13449      1828.73449        49.800    20879744.80846
  85499132.85946      1424.98446        42.200
  24371836.78646 128074876.85546      3153.96946        43.300    24371838.79944
  99798628.19444      2457.63744        37.300
  22568641.35647 118599017.85147      2150.42647        45.300    22568642.44143
  92414828.94443      1675.65243        35.800
  23291163.42347 122395915.52947      2169.51647        44.900    23291164.97544
  95373439.89844      1690.52744        37.500
  20201464.46849 106159466.05449      -862.07449        49.900    20201461.02647
  82721591.86447      -671.75047        44.800
  21971049.08248 115458721.88648     -2510.35948        46.800    21971048.11545
  89967845.42845     -1956.12945        40.100
 04 09 01 20 58  0.0000000  0  7G 1G13G19G 3G27G23G16
  22036191.64548 116108721.68548     -2536.71148        46.300    22036192.86645
  90474278.21645     -1976.66045        40.300
  20859002.54849 109614831.20949      1804.70749        49.700    20859001.98746
  85414193.97546      1406.26246        42.700
  24335832.85446 127885675.91446      3153.08246        41.500    24335834.31643
  99651199.18243      2456.94943        36.600
  22544237.34447 118470774.66047      2124.36747        45.100    22544238.48743
  92314899.25843      1655.34843        36.500
  23266419.43047 122265884.72747      2164.85547        45.500    23266420.84644
  95272117.29044      1686.89844        37.700
  20211490.96249 106212156.04649      -894.23849        49.900    20211487.60447
  82762648.97147      -696.81347        44.900
  21999836.96648 115610003.33648     -2532.32848        47.000    21999835.96145
  90085727.03345     -1973.24645        39.200
 04 09 01 20 59  0.0000000  0  7G 1G13G19G 3G27G23G16
  22065279.72548 116261580.80448     -2557.90248        46.000    22065280.95245
  90593389.11845     -1993.17645        39.700
  20838538.72049 109507293.44249      1780.33649        49.400    20838538.15446
  85330398.33446      1387.27346        42.300
  24299840.96946 127696539.62546      3152.06346        41.700    24299842.27343
  99503820.55043      2456.15243        36.200
  22520134.93347 118344115.96547      2098.00447        44.700    22520136.19645
  92216204.25845      1634.80545        39.300
  23241731.47847 122136149.37647      2160.02347        45.300    23241732.81744
  95171024.88144      1683.13344        37.900
  20221888.46349 106266795.58749      -926.53149        49.700    20221885.20747
  82805225.20847      -721.97747        45.000
  22028877.56948 115762612.26348     -2554.11348        46.800    22028876.65345
  90204643.03545     -1990.22345        39.000
 04 09 01 21 00  0.0000000  0  7G 1G13G19G 3G27G23G16
  22094611.56648 116415721.10748     -2579.60948        46.300    22094612.74845
  90713498.34445     -2010.09045        39.300
  20818355.70849 109401231.35449      1755.30549        49.600    20818355.08146
  85247752.57446      1367.76646        42.300
  24263864.29146 127507481.77346      3149.95746        42.100    24263865.87044
  99356503.00444      2454.50844        37.600
  22496336.37347 118219054.39747      2070.89847        44.600    22496337.81044
  92118753.75044      1613.68444        38.800
  23217098.10947 122006700.26947      2155.03947        45.300    23217099.59944
  95070155.54044      1679.24644        38.800
  20232655.56249 106323376.54449      -959.19149        49.800    20232652.26647
  82849314.24047      -747.42647        44.800
  22058165.45348 115916519.98448     -2575.97748        46.600    22058164.52345
  90324571.07545     -2007.25845        39.400
 04 09 01 21 01  0.0000000  0  7G 1G13G19G 3G27G23G16
  22124187.81048 116571142.73648     -2600.98848        46.600    22124188.87445
  90834606.00945     -2026.74645        39.800
  20798457.99249 109296668.25149      1730.14849        49.600    20798457.36446
  85166274.83046      1348.16446        42.100
  24227908.75446 127318533.16346      3148.01646        43.000    24227909.86844
  99209270.56344      2453.00044        37.300
  22472847.63047 118095620.04047      2043.54347        44.700    22472849.06344
  92022571.19944      1592.36744        37.700
  23192520.52148 121877544.71148      2150.21948        45.700    23192522.02544
  94969514.93144      1675.49244        37.700
  20243793.63049 106381907.55149      -991.73049        49.600    20243790.48047
  82894922.78247      -772.78147        44.800
  22087697.68448 116071714.22448     -2597.12948        46.500    22087696.83044
  90445501.60444     -2023.73844        38.300
 04 09 01 21 02  0.0000000  0  7G 1G13G19G 3G27G23G16
  22154005.87748 116727837.61348     -2622.23848        46.200    22154007.07345
  90956705.79745     -2043.30545        39.000
  20778848.88149 109193620.98549      1704.68449        49.700    20778848.16046
  85085978.27346      1328.32046        42.600
  24191977.66946 127129716.91346      3145.71546        41.500    24191979.08444
  99062141.23444      2451.20344        38.400
  22449672.37647 117973833.78547      2015.82447        45.500    22449673.74143
  91927672.86443      1570.77043        36.400
  23167999.01748 121748682.16348      2145.28548        45.900    23168000.29744
  94869102.62544      1671.64844        38.600
  20255302.72749 106442388.37349     -1024.28149        49.700    20255299.48447
  82942050.66047      -798.14547        44.800
  22117471.15548 116228174.64248     -2618.21148        46.500    22117470.29444
  90567418.76244     -2040.16844        37.400
 04 09 01 21 03  0.0000000  0  7G 1G13G19G 3G27G23G16
  22184064.60748 116885796.56048     -2643.28948        46.200    22184065.64745
  91079790.58545     -2059.70745        40.000
  20759530.88449 109092104.21749      1678.99249        49.700    20759530.09446
  85006874.30246      1308.30146        42.500
  24156075.84145 126941054.94545      3142.55145        39.900    24156077.87444
  98915132.17144      2448.74644        37.400
  22426814.71748 117853715.69348      1987.80948        46.100    22426815.75544
  91834074.39044      1548.93844        38.700
  23143532.57448 121620110.87048      2140.34848        45.700    23143534.00844
  94768917.27344      1667.80144        37.700
  20267182.72749 106504818.12549     -1056.87149        49.600    20267179.65847
  82990697.19547      -823.53947        44.900
  22147481.74148 116385880.14548     -2638.82448        46.700    22147480.54744
  90690306.12744     -2056.23044        38.100
 04 09 01 21 04  0.0000000  0  7G 1G13G19G 3G27G23G16
  22214362.50748 117045012.91548     -2663.93848        45.900    22214363.63745
  91203855.17345     -2075.79745        39.000
  20740507.60049 108992136.27849      1653.25849        49.900    20740507.09646
  84928977.21646      1288.25046        43.300
  24120208.56446 126752571.59246      3139.83646        41.800    24120210.55844
  98768262.28044      2446.62544        37.400
  22404278.90148 117735288.27548      1959.71148        45.800    22404279.63244
  91741793.33044      1527.04344        37.700
  23119121.77048 121491832.43048      2135.69948        45.800    23119123.21144
  94668960.11544      1664.18044        38.200
  20279433.95649 106569198.13849     -1089.15249        49.700    20279430.72747
  83040863.40747      -848.69147        44.600
  22177725.44648 116544811.95248     -2658.87148        46.700    22177724.35644
  90814149.03444     -2071.85244        38.200
 04 09 01 21 05  0.0000000  0  7G 1G13G19G 3G27G23G16
  22244897.54848 117205475.57848     -2684.57048        46.000    22244898.70645
  91328890.89145     -2091.87545        39.400
  20721781.62649 108893730.00949      1627.08249        49.800    20721780.92446
  84852297.02046      1267.85246        43.300
  24084379.58447 126564287.24747      3136.44547        43.400    24084380.98144
  98621547.43544      2443.98044        37.900
  22382068.04647 117618569.67347      1930.99247        45.000    22382068.82144
  91650843.81544      1504.66844        36.700
  23094766.30548 121363843.13248      2130.68048        45.800    23094767.56444
  94569228.25344      1660.26644        38.700
  20292055.45349 106635524.46149     -1121.63349        49.700    20292052.06747
  83092546.22547      -874.00447        44.400
  22208198.26948 116704947.19848     -2678.80548        46.500    22208197.23644
  90938929.71344     -2087.38344        38.400
 04 09 01 21 06  0.0000000  0  7G 1G13G19G 3G27G23G16
  22275669.06248 117367180.21948     -2705.19948        46.100    22275669.96744
  91454894.38244     -2107.94944        38.400
  20703356.42049 108796905.51049      1600.62149        49.600    20703356.08446
  84776849.37246      1247.23446        43.300
  24048593.65047 126376229.28647      3132.32047        43.800    24048594.43344
  98475008.99944      2440.77044        37.700
  22360186.87347 117503584.63247      1902.07047        44.400    22360188.02344
  91561245.14344      1482.12944        38.600
  23070466.41148 121236147.02148      2125.92248        46.000    23070467.81944
  94469724.83944      1656.55944        38.400
  20305047.93449 106703800.60549     -1153.94549        49.500    20305044.76047
  83145748.38647      -899.18047        44.300
  22238896.99348 116866270.10948     -2698.37548        46.500    22238896.00344
  91064635.81744     -2102.63344        37.500
 04 09 01 21 07  0.0000000  0  7G 1G13G19G 3G27G23G16
  22306674.99148 117530117.15348     -2726.12548        45.900    22306676.06645
  91581858.11945     -2124.25845        39.000
  20685235.18849 108701678.15849      1573.71949        49.800    20685234.71946
  84702646.24446      1226.27046        43.300
  24012854.65646 126188419.98146      3127.79746        42.900    24012855.18244
  98328664.28744      2437.24244        38.000
  22338639.02647 117390351.95647      1872.37947        44.800    22338640.54145
  91473011.95145      1458.99245        38.900
  23046222.30048 121108742.74948      2120.96948        45.900    23046223.48344
  94370448.84644      1652.69944        38.300
  20318411.07549 106774024.67149     -1186.71949        49.500    20318407.96547
  83200468.40447      -924.71947        44.300
  22269817.63848 117028759.27548     -2717.69148        46.300    22269816.67044
  91191250.68944     -2117.68444        38.600
 04 09 01 21 08  0.0000000  0  8G 1G13G19G 3G 8G27G23G16
  22337914.49448 117694281.54548     -2746.33648        46.200    22337915.61944
  91709778.31544     -2140.00444        37.800
  20667421.76249 108608067.65049      1546.61349        49.700    20667421.22846
  84629702.99246      1205.14846        42.900
  23977167.55046 126000886.66046      3123.10946        41.800    23977168.60745
  98182534.66745      2433.59445        39.400
  22317429.74547 117278896.64747      1842.72347        45.400    22317431.21444
  91386163.72544      1435.88344        38.700
  25081284.29342 131803034.36452      2890.93842        33.000

  23022034.39848 120981634.34948      2115.99248        45.900    23022035.56445
  94271403.39345      1648.82045        39.100
  20332145.51849 106846199.21449     -1219.19549        49.600    20332142.30647
  83256708.28747      -950.02747        44.000
  22300957.30448 117192398.93348     -2736.72748        46.100    22300956.57844
  91318762.04244     -2132.51644        38.800
 04 09 01 21 09  0.0000000  0  8G 1G13G19G 3G 8G27G23G16
  22369384.30648 117859655.63748     -2766.30548        46.200    22369385.49344
  91838641.13744     -2155.56644        37.600
  20649917.36449 108516081.41849      1519.30549        49.900    20649916.77746
  84558025.41346      1183.87146        43.100
  23941536.18446 125813644.58946      3117.94146        43.000    23941537.45044
  98036632.00644      2429.56344        38.100
  22296561.01847 117169229.50447      1812.82847        45.400    22296562.21444
  91300708.87344      1412.59044        37.800
  25048285.60144 131629620.80744      2889.47744        36.800    25048287.92141
 102568573.13551      2251.53541        27.000
  22997901.02448 120854813.09248      2111.26248        46.000    22997902.23944
  94172581.68644      1645.13744        38.600
  20346249.19649 106920314.13649     -1251.52349        49.400    20346245.99347
  83314460.14647      -975.21547        44.000
  22332310.29248 117357160.34948     -2755.52748        46.200    22332309.60544
  91447147.50344     -2147.16844        37.700
 04 09 01 21 10  0.0000000  0  8G 1G13G19G 3G 8G27G23G16
  22401084.33348 118026240.31948     -2786.62148        45.900    22401085.52244
  91968447.26944     -2171.39544        37.200
  20632727.02249 108425745.24149      1491.67649        49.800    20632726.34446
  84487633.58746      1162.34046        43.200
  23905967.32046 125626726.82746      3112.29746        43.300    23905968.04344
  97890982.01744      2425.16444        37.700
  22276038.00747 117061379.91247      1781.99247        45.100    22276038.98044
  91216670.29944      1388.56344        37.900
  25015306.65444 131456317.23044      2887.44144        37.700    25015310.01841
 102433531.55241      2249.94941        31.100
  22973824.11748 120728288.67348      2106.27048        46.100    22973825.29445
  94073991.28445      1641.24645        39.000
  20360723.41449 106996377.23549     -1284.07849        49.500    20360720.40047
  83373730.05847     -1000.58247        43.800
  22363875.01348 117523033.68048     -2773.61748        45.900    22363874.39545
  91576399.38245     -2161.26245        39.000
 04 09 01 21 11  0.0000000  0  8G 1G13G19G 3G 8G27G23G16
  22433012.71848 118194024.46348     -2806.00448        46.000    22433013.93744
  92099188.02344     -2186.50044        38.000
  20615853.16149 108337072.69149      1464.06349        49.600    20615852.48846
  84418538.10946      1140.82446        43.100
  23870463.86446 125440155.46746      3106.56346        42.700    23870464.55944
  97745601.95944      2420.69944        38.300
  22255864.02047 116955365.87547      1751.78947        44.600    22255865.41244
  91134062.02544      1365.02744        38.600
  24982348.80444 131283123.32844      2885.85944        38.700    24982352.39041
 102298575.45341      2248.72341        29.200
  22949803.46348 120602059.60348      2101.55948        46.200    22949804.58645
  93975631.02945      1637.57445        39.400
  20375567.82149 107074384.95649     -1316.14149        49.400    20375564.96947
  83434515.27347     -1025.56647        44.200
  22395647.14248 117689996.98848     -2791.62148        46.100    22395646.54944
  91706500.58244     -2175.29344        37.900
 04 09 01 21 12  0.0000000  0  8G 1G13G19G 3G 8G27G23G16
  22465167.03148 118362996.68848     -2826.14548        45.700    22465168.18044
  92230854.55544     -2202.19544        37.600
  20599298.41049 108250077.81349      1435.65249        49.600    20599297.87046
  84350749.90446      1118.68846        42.800
  23835029.91546 125253952.14446      3099.88746        42.000    23835030.56745
  97600508.65445      2415.49245        38.900
  22236042.52847 116851204.56447      1720.17247        44.800    22236043.99444
  91052897.44544      1340.39144        37.800
  24949411.14845 131110037.45945      2883.56645        39.900    24949414.81741
 102163703.54041      2246.93841        28.600
  22925838.66048 120476123.97448      2096.33248        46.400    22925839.70444
  93877499.43744      1633.50444        38.700
  20390781.46649 107154333.09449     -1348.84849        49.300    20390778.69047
  83496812.48947     -1051.05547        44.500
  22427622.80348 117858028.63248     -2809.45348        46.000    22427621.99344
  91837434.25844     -2189.18844        37.500
 04 09 01 21 13  0.0000000  0  8G 1G13G19G 3G 8G27G23G16
  22497545.90147 118533149.76647     -2845.68847        45.300    22497547.45944
  92363441.22844     -2217.42244        37.400
  20583066.48649 108164778.04149      1407.42649        49.700    20583065.72546
  84284282.55746      1096.69146        43.200
  23799671.01346 125068142.62746      3093.68846        42.400    23799672.05145
  97455722.22545      2410.66445        39.100
  22216577.90448 116748917.13548      1689.08648        45.600    22216579.13944
  90973193.00944      1316.16844        38.800
  24916495.27645 130937063.79045      2882.22745        40.400    24916499.03841
 102028919.04941      2245.89141        32.100
  22901930.16248 120350484.16648      2091.57448        46.700    22901931.07944
  93779598.34644      1629.79344        37.800
  20406364.21949 107236220.90949     -1380.96149        49.400    20406361.17947
  83560621.13347     -1076.07847        44.100
  22459798.08448 118027110.89648     -2826.50448        45.800    22459797.49544
  91969186.60044     -2202.47344        37.600
 04 09 01 21 14  0.0000000  0  8G 1G13G19G 3G 8G27G23G16
  22530147.69248 118704471.34648     -2865.30948        46.000    22530149.02443
  92496938.43243     -2232.71143        36.600
  20567159.49349 108081186.70349      1378.68849        49.500    20567158.95347
  84219146.45747      1074.29747        43.400
  23764391.63646 124882748.21146      3086.14146        42.900    23764392.50144
  97311259.22744      2404.78144        37.600
  22197472.96747 116648519.89147      1657.16447        45.300    22197474.01445
  90894961.44845      1291.29345        39.100
  24883600.36246 130764200.89446      2880.03146        41.600    24883603.74841
 101894220.85541      2244.18041        32.200
  22878077.54248 120225137.92848      2086.46548        46.300    22878078.59344
  93681926.01844      1625.81344        38.200
  20422315.05849 107320042.95649     -1413.27749        49.300    20422312.15147
  83625936.98147     -1101.25847        44.300
  22492169.11548 118197221.57048     -2843.69948        45.900    22492168.49744
  92101740.30344     -2215.87144        37.200
 04 09 01 21 15  0.0000000  0  8G 1G13G19G 3G 8G27G23G16
  22562970.50348 118876953.95048     -2884.53948        45.700    22562971.52344
  92631340.32644     -2247.69544        37.300
  20551580.93449 107999320.70549      1349.92649        49.700    20551580.42646
  84155354.78046      1051.88746        43.200
  23729196.51147 124697795.47547      3078.53147        43.400    23729196.88745
  97167140.40645      2398.85245        39.100
  22178731.71547 116550033.81147      1625.37147        45.000    22178732.46344
  90818219.09144      1266.52044        37.900
  24850727.18046 130591452.03146      2878.09046        41.700    24850730.71642
 101759611.52742      2242.66442        33.300
  22854281.24848 120100087.74648      2081.66448        46.600    22854282.23145
  93584484.38645      1622.07445        38.900
  20438634.02249 107405798.87649     -1445.52349        49.400    20438631.06147
  83692759.73147     -1126.38747        43.900
  22524732.35047 118368343.41147     -2860.43447        45.400    22524731.96144
  92235081.92144     -2228.91444        38.100
 04 09 01 21 16  0.0000000  0  8G 1G13G19G 3G 8G27G23G16
  22596012.05147 119050589.44447     -2903.44147        45.300    22596013.55645
  92766640.55345     -2262.43045        39.300
  20536334.07549 107919197.96249      1320.71549        49.600    20536333.50747
  84092921.47147      1029.12547        43.600
  23694089.88747 124513309.81147      3070.29747        43.800    23694090.28244
  97023385.52744      2392.43844        38.800
  22160357.87647 116453478.43747      1592.88747        45.200    22160358.74744
  90742981.18744      1241.20744        38.800
  24817876.33545 130418821.30945      2876.12945        40.800    24817879.67642
 101625094.21942      2241.13742        33.100
  22830541.84048 119975335.89448      2076.65248        46.700    22830542.73144
  93487275.21744      1618.16844        38.800
  20455320.53249 107493487.00449     -1477.57849        49.500    20455317.46647
  83761088.09747     -1151.36347        43.900
  22557484.61848 118540458.28748     -2876.80948        45.600    22557484.45244
  92369197.32744     -2241.67244        37.900
 04 09 01 21 17  0.0000000  0  8G 1G13G19G 3G 8G27G23G16
  22629270.65548 119225364.44548     -2922.60548        45.700    22629272.36544
  92902828.72144     -2277.35944        38.600
  20521421.36549 107840830.34849      1291.21549        49.600    20521420.65447
  84031855.79747      1006.13747        43.900
  23659076.37447 124329312.01047      3062.16447        43.600    23659076.64845
  96880010.80545      2386.09845        39.300
  22142354.25048 116358869.46748      1560.28548        45.800    22142355.30744
  90669259.94544      1215.80544        38.000
  24785047.82745 130246306.16445      2874.16445        41.000    24785050.66741
 101490667.01341      2239.60541        31.800
  22806858.61648 119850879.90548      2071.40648        46.400    22806859.40344
  93390296.57844      1614.07844        38.200
  20472373.38149 107583100.33149     -1509.92649        49.300    20472370.35747
  83830916.62347     -1176.57047        43.700
  22590421.76848 118713543.82548     -2892.96148        45.800    22590421.69744
  92504069.11744     -2254.25844        37.900
 04 09 01 21 18  0.0000000  0  8G 1G13G19G 3G 8G27G23G16
  22662744.52748 119401271.21848     -2941.35248        45.600    22662746.41344
  93039898.79944     -2291.96544        38.400
  20506845.68849 107764234.75049      1261.57849        49.800    20506845.18447
  83972170.92147       983.04347        43.900
  23624160.63046 124145828.84146      3053.35946        43.100    23624160.79744
  96737037.11544      2379.23844        38.100
  22124724.89748 116266226.25648      1527.36748        45.700    22124725.96545
  90597070.44545      1190.15245        39.000
  24752242.05045 130073910.98245      2871.93845        40.700    24752244.91143
 101356333.31443      2237.87543        34.500
  22783231.92448 119726722.38048      2066.60948        46.300    22783232.96645
  93293550.51245      1610.34045        39.200
  20489792.41849 107674637.44149     -1541.76249        49.500    20489789.23647
  83902244.18847     -1201.37547        43.700
  22623540.27748 118887582.83048     -2908.68448        45.800    22623540.30744
  92639683.83144     -2266.51244        38.100
 04 09 01 21 19  0.0000000  0  8G 1G13G19G 3G 8G27G23G16
  22696432.15948 119578299.67348     -2960.09048        45.600    22696434.06144
  93177842.91044     -2306.56644        37.400
  20492610.14149 107689426.37249      1231.67649        49.700    20492609.55047
  83913878.68147       959.74647        43.600
  23589347.28647 123962884.50847      3044.39547        43.400    23589347.40045
  96594483.27445      2372.25445        39.200
  22107472.89247 116175566.38747      1494.38347        44.900    22107473.92244
  90526426.41444      1164.44944        38.600
  24719459.11645 129901636.90145      2870.07845        39.600    24719462.65541
 101222093.94141      2236.42241        32.100
  22759662.65548 119602864.68248      2061.60948        46.300    22759663.52745
  93197038.08045      1606.44545        39.500
  20507576.76549 107768094.96549     -1573.80149        49.300    20507573.64547
  83975068.18447     -1226.34047        43.700
  22656836.78248 119062556.21248     -2924.25448        45.900    22656836.72044
  92776026.66344     -2278.64544        37.900
 04 09 01 21 20  0.0000000  0  8G 1G13G19G 3G 8G27G23G16
  22730331.15348 119756439.17748     -2978.32448        45.900    22730333.06244
  93316652.77144     -2320.77344        37.900
  20478717.52749 107616420.29449      1201.62949        49.600    20478716.86547
  83856990.83847       936.33247        43.800
  23554641.03847 123780502.74247      3034.66447        43.500    23554641.27444
  96452367.77744      2364.67244        38.000
  22090601.64547 116086907.58947      1460.79347        45.300    22090602.53444
  90457341.67144      1138.27744        38.500
  24686699.69445 129729485.21145      2868.04345        40.800    24686702.64942
 101087949.91442      2234.83642        33.700
  22736150.58948 119479307.08548      2056.62548        46.700    22736151.12645
  93100759.48045      1602.56345        39.100
  20525725.65549 107863467.82649     -1605.45349        49.100    20525722.72247
  84049384.64247     -1251.00447        44.100
  22690307.29648 119238444.21048     -2939.05548        45.600    22690307.24644
  92913082.16844     -2290.17644        38.000
 04 09 01 21 21  0.0000000  0  8G 1G13G19G 3G 8G27G23G16
  22764440.01148 119935680.09948     -2996.62148        46.100    22764441.60044
  93456320.84944     -2335.03544        38.300
  20465170.74649 107545231.69449      1170.96549        49.600    20465170.10547
  83801519.21247       912.43847        44.000
  23520046.51646 123598708.98246      3024.76646        43.300    23520046.90345
  96310710.48745      2356.95745        39.400
  22074114.65748 116000267.50248      1426.88748        46.000    22074115.30644
  90389829.96044      1111.85544        38.200
  24653963.87046 129557458.31746      2865.84046        41.400    24653967.68743
 100953903.18443      2233.11743        35.700
  22712695.74948 119356051.43548      2051.35948        46.600    22712696.21944
  93004716.17144      1598.45744        38.300
  20544238.32749 107960752.62549     -1637.59049        49.300    20544235.53647
  84125190.92747     -1276.04747        43.800
  22723948.46148 119415228.84048     -2953.82048        45.900    22723948.14944
  93050836.35344     -2301.68044        37.400
 04 09 01 21 22  0.0000000  0  8G 1G13G19G 3G 8G27G23G16
  22798756.22648 120116010.66148     -3014.59448        46.100    22798757.33144
  93596838.03544     -2349.03944        36.800
  20451972.33249 107475873.61449      1140.63749        49.700    20451971.65447
  83747473.96747       888.80547        43.700
  23485568.05946 123417525.59046      3014.33646        43.200    23485568.45744
  96169528.79244      2348.82844        38.200
  22058014.96748 115915661.81248      1392.88748        45.900    22058015.46444
  90323903.46244      1085.36344        38.200
  24621252.41245 129385557.35745      2863.85245        41.000    24621255.06841
 100819954.55341      2231.57441        31.900
  22689298.16648 119233097.27748      2046.76648        46.300    22689298.95044
  92908907.78944      1594.87944        38.700
  20563113.67149 108059943.00349     -1669.01649        49.200    20563110.77447
  84202482.07947     -1300.53547        43.900
  22757756.11048 119592889.46448     -2968.27348        45.600    22757755.88344
  93189273.13744     -2312.94544        38.000
 04 09 01 21 23  0.0000000  0  8G 1G13G19G 3G 8G27G23G16
  22833277.66747 120297423.53547     -3032.46947        45.500    22833279.08744
  93738198.54244     -2362.96544        37.800
  20439125.78149 107408364.71249      1109.65249        49.700    20439125.20547
  83694869.62947       864.66047        43.900
  23451211.42247 123236981.13847      3003.75447        43.700    23451211.72544
  96028844.99344      2340.58644        38.000
  22042305.76247 115833110.55947      1358.66047        44.900    22042306.50945
  90259577.84245      1058.69145        39.400
  24588565.25746 129213787.60346      2861.51246        41.700    24588568.27442
 100686108.17842      2229.75042        32.900
  22665959.00848 119110449.77948      2041.59848        46.300    22665959.77244
  92813338.35944      1590.85244        38.100
  20582351.48349 108161037.62849     -1700.66449        49.300    20582348.69347
  84281257.05647     -1325.19547        43.600
  22791727.79048 119771411.09148     -2982.34448        45.600    22791727.40643
  93328380.83943     -2323.90643        35.900
 04 09 01 21 24  0.0000000  0  8G 1G13G19G 3G 8G27G23G16
  22868000.88148 120479896.85348     -3050.68448        45.600    22868002.72545
  93880385.36645     -2377.16045        39.300
  20426631.84749 107342708.21349      1078.18049        49.700    20426631.10947
  83643708.72747       840.13747        43.700
  23416979.45047 123057088.71147      2991.87947        44.000    23416979.36844
  95888669.22744      2331.33244        38.400
  22026988.33848 115752618.14548      1323.70748        45.900    22026989.32545
  90196856.53145      1031.45745        39.300
  24555901.75145 129042140.36445      2859.32845        40.700    24555904.74542
 100552357.20342      2228.04342        34.300
  22642676.40148 118988098.77448      2036.18848        46.500    22642677.12844
  92717999.96344      1586.63744        38.600
  20601948.45149 108264020.70449     -1732.63349        49.100    20601945.68147
  84361503.55347     -1350.10547        43.600
  22825857.62347 119950763.69947     -2996.46547        45.400    22825857.19244
  93468136.04144     -2334.91044        37.000
 04 09 01 21 25  0.0000000  0  8G 1G13G19G 3G 8G27G23G16
  22902928.44548 120663440.97548     -3067.68848        46.000    22902930.23044
  94023406.59244     -2390.41044        37.700
  20414497.16549 107278939.58949      1047.22349        49.800    20414496.21147
  83594018.89147       816.01647        44.000
  23382879.52447 122877894.38447      2981.02047        43.400    23382879.47344
  95749037.46844      2322.87144        38.700
  22012070.26448 115674222.27448      1289.28948        46.500    22012071.06244
  90135768.86644      1004.63744        38.300
  24523265.70445 128870638.11045      2857.30945        41.000    24523268.86943
 100418719.26643      2226.47343        34.700
  22619454.58448 118866067.26248      2031.43848        46.900    22619455.35545
  92622910.51645      1582.93445        39.200
  20621907.87749 108368907.90349     -1763.73849        49.300    20621905.09547
  84443233.78047     -1374.34447        43.800
  22860146.00247 120130950.08247     -3009.80547        45.200    22860145.36943
  93608540.93743     -2345.30543        36.300
 04 09 01 21 26  0.0000000  0  8G 1G13G19G 3G 8G27G23G16
  22938053.97148 120848024.44248     -3085.09448        46.000    22938055.65344
  94167237.68544     -2403.97344        38.000
  20402720.41349 107217052.40049      1015.62549        49.800    20402719.65447
  83545795.11147       791.39547        43.800
  23348913.21146 122699402.22146      2968.84846        43.100    23348912.99644
  95609952.80444      2313.38344        38.300
  21997549.99848 115597917.91348      1254.24648        45.800    21997550.75144
  90076310.97244       977.33244        37.800
  24490653.85446 128699262.66946      2855.23846        42.200    24490656.90642
 100285180.15542      2224.85942        34.100
  22596289.91548 118744336.36648      2026.13748        46.800    22596290.58444
  92528055.32444      1578.80544        38.700
  20642224.67749 108475673.00949     -1795.12549        49.300    20642221.85646
  84526427.31646     -1398.80146        43.100
  22894585.68847 120311931.26147     -3023.04747        45.000    22894585.07244
  93749565.14844     -2355.62544        37.400
 04 09 01 21 27  0.0000000  0  8G 1G13G19G 3G 8G27G23G16
  22973376.56148 121033644.69348     -3102.59448        45.800    22973378.34744
  94311876.66344     -2417.60944        37.600
  20391305.95749 107157069.22149       983.63349        49.700    20391305.13347
  83499054.97147       766.46547        44.100
  23315086.79746 122521644.92146      2956.58646        42.800    23315086.90045
  95471440.76945      2303.82845        39.300
  21983432.13748 115523729.07848      1218.42648        45.900    21983433.15844
  90018501.53744       949.41844        37.800
  24458068.59146 128528024.88746      2852.68846        42.300    24458071.44642
 100151748.29242      2222.87142        33.500
  22573184.28348 118622915.74148      2020.91848        47.000    22573184.88544
  92433441.89644      1574.73844        38.800
  20662899.31749 108584318.77549     -1826.60549        49.200    20662896.48147
  84611086.28847     -1423.33247        43.800
  22929174.57047 120493696.95647     -3035.98847        45.400    22929173.96743
  93891200.68543     -2365.70743        35.800
 04 09 01 21 28  0.0000000  0  8G 1G13G19G 3G 8G27G23G16
  23008893.56847 121220288.58847     -3119.12547        45.300    23008895.75344
  94457313.27944     -2430.48844        37.000
  20380256.18749 107099002.24449       951.78949        49.800    20380255.31847
  83453807.96847       741.65247        43.800
  23281405.00847 122344645.78247      2943.68847        44.000    23281405.27844
  95333519.49444      2293.77744        38.700
  21969719.61948 115451669.39348      1183.09448        46.300    21969720.53844
  89962351.18844       921.90644        38.800
  24425509.32546 128356925.11146      2850.68446        43.300    24425511.60141
 100018423.93741      2221.30941        31.000
  22550137.70848 118501805.68648      2016.04348        46.800    22550138.37145
  92339070.49045      1570.93845        40.100
  20683930.36849 108694837.74249     -1857.45349        49.300    20683927.69447
  84697204.90447     -1447.37147        43.700
  22963908.94347 120676227.81047     -3048.35247        45.400    22963908.67344
  94033432.42044     -2375.34444        37.200
 04 09 01 21 29  0.0000000  0  8G 1G13G19G 3G 8G27G23G16
  23044603.21347 121407944.96247     -3135.76247        45.300    23044605.55444
  94603538.83044     -2443.45744        37.000
  20369573.53049 107042864.87349       919.62949        49.700    20369572.76747
  83410064.55747       716.59047        44.000
  23247872.55947 122168429.12347      2930.60947        44.400    23247872.33445
  95196207.95345      2283.59045        38.900
  21956414.99248 115381753.17648      1147.42248        45.800    21956415.61844
  89907871.06344       894.09044        38.500
  24392976.46446 128185965.72446      2848.23446        42.700    24392979.33241
  99885208.97941      2219.39841        29.900
  22527150.60748 118381007.91548      2010.77348        46.800    22527151.28545
  92244942.40845      1566.83245        39.800
  20705316.73649 108807223.06849     -1888.51249        49.300    20705313.88546
  84784777.83446     -1471.57046        43.200
  22998785.56047 120859505.20547     -3060.70347        45.300    22998785.23943
  94176245.89643     -2384.96543        36.000
 04 09 01 21 30  0.0000000  0  8G 1G13G19G 3G 8G27G23G16
  23080503.71748 121596601.12148     -3152.45348        45.600    23080505.83244
  94750543.40944     -2456.46144        37.400
  20359260.34649 106988668.90349       887.09849        49.500    20359259.67147
  83367833.92847       691.24247        44.000
  23214493.03847 121993017.92847      2916.73047        44.100    23214492.53544
  95059524.04144      2272.77344        38.400
  21943520.70848 115313993.52148      1111.46948        46.000    21943521.40544
  89855071.38444       866.07844        38.000
  24360470.76646 128015146.99446      2846.10546        42.000    24360473.42442
  99752103.61542      2217.74242        32.800
  22504222.96148 118260523.01248      2005.67248        46.900    22504223.66845
  92151058.11745      1562.85945        39.000
  20727056.57149 108921466.62149     -1919.43449        49.100    20727053.69946
  84873798.73146     -1495.66446        42.900
  23033800.48147 121043509.51747     -3072.52747        45.500    23033800.11544
  94319625.79544     -2394.18044        36.900
 04 09 01 21 31  0.0000000  0  8G 1G13G19G 3G 8G27G23G16
  23116592.90548 121786248.95348     -3169.05948        45.900    23116594.66844
  94898320.73644     -2469.40244        37.700
  20349319.95449 106936431.75549       854.17649        49.600    20349319.16147
  83327129.65747       665.59047        43.900
  23181271.52547 121818440.69647      2902.60547        43.700    23181270.99444
  94923489.95744      2261.76644        37.800
  21931040.32048 115248408.21548      1074.87948        46.600    21931040.91445
  89803965.96545       837.56645        38.900
  24327992.92346 127844475.08346      2843.47346        42.800    24327995.71342
  99619112.65342      2215.69142        33.600
  22481356.08548 118140356.47348      2000.20748        46.900    22481356.76645
  92057421.89745      1558.60245        39.600
  20749149.54949 109037565.69549     -1950.42649        49.300    20749146.84747
  84964265.48847     -1519.81647        43.500
  23068951.15247 121228226.28547     -3084.45747        45.300    23068950.52344
  94463560.86244     -2403.47744        37.100
 04 09 01 21 32  0.0000000  0  8G 1G13G19G 3G 8G27G23G16
  23152868.26347 121976876.29847     -3185.21147        45.200    23152870.26344
  95046861.29044     -2481.98444        37.100
  20339754.77649 106886165.86449       821.24649        49.700    20339753.96147
  83287961.41747       639.93047        43.900
  23148213.40747 121644721.28947      2887.83247        43.800    23148213.33745
  94788124.32445      2250.25445        39.000
  21918976.10248 115185010.32448      1038.21148        45.900    21918976.78944
  89754565.04444       808.99244        38.600
  24295542.91046 127673951.95346      2841.11746        41.600    24295546.27643
  99486237.64343      2213.85543        35.600
  22458550.16648 118020509.96748      1994.80548        47.000    22458550.70445
  91964035.05345      1554.39145        39.000
  20771594.13449 109155512.38549     -1981.03549        49.200    20771591.47446
  85056171.95246     -1543.66846        42.700
  23104233.73947 121413637.59147     -3095.84847        45.000    23104233.42943
  94608037.10143     -2412.35243        36.100
 04 09 01 21 33  0.0000000  0  8G 1G13G19G 3G 8G27G23G16
  23189326.28347 122168463.94947     -3201.22747        44.900    23189328.41643
  95196150.16143     -2494.46943        36.300
  20330565.67349 106837876.62349       788.30549        49.600    20330564.84547
  83250333.44247       614.26247        44.300
  23115322.43247 121471877.44147      2873.55547        44.500    23115322.03545
  94653440.90945      2239.12945        39.400
  21907328.94348 115123806.04148      1001.61348        45.700    21907329.94344
  89706873.43544       780.47744        38.700
  24263121.43946 127503573.02646      2838.37146        42.300    24263123.45942
  99353474.94342      2211.71542        33.900
  22435804.00148 117900978.57448      1989.77048        46.500    22435804.57745
  91870893.75645      1550.46545        39.900
  20794387.48349 109275292.43949     -2011.45349        49.000    20794384.69446
  85149507.00546     -1567.37146        43.300
  23139643.75847 121599718.09247     -3106.91447        45.000    23139643.27043
  94753034.81143     -2420.97743        36.000
 04 09 01 21 34  0.0000000  0  8G 1G13G19G 3G 8G27G23G16
  23225966.39847 122361009.31747     -3217.00847        44.600    23225968.62743
  95346185.31543     -2506.76243        35.200
  20321756.94849 106791586.23549       754.85949        49.700    20321756.09847
  83214263.01147       588.19947        44.500
  23082604.56947 121299942.62147      2858.02747        44.700    23082603.97745
  94519465.89245      2227.03145        39.700
  21896104.00248 115064817.42348       964.63348        46.800    21896104.45044
  89660908.27344       751.63344        37.800
  24230728.33246 127333349.71946      2835.74646        41.200    24230731.19943
  99220833.54943      2209.66843        34.800
  22413119.91948 117781773.59948      1984.09848        47.000    22413120.59445
  91778006.81845      1546.04745        39.000
  20817529.92649 109396907.53749     -2042.09049        49.000    20817527.47846
  85244271.95246     -1591.24246        42.900
  23175179.26047 121786459.53247     -3117.65247        44.800    23175179.05543
  94898547.53043     -2429.34443        36.000
 04 09 01 21 35  0.0000000  0  8G 1G13G19G 3G 8G27G23G16
  23262785.37747 122554494.31047     -3232.69947        44.700    23262787.50743
  95496952.66043     -2518.98843        35.800
  20313329.78649 106747300.64849       721.09849        49.700    20313328.79147
  83179754.75647       561.89147        44.100
  23050062.83747 121128934.93247      2841.94947        44.300    23050062.22944
  94386213.30544      2214.50444        38.700
  21885301.96348 115008051.08148       927.36348        46.400    21885302.31044
  89616674.77044       722.61744        38.200
  24198364.89146 127163278.73646      2833.32446        42.600    24198367.53543
  99088310.84143      2207.78143        36.500
  22390497.40448 117662891.19648      1978.44948        46.900    22390497.90045
  91685371.22845      1541.64545        39.700
  20841019.12749 109520343.33249     -2072.53149        49.200    20841016.39146
  85340455.62746     -1614.96146        42.600
  23210836.24447 121973837.92647     -3128.27047        44.800    23210835.92243
  95044556.58743     -2437.61743        36.300
 04 09 01 21 36  0.0000000  0  8G 1G13G19G 3G 8G27G23G16
  23299781.20047 122748906.91047     -3248.09447        44.700    23299783.18643
  95648442.81043     -2530.98443        35.300
  20305286.24349 106705032.34149       687.49649        49.600    20305285.38947
  83146818.41347       535.70747        44.100
  23017702.01447 120958879.67147      2826.08247        44.100    23017701.32145
  94253702.86345      2202.13745        38.900
  21874924.76948 114953519.45348       890.20348        46.000    21874925.31945
  89574182.62045       693.66045        39.300
  24166031.05346 126993362.65746      2830.62946        42.400    24166033.38442
  98955908.82842      2205.68442        32.900
  22367936.73848 117544334.16348      1973.14548        46.900    22367937.26845
  91592989.17245      1537.51245        40.100
  20864853.35849 109645592.37249     -2102.57049        48.900    20864850.53746
  85438052.21046     -1638.37146        43.300
  23246611.14547 122161836.38047     -3138.32847        45.200    23246610.94143
  95191048.81943     -2445.45343        36.000
 04 09 01 21 37  0.0000000  0  8G 1G13G19G 3G 8G27G23G16
  23336951.64447 122944236.34547     -3263.11747        45.000    23336953.63243
  95800647.38043     -2542.69143        35.700
  20297629.18449 106664794.78749       653.73049        49.600    20297628.38347
  83115464.47847       509.39847        44.400
  22985527.47747 120789801.73447      2809.56347        44.900    22985526.65944
  94121953.96244      2189.26644        38.600
  21864975.40348 114901235.53448       852.60248        46.700    21864975.98944
  89533441.92044       664.36344        37.400
  24133726.98946 126823605.28546      2827.98846        42.800    24133729.71543
  98823630.51343      2203.62543        34.700
  22345438.55848 117426106.24448      1967.66448        46.800    22345439.32245
  91500863.56845      1533.24245        39.600
  20889031.16149 109772647.20549     -2132.61349        49.100    20889028.55446
  85537055.92446     -1661.78146        42.800
  23282501.26547 122350438.77647     -3148.32447        44.600    23282501.02343
  95338011.62643     -2453.24243        36.000
 04 09 01 21 38  0.0000000  0  8G 1G13G19G 3G 8G27G23G16
  23374293.70447 123140470.19947     -3277.92247        44.000    23374296.17644
  95953556.66044     -2554.23044        37.000
  20290360.90149 106626599.38949       619.53149        49.600    20290360.10247
  83085701.81947       482.75047        44.100
  22953543.72547 120621726.24447      2792.83247        45.000    22953543.29245
  93990986.20445      2176.23045        39.900
  21855456.10748 114851210.94548       814.71148        46.200    21855456.62644
  89494461.73744       634.83644        38.600
  24101453.72546 126654009.23446      2825.42246        42.800    24101456.57244
  98691477.90044      2201.62544        37.200
  22323003.60648 117308210.35648      1962.09448        47.000    22323004.47045
  91408996.68445      1528.90245        40.000
  20913550.85849 109901499.44849     -2162.40649        48.700    20913548.39146
  85637460.20146     -1684.99646        42.600
  23318502.95347 122539627.73847     -3157.95347        45.100    23318502.41143
  95485431.52643     -2460.74643        35.000
